<?xml version='1.0' encoding='UTF-8'?><gpx version="1.1" creator="JPX - https://github.com/jenetics/jpx" xmlns="http://www.topografix.com/GPX/1/1"><trk><trkseg><trkpt lat="45.8130047767424" lon="13.62198619074602"><ele>65.0</ele><time>2026-04-12T13:29:23Z</time></trkpt><trkpt lat="45.81303966519193" lon="13.622073132383031"><ele>65.0</ele><time>2026-04-12T13:29:24Z</time></trkpt><trkpt lat="45.81309284340721" lon="13.622208018863459"><ele>65.0</ele><time>2026-04-12T13:29:26Z</time></trkpt><trkpt lat="45.81314691960767" lon="13.622365222552826"><ele>65.0</ele><time>2026-04-12T13:29:28Z</time></trkpt><trkpt lat="45.8131731508597" lon="13.622452267074308"><ele>65.0</ele><time>2026-04-12T13:29:29Z</time></trkpt><trkpt lat="45.81319412720436" lon="13.622546217578638"><ele>65.0</ele><time>2026-04-12T13:29:30Z</time></trkpt><trkpt lat="45.81321713916796" lon="13.622648355524744"><ele>65.0</ele><time>2026-04-12T13:29:31Z</time></trkpt><trkpt lat="45.81323766915128" lon="13.622751111949427"><ele>65.0</ele><time>2026-04-12T13:29:32Z</time></trkpt><trkpt lat="45.81325871797901" lon="13.622864103452889"><ele>65.0</ele><time>2026-04-12T13:29:33Z</time></trkpt><trkpt lat="45.813285916145794" lon="13.622988498577048"><ele>65.0</ele><time>2026-04-12T13:29:34Z</time></trkpt><trkpt lat="45.81331291903101" lon="13.623099353702273"><ele>65.0</ele><time>2026-04-12T13:29:35Z</time></trkpt><trkpt lat="45.81333623441692" lon="13.623199406443879"><ele>65.0</ele><time>2026-04-12T13:29:36Z</time></trkpt><trkpt lat="45.81335850850436" lon="13.623294681619935"><ele>65.0</ele><time>2026-04-12T13:29:37Z</time></trkpt><trkpt lat="45.81338662820008" lon="13.623416823800302"><ele>65.0</ele><time>2026-04-12T13:29:38Z</time></trkpt><trkpt lat="45.81342605961597" lon="13.623571511435623"><ele>65.0</ele><time>2026-04-12T13:29:39Z</time></trkpt><trkpt lat="45.81346448863862" lon="13.623732653663659"><ele>65.0</ele><time>2026-04-12T13:29:40Z</time></trkpt><trkpt lat="45.81349164319322" lon="13.623875055206495"><ele>65.0</ele><time>2026-04-12T13:29:41Z</time></trkpt><trkpt lat="45.81351444412321" lon="13.624002484310035"><ele>64.6</ele><time>2026-04-12T13:29:42Z</time></trkpt><trkpt lat="45.813526698474114" lon="13.62412501844019"><ele>64.2</ele><time>2026-04-12T13:29:43Z</time></trkpt><trkpt lat="45.81353347562012" lon="13.62424371601269"><ele>63.8</ele><time>2026-04-12T13:29:44Z</time></trkpt><trkpt lat="45.81353781423682" lon="13.624374863684375"><ele>63.4</ele><time>2026-04-12T13:29:45Z</time></trkpt><trkpt lat="45.81352955073936" lon="13.624513281362894"><ele>63.0</ele><time>2026-04-12T13:29:46Z</time></trkpt><trkpt lat="45.81352801215718" lon="13.624660643838972"><ele>62.833333333333336</ele><time>2026-04-12T13:29:47Z</time></trkpt><trkpt lat="45.81353054507275" lon="13.62478889251802"><ele>62.66666666666667</ele><time>2026-04-12T13:29:48Z</time></trkpt><trkpt lat="45.81353304133112" lon="13.624888822953103"><ele>62.5</ele><time>2026-04-12T13:29:49Z</time></trkpt><trkpt lat="45.81354762329011" lon="13.624995337051242"><ele>62.333333333333336</ele><time>2026-04-12T13:29:50Z</time></trkpt><trkpt lat="45.81356682466407" lon="13.625120368277575"><ele>62.16666666666667</ele><time>2026-04-12T13:29:51Z</time></trkpt><trkpt lat="45.81359219367715" lon="13.625239183850427"><ele>62.0</ele><time>2026-04-12T13:29:52Z</time></trkpt><trkpt lat="45.81361964607068" lon="13.6253426467818"><ele>61.400000000000006</ele><time>2026-04-12T13:29:53Z</time></trkpt><trkpt lat="45.813665169897284" lon="13.625431470005894"><ele>60.800000000000004</ele><time>2026-04-12T13:29:54Z</time></trkpt><trkpt lat="45.81373441828513" lon="13.625510961241112"><ele>60.2</ele><time>2026-04-12T13:29:55Z</time></trkpt><trkpt lat="45.81382079788986" lon="13.625577937177956"><ele>59.6</ele><time>2026-04-12T13:29:56Z</time></trkpt><trkpt lat="45.813909886423076" lon="13.625642741082432"><ele>59.0</ele><time>2026-04-12T13:29:57Z</time></trkpt><trkpt lat="45.813986071290955" lon="13.625699742543448"><ele>59.00000000000001</ele><time>2026-04-12T13:29:58Z</time></trkpt><trkpt lat="45.81408216668875" lon="13.62577229170534"><ele>59.0</ele><time>2026-04-12T13:30:00Z</time></trkpt><trkpt lat="45.81414607318034" lon="13.625812641187117"><ele>59.0</ele><time>2026-04-12T13:30:01Z</time></trkpt><trkpt lat="45.814226241824464" lon="13.62586088624411"><ele>59.0</ele><time>2026-04-12T13:30:02Z</time></trkpt><trkpt lat="45.814299969741235" lon="13.62590745259951"><ele>59.00000000000001</ele><time>2026-04-12T13:30:03Z</time></trkpt><trkpt lat="45.81435937951186" lon="13.625948658017982"><ele>59.0</ele><time>2026-04-12T13:30:04Z</time></trkpt><trkpt lat="45.81441011959989" lon="13.626003198990094"><ele>59.66666666666667</ele><time>2026-04-12T13:30:05Z</time></trkpt><trkpt lat="45.81445651149585" lon="13.626090416677629"><ele>60.333333333333336</ele><time>2026-04-12T13:30:06Z</time></trkpt><trkpt lat="45.81445789125634" lon="13.626211658539157"><ele>61.0</ele><time>2026-04-12T13:30:07Z</time></trkpt><trkpt lat="45.81449027361317" lon="13.626337576648059"><ele>61.66666666666667</ele><time>2026-04-12T13:30:08Z</time></trkpt><trkpt lat="45.81452112650007" lon="13.626461480785151"><ele>62.333333333333336</ele><time>2026-04-12T13:30:09Z</time></trkpt><trkpt lat="45.814588245699014" lon="13.626548263460357"><ele>63.0</ele><time>2026-04-12T13:30:10Z</time></trkpt><trkpt lat="45.81464946620386" lon="13.62660655090392"><ele>63.0</ele><time>2026-04-12T13:30:11Z</time></trkpt><trkpt lat="45.814720047951724" lon="13.62668067480725"><ele>63.0</ele><time>2026-04-12T13:30:13Z</time></trkpt><trkpt lat="45.814851838261" lon="13.62640190440344"><ele>63.0</ele><time>2026-04-12T13:30:27Z</time></trkpt><trkpt lat="45.814958809575" lon="13.626381465978966"><ele>63.0</ele><time>2026-04-12T13:30:29Z</time></trkpt><trkpt lat="45.815056003940285" lon="13.62630974730596"><ele>63.0</ele><time>2026-04-12T13:30:31Z</time></trkpt><trkpt lat="45.815144481804424" lon="13.62623829935267"><ele>63.0</ele><time>2026-04-12T13:30:33Z</time></trkpt><trkpt lat="45.81525199010707" lon="13.626328062681251"><ele>63.0</ele><time>2026-04-12T13:30:35Z</time></trkpt><trkpt lat="45.81534280903388" lon="13.626353348299554"><ele>63.0</ele><time>2026-04-12T13:30:36.999Z</time></trkpt><trkpt lat="45.81542603371823" lon="13.626386756076007"><ele>63.0</ele><time>2026-04-12T13:30:38.999Z</time></trkpt><trkpt lat="45.81551630915407" lon="13.626416810464955"><ele>67.0</ele><time>2026-04-12T13:30:40.999Z</time></trkpt><trkpt lat="45.81560312411999" lon="13.626432865724324"><ele>71.0</ele><time>2026-04-12T13:30:42.999Z</time></trkpt><trkpt lat="45.81570805906963" lon="13.626499284647316"><ele>75.0</ele><time>2026-04-12T13:30:44.999Z</time></trkpt><trkpt lat="45.815780270879806" lon="13.626656700928804"><ele>79.0</ele><time>2026-04-12T13:30:46.999Z</time></trkpt><trkpt lat="45.815804582646216" lon="13.626752631323773"><ele>83.0</ele><time>2026-04-12T13:30:47.999Z</time></trkpt><trkpt lat="45.8158274029269" lon="13.62684392885396"><ele>83.0</ele><time>2026-04-12T13:30:48.999Z</time></trkpt><trkpt lat="45.81585570795714" lon="13.626927870753669"><ele>83.0</ele><time>2026-04-12T13:30:49.999Z</time></trkpt><trkpt lat="45.815885620520895" lon="13.62701416433652"><ele>83.0</ele><time>2026-04-12T13:30:50.999Z</time></trkpt><trkpt lat="45.815923484765726" lon="13.627089299117321"><ele>83.0</ele><time>2026-04-12T13:30:51.999Z</time></trkpt><trkpt lat="45.815962485953634" lon="13.627169468326981"><ele>83.0</ele><time>2026-04-12T13:30:52.999Z</time></trkpt><trkpt lat="45.81600053263585" lon="13.627249707622527"><ele>83.0</ele><time>2026-04-12T13:30:53.999Z</time></trkpt><trkpt lat="45.81603712013505" lon="13.627327326489207"><ele>83.0</ele><time>2026-04-12T13:30:54.999Z</time></trkpt><trkpt lat="45.8160720687441" lon="13.627407788127302"><ele>89.80000000000001</ele><time>2026-04-12T13:30:55.999Z</time></trkpt><trkpt lat="45.816107863137006" lon="13.627587325617396"><ele>96.6</ele><time>2026-04-12T13:30:57.999Z</time></trkpt><trkpt lat="45.81613616768324" lon="13.627674306543183"><ele>103.39999999999999</ele><time>2026-04-12T13:30:58.999Z</time></trkpt><trkpt lat="45.816207017839176" lon="13.62778937961983"><ele>110.19999999999999</ele><time>2026-04-12T13:31:00.999Z</time></trkpt><trkpt lat="45.81630179626891" lon="13.627677392391693"><ele>117.0</ele><time>2026-04-12T13:31:02.999Z</time></trkpt><trkpt lat="45.81631775594135" lon="13.627563267134569"><ele>117.0</ele><time>2026-04-12T13:31:03.999Z</time></trkpt><trkpt lat="45.816322091657106" lon="13.62745153330894"><ele>117.0</ele><time>2026-04-12T13:31:04.999Z</time></trkpt><trkpt lat="45.81635392085766" lon="13.627349400673854"><ele>117.0</ele><time>2026-04-12T13:31:05.999Z</time></trkpt><trkpt lat="45.81636977554253" lon="13.62724087406832"><ele>117.0</ele><time>2026-04-12T13:31:06.999Z</time></trkpt><trkpt lat="45.81636959460348" lon="13.627122054385746"><ele>117.0</ele><time>2026-04-12T13:31:07.999Z</time></trkpt><trkpt lat="45.816401960505715" lon="13.62701266539328"><ele>117.0</ele><time>2026-04-12T13:31:08.999Z</time></trkpt><trkpt lat="45.81640239981035" lon="13.626895576435876"><ele>116.66666666666667</ele><time>2026-04-12T13:31:09.999Z</time></trkpt><trkpt lat="45.81643635926553" lon="13.626785719253487"><ele>116.33333333333334</ele><time>2026-04-12T13:31:10.999Z</time></trkpt><trkpt lat="45.81645634328111" lon="13.626676352320757"><ele>116.0</ele><time>2026-04-12T13:31:11.999Z</time></trkpt><trkpt lat="45.816477737872944" lon="13.626564903151733"><ele>115.66666666666667</ele><time>2026-04-12T13:31:12.999Z</time></trkpt><trkpt lat="45.816504832093116" lon="13.626452479352015"><ele>115.33333333333334</ele><time>2026-04-12T13:31:13.999Z</time></trkpt><trkpt lat="45.816530959605515" lon="13.62632996816507"><ele>115.0</ele><time>2026-04-12T13:31:14.999Z</time></trkpt><trkpt lat="45.81653265888077" lon="13.626197140204763"><ele>115.00000000000001</ele><time>2026-04-12T13:31:15.999Z</time></trkpt><trkpt lat="45.816544439496376" lon="13.626065993197775"><ele>115.0</ele><time>2026-04-12T13:31:16.999Z</time></trkpt><trkpt lat="45.8165648067237" lon="13.625936507671154"><ele>115.0</ele><time>2026-04-12T13:31:17.999Z</time></trkpt><trkpt lat="45.81657532060436" lon="13.625807171446194"><ele>115.0</ele><time>2026-04-12T13:31:18.999Z</time></trkpt><trkpt lat="45.81658786211872" lon="13.625686011591823"><ele>115.00000000000001</ele><time>2026-04-12T13:31:19.999Z</time></trkpt><trkpt lat="45.81658898330578" lon="13.625565249959726"><ele>115.0</ele><time>2026-04-12T13:31:20.999Z</time></trkpt><trkpt lat="45.81661567209419" lon="13.62545067876275"><ele>115.00000000000001</ele><time>2026-04-12T13:31:21.999Z</time></trkpt><trkpt lat="45.81664247025043" lon="13.625339351586254"><ele>115.0</ele><time>2026-04-12T13:31:22.999Z</time></trkpt><trkpt lat="45.81666792839954" lon="13.625232058019611"><ele>115.0</ele><time>2026-04-12T13:31:23.999Z</time></trkpt><trkpt lat="45.81670185683303" lon="13.625131050584033"><ele>115.0</ele><time>2026-04-12T13:31:24.999Z</time></trkpt><trkpt lat="45.816728282188514" lon="13.62501767111743"><ele>115.00000000000001</ele><time>2026-04-12T13:31:26Z</time></trkpt><trkpt lat="45.81677446056721" lon="13.624911778554848"><ele>115.0</ele><time>2026-04-12T13:31:27Z</time></trkpt><trkpt lat="45.81680991010907" lon="13.624795522831441"><ele>123.2</ele><time>2026-04-12T13:31:28Z</time></trkpt><trkpt lat="45.816842649071155" lon="13.6246696470691"><ele>131.4</ele><time>2026-04-12T13:31:29Z</time></trkpt><trkpt lat="45.81688676165356" lon="13.624528289988623"><ele>139.6</ele><time>2026-04-12T13:31:30Z</time></trkpt><trkpt lat="45.8169244110574" lon="13.624404041603151"><ele>147.8</ele><time>2026-04-12T13:31:31Z</time></trkpt><trkpt lat="45.81696760115311" lon="13.624286933014762"><ele>156.0</ele><time>2026-04-12T13:31:32Z</time></trkpt><trkpt lat="45.81701676162665" lon="13.624174589209685"><ele>156.0</ele><time>2026-04-12T13:31:33Z</time></trkpt><trkpt lat="45.81705600909221" lon="13.624055427946683"><ele>156.0</ele><time>2026-04-12T13:31:34Z</time></trkpt><trkpt lat="45.817085086023305" lon="13.623933779683018"><ele>156.0</ele><time>2026-04-12T13:31:35Z</time></trkpt><trkpt lat="45.81713278492106" lon="13.623829680168896"><ele>156.0</ele><time>2026-04-12T13:31:36Z</time></trkpt><trkpt lat="45.817161374692695" lon="13.623705792088131"><ele>156.0</ele><time>2026-04-12T13:31:37Z</time></trkpt><trkpt lat="45.81719948584366" lon="13.623591851624267"><ele>156.0</ele><time>2026-04-12T13:31:38Z</time></trkpt><trkpt lat="45.81725643115737" lon="13.623474346408322"><ele>155.2</ele><time>2026-04-12T13:31:39Z</time></trkpt><trkpt lat="45.81729495725801" lon="13.623351587559752"><ele>154.39999999999998</ele><time>2026-04-12T13:31:40Z</time></trkpt><trkpt lat="45.81733187194864" lon="13.623236799461377"><ele>153.6</ele><time>2026-04-12T13:31:41Z</time></trkpt><trkpt lat="45.81737087433176" lon="13.62311604107124"><ele>152.79999999999998</ele><time>2026-04-12T13:31:42Z</time></trkpt><trkpt lat="45.81740948826445" lon="13.62299324769367"><ele>152.0</ele><time>2026-04-12T13:31:43Z</time></trkpt><trkpt lat="45.81745636931671" lon="13.622881660261896"><ele>150.2</ele><time>2026-04-12T13:31:44Z</time></trkpt><trkpt lat="45.817496284875574" lon="13.622762101572132"><ele>148.39999999999998</ele><time>2026-04-12T13:31:45Z</time></trkpt><trkpt lat="45.81754786795751" lon="13.622639918113181"><ele>146.60000000000002</ele><time>2026-04-12T13:31:46Z</time></trkpt><trkpt lat="45.81759389380958" lon="13.622532612769097"><ele>144.8</ele><time>2026-04-12T13:31:47Z</time></trkpt><trkpt lat="45.817639736655934" lon="13.622411432457143"><ele>143.0</ele><time>2026-04-12T13:31:48Z</time></trkpt><trkpt lat="45.8176720172949" lon="13.622282339615417"><ele>150.60000000000002</ele><time>2026-04-12T13:31:49Z</time></trkpt><trkpt lat="45.8177138828727" lon="13.622145324978376"><ele>158.20000000000002</ele><time>2026-04-12T13:31:50Z</time></trkpt><trkpt lat="45.817765531716695" lon="13.622024255349066"><ele>165.8</ele><time>2026-04-12T13:31:51Z</time></trkpt><trkpt lat="45.81779732823803" lon="13.621929797862695"><ele>173.4</ele><time>2026-04-12T13:31:52Z</time></trkpt><trkpt lat="45.81786791293581" lon="13.621918769733885"><ele>181.0</ele><time>2026-04-12T13:31:55Z</time></trkpt><trkpt lat="45.81784575920378" lon="13.622085588365083"><ele>183.20000000000002</ele><time>2026-04-12T13:31:57Z</time></trkpt><trkpt lat="45.817848674718384" lon="13.622177392708437"><ele>185.4</ele><time>2026-04-12T13:31:58Z</time></trkpt><trkpt lat="45.81783592915496" lon="13.622344154990346"><ele>187.6</ele><time>2026-04-12T13:32:00Z</time></trkpt><trkpt lat="45.81781431991609" lon="13.622434552945084"><ele>189.8</ele><time>2026-04-12T13:32:01Z</time></trkpt><trkpt lat="45.817805189762026" lon="13.622615963414106"><ele>192.0</ele><time>2026-04-12T13:32:03Z</time></trkpt><trkpt lat="45.81782915067017" lon="13.622719837913204"><ele>192.0</ele><time>2026-04-12T13:32:05Z</time></trkpt><trkpt lat="45.817918238791194" lon="13.622705362814614"><ele>192.0</ele><time>2026-04-12T13:32:07Z</time></trkpt><trkpt lat="45.817941601198854" lon="13.622613160071127"><ele>192.0</ele><time>2026-04-12T13:32:08Z</time></trkpt><trkpt lat="45.81797415070044" lon="13.622441214760618"><ele>192.0</ele><time>2026-04-12T13:32:10Z</time></trkpt><trkpt lat="45.81800093749628" lon="13.622351764383852"><ele>192.0</ele><time>2026-04-12T13:32:11Z</time></trkpt><trkpt lat="45.8180414669985" lon="13.62225510662112"><ele>192.0</ele><time>2026-04-12T13:32:12Z</time></trkpt><trkpt lat="45.81808273668828" lon="13.62216971565661"><ele>192.0</ele><time>2026-04-12T13:32:13Z</time></trkpt><trkpt lat="45.81812695662479" lon="13.622086147709457"><ele>192.0</ele><time>2026-04-12T13:32:14Z</time></trkpt><trkpt lat="45.81816969945826" lon="13.62199163148227"><ele>192.0</ele><time>2026-04-12T13:32:15Z</time></trkpt><trkpt lat="45.818214386308185" lon="13.621877866175067"><ele>192.0</ele><time>2026-04-12T13:32:16Z</time></trkpt><trkpt lat="45.81826852548238" lon="13.62178964978497"><ele>192.0</ele><time>2026-04-12T13:32:17Z</time></trkpt><trkpt lat="45.81832086980499" lon="13.621701159765033"><ele>192.0</ele><time>2026-04-12T13:32:18Z</time></trkpt><trkpt lat="45.81837438157914" lon="13.62161891426937"><ele>190.42857142857142</ele><time>2026-04-12T13:32:19Z</time></trkpt><trkpt lat="45.81842683058978" lon="13.621540406586815"><ele>188.85714285714286</ele><time>2026-04-12T13:32:20Z</time></trkpt><trkpt lat="45.81846661879787" lon="13.62145623590071"><ele>187.28571428571428</ele><time>2026-04-12T13:32:21Z</time></trkpt><trkpt lat="45.81850807346919" lon="13.621367643419944"><ele>185.71428571428572</ele><time>2026-04-12T13:32:22Z</time></trkpt><trkpt lat="45.81855703550685" lon="13.621293357252314"><ele>184.14285714285714</ele><time>2026-04-12T13:32:23Z</time></trkpt><trkpt lat="45.81861116490567" lon="13.621216164600211"><ele>182.57142857142856</ele><time>2026-04-12T13:32:24Z</time></trkpt><trkpt lat="45.818670182207434" lon="13.621150258948694"><ele>181.0</ele><time>2026-04-12T13:32:25Z</time></trkpt><trkpt lat="45.818735442834374" lon="13.621092549162087"><ele>184.57142857142856</ele><time>2026-04-12T13:32:26Z</time></trkpt><trkpt lat="45.81879976051124" lon="13.621040607992647"><ele>188.14285714285714</ele><time>2026-04-12T13:32:27Z</time></trkpt><trkpt lat="45.81886970434953" lon="13.621008229117223"><ele>191.71428571428572</ele><time>2026-04-12T13:32:28Z</time></trkpt><trkpt lat="45.81893321601488" lon="13.620953026586346"><ele>195.28571428571428</ele><time>2026-04-12T13:32:29Z</time></trkpt><trkpt lat="45.81900222752074" lon="13.620914211389294"><ele>198.85714285714286</ele><time>2026-04-12T13:32:30Z</time></trkpt><trkpt lat="45.81905629784421" lon="13.620853045634282"><ele>202.42857142857142</ele><time>2026-04-12T13:32:31Z</time></trkpt><trkpt lat="45.819096147518344" lon="13.620773859456312"><ele>206.0</ele><time>2026-04-12T13:32:32Z</time></trkpt><trkpt lat="45.81906918625897" lon="13.620620961554954"><ele>206.0</ele><time>2026-04-12T13:32:33Z</time></trkpt><trkpt lat="45.81907259739217" lon="13.620462875434315"><ele>206.0</ele><time>2026-04-12T13:32:34Z</time></trkpt><trkpt lat="45.819079323276426" lon="13.62031594060594"><ele>206.0</ele><time>2026-04-12T13:32:35Z</time></trkpt><trkpt lat="45.8190900187417" lon="13.62017215687139"><ele>206.0</ele><time>2026-04-12T13:32:36Z</time></trkpt><trkpt lat="45.81910192188098" lon="13.62003014595197"><ele>206.0</ele><time>2026-04-12T13:32:37Z</time></trkpt><trkpt lat="45.81910606452841" lon="13.619890069710003"><ele>206.0</ele><time>2026-04-12T13:32:38Z</time></trkpt><trkpt lat="45.81912176790192" lon="13.619754487567258"><ele>206.0</ele><time>2026-04-12T13:32:39Z</time></trkpt><trkpt lat="45.81913265908106" lon="13.61962483995831"><ele>206.0</ele><time>2026-04-12T13:32:40Z</time></trkpt><trkpt lat="45.81915052061213" lon="13.619495896959986"><ele>206.0</ele><time>2026-04-12T13:32:41Z</time></trkpt><trkpt lat="45.81918195950318" lon="13.619374250258046"><ele>206.0</ele><time>2026-04-12T13:32:42Z</time></trkpt><trkpt lat="45.81922459481605" lon="13.619256299282409"><ele>206.60000000000002</ele><time>2026-04-12T13:32:43Z</time></trkpt><trkpt lat="45.819266310115445" lon="13.619130459263753"><ele>207.2</ele><time>2026-04-12T13:32:44Z</time></trkpt><trkpt lat="45.81930346831623" lon="13.6190037616333"><ele>207.8</ele><time>2026-04-12T13:32:45Z</time></trkpt><trkpt lat="45.81933354211551" lon="13.6188678884606"><ele>208.39999999999998</ele><time>2026-04-12T13:32:46Z</time></trkpt><trkpt lat="45.81936741314069" lon="13.61872282810535"><ele>209.0</ele><time>2026-04-12T13:32:47Z</time></trkpt><trkpt lat="45.81939258544508" lon="13.618583874011048"><ele>212.00000000000003</ele><time>2026-04-12T13:32:48Z</time></trkpt><trkpt lat="45.81941259828013" lon="13.618446993391304"><ele>215.0</ele><time>2026-04-12T13:32:49Z</time></trkpt><trkpt lat="45.819424676597926" lon="13.618320954423668"><ele>218.0</ele><time>2026-04-12T13:32:50Z</time></trkpt><trkpt lat="45.819445921545416" lon="13.618204905856482"><ele>221.0</ele><time>2026-04-12T13:32:51Z</time></trkpt><trkpt lat="45.81945758611194" lon="13.618087366728568"><ele>224.00000000000003</ele><time>2026-04-12T13:32:52Z</time></trkpt><trkpt lat="45.819473660962295" lon="13.617973845766635"><ele>227.0</ele><time>2026-04-12T13:32:52.999Z</time></trkpt><trkpt lat="45.819490228559985" lon="13.617856294170934"><ele>226.50000000000003</ele><time>2026-04-12T13:32:53.999Z</time></trkpt><trkpt lat="45.81950958565341" lon="13.61774064494231"><ele>226.0</ele><time>2026-04-12T13:32:54.999Z</time></trkpt><trkpt lat="45.81953335960852" lon="13.617621177507017"><ele>225.5</ele><time>2026-04-12T13:32:55.999Z</time></trkpt><trkpt lat="45.81955470525378" lon="13.617503142541567"><ele>225.0</ele><time>2026-04-12T13:32:56.999Z</time></trkpt><trkpt lat="45.81957687727236" lon="13.617386784319953"><ele>224.50000000000003</ele><time>2026-04-12T13:32:57.999Z</time></trkpt><trkpt lat="45.819598314494556" lon="13.617266778494352"><ele>224.0</ele><time>2026-04-12T13:32:58.999Z</time></trkpt><trkpt lat="45.81961872150222" lon="13.617147270852142"><ele>224.00000000000003</ele><time>2026-04-12T13:32:59.999Z</time></trkpt><trkpt lat="45.819637311059914" lon="13.617042321237337"><ele>224.0</ele><time>2026-04-12T13:33:00.999Z</time></trkpt><trkpt lat="45.819653812971914" lon="13.616939964870237"><ele>224.0</ele><time>2026-04-12T13:33:01.999Z</time></trkpt><trkpt lat="45.81967176482597" lon="13.616834933493656"><ele>224.0</ele><time>2026-04-12T13:33:02.999Z</time></trkpt><trkpt lat="45.81969953072468" lon="13.616727404315982"><ele>224.00000000000003</ele><time>2026-04-12T13:33:03.999Z</time></trkpt><trkpt lat="45.81974298367697" lon="13.616625266296426"><ele>224.0</ele><time>2026-04-12T13:33:04.999Z</time></trkpt><trkpt lat="45.819800972775155" lon="13.616548934594187"><ele>224.00000000000003</ele><time>2026-04-12T13:33:05.999Z</time></trkpt><trkpt lat="45.819870450615994" lon="13.616523656628301"><ele>224.0</ele><time>2026-04-12T13:33:06.999Z</time></trkpt><trkpt lat="45.81993946524117" lon="13.616563853821908"><ele>224.0</ele><time>2026-04-12T13:33:07.999Z</time></trkpt><trkpt lat="45.82004747103543" lon="13.61664778014974"><ele>224.0</ele><time>2026-04-12T13:33:09.999Z</time></trkpt><trkpt lat="45.82010730323224" lon="13.616707771223169"><ele>224.00000000000003</ele><time>2026-04-12T13:33:10.999Z</time></trkpt><trkpt lat="45.820168427254906" lon="13.616771180920733"><ele>224.0</ele><time>2026-04-12T13:33:11.999Z</time></trkpt><trkpt lat="45.820227449253984" lon="13.616835898630558"><ele>224.79999999999998</ele><time>2026-04-12T13:33:12.999Z</time></trkpt><trkpt lat="45.8202889314706" lon="13.616885030728422"><ele>225.59999999999997</ele><time>2026-04-12T13:33:13.999Z</time></trkpt><trkpt lat="45.82035412196214" lon="13.616929699402553"><ele>226.4</ele><time>2026-04-12T13:33:14.999Z</time></trkpt><trkpt lat="45.82045939206309" lon="13.616987945201778"><ele>227.2</ele><time>2026-04-12T13:33:16.999Z</time></trkpt><trkpt lat="45.82055971740251" lon="13.617027536805056"><ele>228.0</ele><time>2026-04-12T13:33:18.999Z</time></trkpt><trkpt lat="45.820672794343785" lon="13.61706976801104"><ele>228.2</ele><time>2026-04-12T13:33:20.999Z</time></trkpt><trkpt lat="45.820795714638805" lon="13.617104096856467"><ele>228.4</ele><time>2026-04-12T13:33:22.999Z</time></trkpt><trkpt lat="45.8209233614163" lon="13.617135389261644"><ele>228.59999999999997</ele><time>2026-04-12T13:33:24.999Z</time></trkpt><trkpt lat="45.82099081776301" lon="13.617156303704181"><ele>228.79999999999998</ele><time>2026-04-12T13:33:25.999Z</time></trkpt><trkpt lat="45.82106079725428" lon="13.617187395938505"><ele>229.0</ele><time>2026-04-12T13:33:26.999Z</time></trkpt><trkpt lat="45.82112418009018" lon="13.617227638021498"><ele>229.0</ele><time>2026-04-12T13:33:27.999Z</time></trkpt><trkpt lat="45.82119081317233" lon="13.61726227668296"><ele>229.0</ele><time>2026-04-12T13:33:28.999Z</time></trkpt><trkpt lat="45.82125860110335" lon="13.617289499073829"><ele>229.0</ele><time>2026-04-12T13:33:29.999Z</time></trkpt><trkpt lat="45.82132952855694" lon="13.617296649495014"><ele>229.0</ele><time>2026-04-12T13:33:31Z</time></trkpt><trkpt lat="45.821400229019495" lon="13.617303036712167"><ele>229.0</ele><time>2026-04-12T13:33:32Z</time></trkpt><trkpt lat="45.821471544095964" lon="13.61730483599228"><ele>229.0</ele><time>2026-04-12T13:33:33Z</time></trkpt><trkpt lat="45.8215447841471" lon="13.617294172421067"><ele>229.0</ele><time>2026-04-12T13:33:34Z</time></trkpt><trkpt lat="45.821619826385756" lon="13.617277750185846"><ele>228.99999999999997</ele><time>2026-04-12T13:33:35Z</time></trkpt><trkpt lat="45.82169783286114" lon="13.617262112603115"><ele>229.0</ele><time>2026-04-12T13:33:36Z</time></trkpt><trkpt lat="45.82177490415527" lon="13.617244205076389"><ele>229.0</ele><time>2026-04-12T13:33:37Z</time></trkpt><trkpt lat="45.82185149475869" lon="13.617222648919702"><ele>229.0</ele><time>2026-04-12T13:33:38Z</time></trkpt><trkpt lat="45.82192911106345" lon="13.617220346948821"><ele>228.99999999999997</ele><time>2026-04-12T13:33:39Z</time></trkpt><trkpt lat="45.82200558821919" lon="13.61719603730625"><ele>229.0</ele><time>2026-04-12T13:33:40Z</time></trkpt><trkpt lat="45.82207907142386" lon="13.617140483124716"><ele>229.16666666666666</ele><time>2026-04-12T13:33:41Z</time></trkpt><trkpt lat="45.822159036507664" lon="13.617112723980025"><ele>229.33333333333331</ele><time>2026-04-12T13:33:42Z</time></trkpt><trkpt lat="45.822236919087395" lon="13.617088618079807"><ele>229.5</ele><time>2026-04-12T13:33:43Z</time></trkpt><trkpt lat="45.82231720209137" lon="13.617072333938054"><ele>229.66666666666669</ele><time>2026-04-12T13:33:44Z</time></trkpt><trkpt lat="45.822396848853735" lon="13.617085281434456"><ele>229.83333333333334</ele><time>2026-04-12T13:33:45Z</time></trkpt><trkpt lat="45.822477419596886" lon="13.617121861474002"><ele>230.0</ele><time>2026-04-12T13:33:46Z</time></trkpt><trkpt lat="45.82255176068773" lon="13.617174708607743"><ele>230.00000000000003</ele><time>2026-04-12T13:33:47Z</time></trkpt><trkpt lat="45.822620144646656" lon="13.617234674889657"><ele>230.0</ele><time>2026-04-12T13:33:48Z</time></trkpt><trkpt lat="45.822693003064174" lon="13.617297322394052"><ele>230.0</ele><time>2026-04-12T13:33:49Z</time></trkpt><trkpt lat="45.82277545448614" lon="13.617355575105265"><ele>230.0</ele><time>2026-04-12T13:33:50Z</time></trkpt><trkpt lat="45.82284712228314" lon="13.617405958493745"><ele>230.00000000000003</ele><time>2026-04-12T13:33:51Z</time></trkpt><trkpt lat="45.8229252255489" lon="13.617444435754475"><ele>230.0</ele><time>2026-04-12T13:33:52Z</time></trkpt><trkpt lat="45.823008070824365" lon="13.61748366744859"><ele>230.0</ele><time>2026-04-12T13:33:53Z</time></trkpt><trkpt lat="45.82308983599814" lon="13.617533702667489"><ele>230.0</ele><time>2026-04-12T13:33:54Z</time></trkpt><trkpt lat="45.823177669194656" lon="13.617578844131586"><ele>230.0</ele><time>2026-04-12T13:33:55Z</time></trkpt><trkpt lat="45.82326927569664" lon="13.617627279760683"><ele>230.0</ele><time>2026-04-12T13:33:56Z</time></trkpt><trkpt lat="45.82336338335472" lon="13.617672729795641"><ele>230.0</ele><time>2026-04-12T13:33:57Z</time></trkpt><trkpt lat="45.823453839071455" lon="13.617716075052831"><ele>230.00000000000003</ele><time>2026-04-12T13:33:58Z</time></trkpt><trkpt lat="45.82354420966291" lon="13.617759518381243"><ele>230.0</ele><time>2026-04-12T13:33:59Z</time></trkpt><trkpt lat="45.82362648807145" lon="13.617803025367786"><ele>230.0</ele><time>2026-04-12T13:34:00Z</time></trkpt><trkpt lat="45.82370431936666" lon="13.617848261747874"><ele>230.0</ele><time>2026-04-12T13:34:01Z</time></trkpt><trkpt lat="45.82378128485301" lon="13.617891880879096"><ele>230.00000000000003</ele><time>2026-04-12T13:34:02Z</time></trkpt><trkpt lat="45.82385052043956" lon="13.617937842728681"><ele>230.0</ele><time>2026-04-12T13:34:03Z</time></trkpt><trkpt lat="45.82391286486265" lon="13.61799230278959"><ele>229.4</ele><time>2026-04-12T13:34:04Z</time></trkpt><trkpt lat="45.82397418044496" lon="13.618040414147066"><ele>228.8</ele><time>2026-04-12T13:34:05Z</time></trkpt><trkpt lat="45.824035979835685" lon="13.618064233123164"><ele>228.2</ele><time>2026-04-12T13:34:06Z</time></trkpt><trkpt lat="45.824150540860316" lon="13.618035585097148"><ele>227.6</ele><time>2026-04-12T13:34:08Z</time></trkpt><trkpt lat="45.82425165917567" lon="13.617938285518667"><ele>227.0</ele><time>2026-04-12T13:34:10Z</time></trkpt><trkpt lat="45.82436563277618" lon="13.61783159923718"><ele>226.0</ele><time>2026-04-12T13:34:12Z</time></trkpt><trkpt lat="45.8244445381341" lon="13.617771379599667"><ele>225.0</ele><time>2026-04-12T13:34:13Z</time></trkpt><trkpt lat="45.8245428836682" lon="13.61776402453576"><ele>224.0</ele><time>2026-04-12T13:34:14Z</time></trkpt><trkpt lat="45.82463539406833" lon="13.61774938418027"><ele>223.0</ele><time>2026-04-12T13:34:15Z</time></trkpt><trkpt lat="45.82472891537926" lon="13.617736843524147"><ele>222.0</ele><time>2026-04-12T13:34:16Z</time></trkpt><trkpt lat="45.82482592911462" lon="13.61770058056911"><ele>222.0</ele><time>2026-04-12T13:34:17Z</time></trkpt><trkpt lat="45.82492791032537" lon="13.617702026901153"><ele>222.0</ele><time>2026-04-12T13:34:18Z</time></trkpt><trkpt lat="45.82502815192613" lon="13.617688855460633"><ele>222.0</ele><time>2026-04-12T13:34:19Z</time></trkpt><trkpt lat="45.825131002736434" lon="13.617665536384456"><ele>222.0</ele><time>2026-04-12T13:34:20Z</time></trkpt><trkpt lat="45.82523111185944" lon="13.617635372443777"><ele>222.0</ele><time>2026-04-12T13:34:21Z</time></trkpt><trkpt lat="45.82532582699819" lon="13.617594486626016"><ele>222.0</ele><time>2026-04-12T13:34:22Z</time></trkpt><trkpt lat="45.825413842817326" lon="13.617547587074652"><ele>222.0</ele><time>2026-04-12T13:34:23Z</time></trkpt><trkpt lat="45.825499494428804" lon="13.61749565104889"><ele>222.0</ele><time>2026-04-12T13:34:24Z</time></trkpt><trkpt lat="45.82558434078145" lon="13.617437155256658"><ele>222.0</ele><time>2026-04-12T13:34:25Z</time></trkpt><trkpt lat="45.825680735425465" lon="13.61739922964012"><ele>222.0</ele><time>2026-04-12T13:34:26Z</time></trkpt><trkpt lat="45.82577325467118" lon="13.617344795675445"><ele>222.0</ele><time>2026-04-12T13:34:27Z</time></trkpt><trkpt lat="45.825865600378606" lon="13.617292054110509"><ele>222.0</ele><time>2026-04-12T13:34:28Z</time></trkpt><trkpt lat="45.825953761336564" lon="13.617226933085657"><ele>222.0</ele><time>2026-04-12T13:34:29Z</time></trkpt><trkpt lat="45.826041942448605" lon="13.61717606916275"><ele>222.0</ele><time>2026-04-12T13:34:30Z</time></trkpt><trkpt lat="45.82613140133675" lon="13.617139866646466"><ele>222.0</ele><time>2026-04-12T13:34:31Z</time></trkpt><trkpt lat="45.82621818259134" lon="13.617111922197687"><ele>221.6</ele><time>2026-04-12T13:34:32Z</time></trkpt><trkpt lat="45.82631147676975" lon="13.617128449451833"><ele>221.2</ele><time>2026-04-12T13:34:33Z</time></trkpt><trkpt lat="45.82640635751116" lon="13.617122240331927"><ele>220.8</ele><time>2026-04-12T13:34:34Z</time></trkpt><trkpt lat="45.82650871413408" lon="13.617166653329416"><ele>220.4</ele><time>2026-04-12T13:34:35Z</time></trkpt><trkpt lat="45.82662356668907" lon="13.617174791525573"><ele>220.0</ele><time>2026-04-12T13:34:36Z</time></trkpt><trkpt lat="45.82674615759932" lon="13.617136617548564"><ele>219.5</ele><time>2026-04-12T13:34:37Z</time></trkpt><trkpt lat="45.826871014955906" lon="13.6170923157629"><ele>219.0</ele><time>2026-04-12T13:34:38Z</time></trkpt><trkpt lat="45.826990683848095" lon="13.617037386897568"><ele>218.5</ele><time>2026-04-12T13:34:39Z</time></trkpt><trkpt lat="45.82710540495437" lon="13.61700079800551"><ele>218.0</ele><time>2026-04-12T13:34:40Z</time></trkpt><trkpt lat="45.82721736572331" lon="13.616990034769122"><ele>218.0</ele><time>2026-04-12T13:34:41Z</time></trkpt><trkpt lat="45.827325163321945" lon="13.617043035354229"><ele>218.0</ele><time>2026-04-12T13:34:42Z</time></trkpt><trkpt lat="45.82742638865076" lon="13.61708700428499"><ele>218.0</ele><time>2026-04-12T13:34:43Z</time></trkpt><trkpt lat="45.82752348346413" lon="13.617139264135519"><ele>218.0</ele><time>2026-04-12T13:34:44Z</time></trkpt><trkpt lat="45.82762603335798" lon="13.617171311609075"><ele>218.0</ele><time>2026-04-12T13:34:45Z</time></trkpt><trkpt lat="45.82774577632545" lon="13.617192259401612"><ele>217.5</ele><time>2026-04-12T13:34:46Z</time></trkpt><trkpt lat="45.8278765795139" lon="13.617134013998346"><ele>217.0</ele><time>2026-04-12T13:34:47Z</time></trkpt><trkpt lat="45.82800171249109" lon="13.617064235109117"><ele>216.5</ele><time>2026-04-12T13:34:48Z</time></trkpt><trkpt lat="45.828125945231015" lon="13.616985275485614"><ele>216.0</ele><time>2026-04-12T13:34:49Z</time></trkpt><trkpt lat="45.82826109750996" lon="13.6169363846734"><ele>216.0</ele><time>2026-04-12T13:34:50Z</time></trkpt><trkpt lat="45.82839433915829" lon="13.616879543122064"><ele>216.0</ele><time>2026-04-12T13:34:51Z</time></trkpt><trkpt lat="45.82851644096261" lon="13.616820482621526"><ele>216.0</ele><time>2026-04-12T13:34:52Z</time></trkpt><trkpt lat="45.82862806367627" lon="13.616756005758036"><ele>216.0</ele><time>2026-04-12T13:34:53Z</time></trkpt><trkpt lat="45.82873394580307" lon="13.616700570918159"><ele>215.4</ele><time>2026-04-12T13:34:54Z</time></trkpt><trkpt lat="45.828838864086684" lon="13.61668034163869"><ele>214.8</ele><time>2026-04-12T13:34:55Z</time></trkpt><trkpt lat="45.82893944308197" lon="13.616704709662121"><ele>214.20000000000002</ele><time>2026-04-12T13:34:56Z</time></trkpt><trkpt lat="45.82903047897135" lon="13.616779183515005"><ele>213.60000000000002</ele><time>2026-04-12T13:34:57Z</time></trkpt><trkpt lat="45.8291043322348" lon="13.616901570455036"><ele>213.0</ele><time>2026-04-12T13:34:58Z</time></trkpt><trkpt lat="45.82916858004395" lon="13.617045306459145"><ele>213.0</ele><time>2026-04-12T13:34:59Z</time></trkpt><trkpt lat="45.829250258388846" lon="13.617174903144475"><ele>213.0</ele><time>2026-04-12T13:35:00Z</time></trkpt><trkpt lat="45.829357959895184" lon="13.617271750216124"><ele>213.0</ele><time>2026-04-12T13:35:01Z</time></trkpt><trkpt lat="45.82948323518434" lon="13.617336839972252"><ele>213.0</ele><time>2026-04-12T13:35:02Z</time></trkpt><trkpt lat="45.8296150523575" lon="13.617378440227949"><ele>214.25</ele><time>2026-04-12T13:35:02.999Z</time></trkpt><trkpt lat="45.82974028525394" lon="13.617415286621789"><ele>215.5</ele><time>2026-04-12T13:35:03.999Z</time></trkpt><trkpt lat="45.829866055766246" lon="13.617444104147028"><ele>216.75</ele><time>2026-04-12T13:35:04.999Z</time></trkpt><trkpt lat="45.829990293581766" lon="13.61746833524291"><ele>218.0</ele><time>2026-04-12T13:35:05.999Z</time></trkpt><trkpt lat="45.83010633851733" lon="13.617491116006216"><ele>218.0</ele><time>2026-04-12T13:35:06.999Z</time></trkpt><trkpt lat="45.83021473375967" lon="13.617515002901431"><ele>218.0</ele><time>2026-04-12T13:35:07.999Z</time></trkpt><trkpt lat="45.83032971837078" lon="13.617561140215871"><ele>218.0</ele><time>2026-04-12T13:35:08.999Z</time></trkpt><trkpt lat="45.830444144238506" lon="13.617637433831277"><ele>218.0</ele><time>2026-04-12T13:35:09.999Z</time></trkpt><trkpt lat="45.83056094195518" lon="13.617713682212987"><ele>218.0</ele><time>2026-04-12T13:35:10.999Z</time></trkpt><trkpt lat="45.83067721885363" lon="13.617779315437092"><ele>218.0</ele><time>2026-04-12T13:35:11.999Z</time></trkpt><trkpt lat="45.830782834182386" lon="13.617847492080386"><ele>218.0</ele><time>2026-04-12T13:35:12.999Z</time></trkpt><trkpt lat="45.830881781321736" lon="13.6179081959621"><ele>218.0</ele><time>2026-04-12T13:35:13.999Z</time></trkpt><trkpt lat="45.83097969442739" lon="13.617962241837281"><ele>218.0</ele><time>2026-04-12T13:35:14.999Z</time></trkpt><trkpt lat="45.83108097907653" lon="13.61800986830667"><ele>218.0</ele><time>2026-04-12T13:35:15.999Z</time></trkpt><trkpt lat="45.83118512063358" lon="13.618050297940371"><ele>218.0</ele><time>2026-04-12T13:35:16.999Z</time></trkpt><trkpt lat="45.83129131555947" lon="13.618058195186528"><ele>218.0</ele><time>2026-04-12T13:35:17.999Z</time></trkpt><trkpt lat="45.83139562034896" lon="13.618033794163187"><ele>218.0</ele><time>2026-04-12T13:35:18.999Z</time></trkpt><trkpt lat="45.83149719543811" lon="13.618021251939291"><ele>218.0</ele><time>2026-04-12T13:35:19.999Z</time></trkpt><trkpt lat="45.83159691182302" lon="13.617981633762957"><ele>218.0</ele><time>2026-04-12T13:35:20.999Z</time></trkpt><trkpt lat="45.831691912719805" lon="13.61791680479478"><ele>218.0</ele><time>2026-04-12T13:35:21.999Z</time></trkpt><trkpt lat="45.83179415606513" lon="13.617869555091952"><ele>218.0</ele><time>2026-04-12T13:35:22.999Z</time></trkpt><trkpt lat="45.831898746189026" lon="13.617820114031014"><ele>218.0</ele><time>2026-04-12T13:35:23.999Z</time></trkpt><trkpt lat="45.8320013036487" lon="13.617773970016811"><ele>219.0</ele><time>2026-04-12T13:35:24.999Z</time></trkpt><trkpt lat="45.832103064033085" lon="13.617728071274689"><ele>220.0</ele><time>2026-04-12T13:35:25.999Z</time></trkpt><trkpt lat="45.83220211223796" lon="13.617687200093949"><ele>221.0</ele><time>2026-04-12T13:35:26.999Z</time></trkpt><trkpt lat="45.832291450348336" lon="13.617655825989031"><ele>222.0</ele><time>2026-04-12T13:35:27.999Z</time></trkpt><trkpt lat="45.832379034279555" lon="13.617636413892397"><ele>223.0</ele><time>2026-04-12T13:35:28.999Z</time></trkpt><trkpt lat="45.83245957713167" lon="13.617633864369676"><ele>222.99999999999997</ele><time>2026-04-12T13:35:29.999Z</time></trkpt><trkpt lat="45.8325382486264" lon="13.617645316072919"><ele>223.0</ele><time>2026-04-12T13:35:30.999Z</time></trkpt><trkpt lat="45.83261649931676" lon="13.617664990407832"><ele>223.0</ele><time>2026-04-12T13:35:31.999Z</time></trkpt><trkpt lat="45.83269834408987" lon="13.617693734122868"><ele>223.0</ele><time>2026-04-12T13:35:32.999Z</time></trkpt><trkpt lat="45.8327791213991" lon="13.617721697406328"><ele>222.99999999999997</ele><time>2026-04-12T13:35:33.999Z</time></trkpt><trkpt lat="45.83286486313465" lon="13.61775337147054"><ele>223.0</ele><time>2026-04-12T13:35:34.999Z</time></trkpt><trkpt lat="45.83295198022683" lon="13.617784362871118"><ele>223.2</ele><time>2026-04-12T13:35:35.999Z</time></trkpt><trkpt lat="45.833043953552846" lon="13.617813539548676"><ele>223.4</ele><time>2026-04-12T13:35:37Z</time></trkpt><trkpt lat="45.8331304217209" lon="13.617812951082911"><ele>223.59999999999997</ele><time>2026-04-12T13:35:38Z</time></trkpt><trkpt lat="45.8332191481074" lon="13.617787959014601"><ele>223.79999999999998</ele><time>2026-04-12T13:35:39Z</time></trkpt><trkpt lat="45.8333104040469" lon="13.617754843980226"><ele>224.0</ele><time>2026-04-12T13:35:40Z</time></trkpt><trkpt lat="45.833412229180034" lon="13.617770331505616"><ele>224.0</ele><time>2026-04-12T13:35:41Z</time></trkpt><trkpt lat="45.8335156147335" lon="13.617791960335126"><ele>223.99999999999997</ele><time>2026-04-12T13:35:42Z</time></trkpt><trkpt lat="45.833626214315686" lon="13.617807140938242"><ele>223.99999999999997</ele><time>2026-04-12T13:35:43Z</time></trkpt><trkpt lat="45.83372891867334" lon="13.617857053172747"><ele>224.0</ele><time>2026-04-12T13:35:44Z</time></trkpt><trkpt lat="45.83383521923685" lon="13.617911355757512"><ele>224.0</ele><time>2026-04-12T13:35:45Z</time></trkpt><trkpt lat="45.833942525294596" lon="13.617969721247315"><ele>224.0</ele><time>2026-04-12T13:35:46Z</time></trkpt><trkpt lat="45.83405217430974" lon="13.618026323030573"><ele>224.0</ele><time>2026-04-12T13:35:47Z</time></trkpt><trkpt lat="45.83416341513009" lon="13.618067746971816"><ele>224.0</ele><time>2026-04-12T13:35:48Z</time></trkpt><trkpt lat="45.83428048543498" lon="13.618076074991507"><ele>224.0</ele><time>2026-04-12T13:35:49Z</time></trkpt><trkpt lat="45.83439383338359" lon="13.618038830011015"><ele>224.25</ele><time>2026-04-12T13:35:50Z</time></trkpt><trkpt lat="45.834502354907116" lon="13.617957868696067"><ele>224.5</ele><time>2026-04-12T13:35:51Z</time></trkpt><trkpt lat="45.83459812793876" lon="13.617850767562315"><ele>224.75</ele><time>2026-04-12T13:35:52Z</time></trkpt><trkpt lat="45.83469279724368" lon="13.617741537404848"><ele>225.0</ele><time>2026-04-12T13:35:53Z</time></trkpt><trkpt lat="45.834801367024276" lon="13.617681914349353"><ele>225.4</ele><time>2026-04-12T13:35:54Z</time></trkpt><trkpt lat="45.834902017771306" lon="13.617617794872475"><ele>225.8</ele><time>2026-04-12T13:35:55Z</time></trkpt><trkpt lat="45.834989613369494" lon="13.617538326510472"><ele>226.2</ele><time>2026-04-12T13:35:56Z</time></trkpt><trkpt lat="45.835088142366146" lon="13.617487733793755"><ele>226.6</ele><time>2026-04-12T13:35:57Z</time></trkpt><trkpt lat="45.83517858779795" lon="13.617421296796678"><ele>227.0</ele><time>2026-04-12T13:35:58Z</time></trkpt><trkpt lat="45.83526574543475" lon="13.617352642609859"><ele>226.2</ele><time>2026-04-12T13:35:59Z</time></trkpt><trkpt lat="45.835357047359736" lon="13.617302932255308"><ele>225.39999999999998</ele><time>2026-04-12T13:36:00Z</time></trkpt><trkpt lat="45.83543842308199" lon="13.61722651502227"><ele>224.60000000000002</ele><time>2026-04-12T13:36:01Z</time></trkpt><trkpt lat="45.83551206814382" lon="13.617123764499967"><ele>223.8</ele><time>2026-04-12T13:36:02Z</time></trkpt><trkpt lat="45.8355810769777" lon="13.61700623921274"><ele>223.0</ele><time>2026-04-12T13:36:03Z</time></trkpt><trkpt lat="45.83562950446978" lon="13.616864841030003"><ele>223.0</ele><time>2026-04-12T13:36:04Z</time></trkpt><trkpt lat="45.83568758728725" lon="13.616742148975321"><ele>223.0</ele><time>2026-04-12T13:36:05Z</time></trkpt><trkpt lat="45.83576962201973" lon="13.616648846193415"><ele>223.0</ele><time>2026-04-12T13:36:06Z</time></trkpt><trkpt lat="45.835856286589554" lon="13.616555780069776"><ele>223.0</ele><time>2026-04-12T13:36:07Z</time></trkpt><trkpt lat="45.8359494441548" lon="13.616453281785168"><ele>223.0</ele><time>2026-04-12T13:36:08Z</time></trkpt><trkpt lat="45.836068959586754" lon="13.616394396139832"><ele>220.5</ele><time>2026-04-12T13:36:09Z</time></trkpt><trkpt lat="45.83619263879121" lon="13.616360096667895"><ele>218.0</ele><time>2026-04-12T13:36:10Z</time></trkpt><trkpt lat="45.836320103874215" lon="13.616327851267135"><ele>215.5</ele><time>2026-04-12T13:36:11Z</time></trkpt><trkpt lat="45.836448962171325" lon="13.616294669232218"><ele>213.0</ele><time>2026-04-12T13:36:12Z</time></trkpt><trkpt lat="45.83657988667059" lon="13.616255607444456"><ele>213.0</ele><time>2026-04-12T13:36:13Z</time></trkpt><trkpt lat="45.83670761388577" lon="13.616201064143581"><ele>213.0</ele><time>2026-04-12T13:36:14Z</time></trkpt><trkpt lat="45.83682749348521" lon="13.61613288347916"><ele>213.0</ele><time>2026-04-12T13:36:15Z</time></trkpt><trkpt lat="45.83694803066747" lon="13.616081139254144"><ele>213.0</ele><time>2026-04-12T13:36:16Z</time></trkpt><trkpt lat="45.83706189502639" lon="13.616016631775981"><ele>211.75</ele><time>2026-04-12T13:36:17Z</time></trkpt><trkpt lat="45.837167866639035" lon="13.615944135919605"><ele>210.5</ele><time>2026-04-12T13:36:18Z</time></trkpt><trkpt lat="45.837278768841564" lon="13.615911820174627"><ele>209.25</ele><time>2026-04-12T13:36:19Z</time></trkpt><trkpt lat="45.83739080583703" lon="13.615920291397858"><ele>208.0</ele><time>2026-04-12T13:36:20Z</time></trkpt><trkpt lat="45.83749926932247" lon="13.615957607593401"><ele>208.0</ele><time>2026-04-12T13:36:21Z</time></trkpt><trkpt lat="45.83761250826737" lon="13.61599832276336"><ele>208.0</ele><time>2026-04-12T13:36:22Z</time></trkpt><trkpt lat="45.83773507828255" lon="13.61602953622098"><ele>208.0</ele><time>2026-04-12T13:36:23Z</time></trkpt><trkpt lat="45.83786354090382" lon="13.616046122500356"><ele>208.0</ele><time>2026-04-12T13:36:24Z</time></trkpt><trkpt lat="45.83799702813537" lon="13.616050856078749"><ele>207.5</ele><time>2026-04-12T13:36:25Z</time></trkpt><trkpt lat="45.83813538452585" lon="13.616039957334669"><ele>207.0</ele><time>2026-04-12T13:36:26Z</time></trkpt><trkpt lat="45.83827322627052" lon="13.616013728089435"><ele>206.5</ele><time>2026-04-12T13:36:27Z</time></trkpt><trkpt lat="45.83841307167211" lon="13.615984996763459"><ele>206.0</ele><time>2026-04-12T13:36:28Z</time></trkpt><trkpt lat="45.838553732518406" lon="13.615952638897904"><ele>205.75</ele><time>2026-04-12T13:36:29Z</time></trkpt><trkpt lat="45.83869433713764" lon="13.615918166056188"><ele>205.5</ele><time>2026-04-12T13:36:30Z</time></trkpt><trkpt lat="45.83883249123345" lon="13.615888449098211"><ele>205.25</ele><time>2026-04-12T13:36:31Z</time></trkpt><trkpt lat="45.83896163417514" lon="13.615866711252412"><ele>205.0</ele><time>2026-04-12T13:36:32Z</time></trkpt><trkpt lat="45.83907997948581" lon="13.615849595827443"><ele>205.0</ele><time>2026-04-12T13:36:33Z</time></trkpt><trkpt lat="45.839188084733294" lon="13.615826891936832"><ele>205.0</ele><time>2026-04-12T13:36:34Z</time></trkpt><trkpt lat="45.839290024000924" lon="13.615800669363662"><ele>205.0</ele><time>2026-04-12T13:36:35Z</time></trkpt><trkpt lat="45.83937432785914" lon="13.61567405452559"><ele>205.0</ele><time>2026-04-12T13:36:36Z</time></trkpt><trkpt lat="45.83943514961069" lon="13.615516476390875"><ele>205.0</ele><time>2026-04-12T13:36:37Z</time></trkpt><trkpt lat="45.839498751471545" lon="13.615324926489961"><ele>205.0</ele><time>2026-04-12T13:36:38Z</time></trkpt><trkpt lat="45.83954676163491" lon="13.615126906191223"><ele>205.0</ele><time>2026-04-12T13:36:39Z</time></trkpt><trkpt lat="45.83959419849686" lon="13.614931250665425"><ele>205.0</ele><time>2026-04-12T13:36:40Z</time></trkpt><trkpt lat="45.83964086495798" lon="13.614738772579798"><ele>205.0</ele><time>2026-04-12T13:36:41Z</time></trkpt><trkpt lat="45.839687604815666" lon="13.614545072068402"><ele>205.0</ele><time>2026-04-12T13:36:42Z</time></trkpt><trkpt lat="45.83973390412449" lon="13.614350969278366"><ele>205.0</ele><time>2026-04-12T13:36:43Z</time></trkpt><trkpt lat="45.83977949597679" lon="13.614158578403053"><ele>205.0</ele><time>2026-04-12T13:36:44Z</time></trkpt><trkpt lat="45.83982388136323" lon="13.61396850359216"><ele>205.0</ele><time>2026-04-12T13:36:45Z</time></trkpt><trkpt lat="45.8398677977834" lon="13.613780437017104"><ele>205.0</ele><time>2026-04-12T13:36:46Z</time></trkpt><trkpt lat="45.83989583797002" lon="13.61358089426133"><ele>205.0</ele><time>2026-04-12T13:36:47Z</time></trkpt><trkpt lat="45.83994989831741" lon="13.61339486670639"><ele>205.0</ele><time>2026-04-12T13:36:48Z</time></trkpt><trkpt lat="45.839953425367696" lon="13.613196479776073"><ele>205.0</ele><time>2026-04-12T13:36:49Z</time></trkpt><trkpt lat="45.83995722705573" lon="13.612999161494928"><ele>205.0</ele><time>2026-04-12T13:36:50Z</time></trkpt><trkpt lat="45.83995320087059" lon="13.6128017078385"><ele>205.0</ele><time>2026-04-12T13:36:51Z</time></trkpt><trkpt lat="45.83994665946447" lon="13.61260170407936"><ele>205.0</ele><time>2026-04-12T13:36:52Z</time></trkpt><trkpt lat="45.83994075029532" lon="13.612402686110013"><ele>204.75</ele><time>2026-04-12T13:36:53Z</time></trkpt><trkpt lat="45.83993416911336" lon="13.612205449169483"><ele>204.5</ele><time>2026-04-12T13:36:54Z</time></trkpt><trkpt lat="45.83992632194148" lon="13.612006297279255"><ele>204.25</ele><time>2026-04-12T13:36:55Z</time></trkpt><trkpt lat="45.83991680877633" lon="13.611809848816922"><ele>204.0</ele><time>2026-04-12T13:36:56Z</time></trkpt><trkpt lat="45.839927779989566" lon="13.611612616671156"><ele>203.75</ele><time>2026-04-12T13:36:57Z</time></trkpt><trkpt lat="45.83991181785469" lon="13.611416580930394"><ele>203.5</ele><time>2026-04-12T13:36:58Z</time></trkpt><trkpt lat="45.83992170430313" lon="13.611221307811682"><ele>203.25</ele><time>2026-04-12T13:36:59Z</time></trkpt><trkpt lat="45.83994485808664" lon="13.611028542455445"><ele>203.0</ele><time>2026-04-12T13:37:00Z</time></trkpt><trkpt lat="45.8400025259422" lon="13.610847157574453"><ele>202.5</ele><time>2026-04-12T13:37:01Z</time></trkpt><trkpt lat="45.84006910593653" lon="13.610685445358953"><ele>202.0</ele><time>2026-04-12T13:37:02Z</time></trkpt><trkpt lat="45.84014733406302" lon="13.610544730123555"><ele>201.5</ele><time>2026-04-12T13:37:03Z</time></trkpt><trkpt lat="45.84024672894492" lon="13.610421509896874"><ele>201.0</ele><time>2026-04-12T13:37:04Z</time></trkpt><trkpt lat="45.840344375394835" lon="13.610299545985805"><ele>202.75</ele><time>2026-04-12T13:37:05Z</time></trkpt><trkpt lat="45.84044975474571" lon="13.61019492564456"><ele>204.5</ele><time>2026-04-12T13:37:06Z</time></trkpt><trkpt lat="45.840564011370056" lon="13.61012675882343"><ele>206.25</ele><time>2026-04-12T13:37:07Z</time></trkpt><trkpt lat="45.84066788745807" lon="13.610060231370637"><ele>208.0</ele><time>2026-04-12T13:37:08Z</time></trkpt><trkpt lat="45.84075920660903" lon="13.609967912549836"><ele>208.0</ele><time>2026-04-12T13:37:09Z</time></trkpt><trkpt lat="45.84082913668039" lon="13.609836584476888"><ele>208.0</ele><time>2026-04-12T13:37:10Z</time></trkpt><trkpt lat="45.84088664657601" lon="13.6096875731115"><ele>208.0</ele><time>2026-04-12T13:37:11Z</time></trkpt><trkpt lat="45.840938965594894" lon="13.609525904197648"><ele>208.0</ele><time>2026-04-12T13:37:12Z</time></trkpt><trkpt lat="45.84097158738154" lon="13.609352336543267"><ele>208.60000000000002</ele><time>2026-04-12T13:37:13Z</time></trkpt><trkpt lat="45.84098216990959" lon="13.609187594893985"><ele>209.20000000000002</ele><time>2026-04-12T13:37:14Z</time></trkpt><trkpt lat="45.840995982298345" lon="13.609039419841427"><ele>209.8</ele><time>2026-04-12T13:37:14.999Z</time></trkpt><trkpt lat="45.84102216447737" lon="13.6089066825826"><ele>210.4</ele><time>2026-04-12T13:37:15.999Z</time></trkpt><trkpt lat="45.84105903205275" lon="13.60877877095586"><ele>211.0</ele><time>2026-04-12T13:37:16.999Z</time></trkpt><trkpt lat="45.84111763625931" lon="13.608681757248446"><ele>211.0</ele><time>2026-04-12T13:37:17.999Z</time></trkpt><trkpt lat="45.841199312120665" lon="13.608632140468652"><ele>211.0</ele><time>2026-04-12T13:37:18.999Z</time></trkpt><trkpt lat="45.8412940433318" lon="13.6086178230285"><ele>211.0</ele><time>2026-04-12T13:37:19.999Z</time></trkpt><trkpt lat="45.84138975797163" lon="13.608597750501554"><ele>211.0</ele><time>2026-04-12T13:37:20.999Z</time></trkpt><trkpt lat="45.84148523451366" lon="13.608559745510922"><ele>211.0</ele><time>2026-04-12T13:37:21.999Z</time></trkpt><trkpt lat="45.84157968930031" lon="13.608500563939458"><ele>211.0</ele><time>2026-04-12T13:37:22.999Z</time></trkpt><trkpt lat="45.84166706113672" lon="13.608421127428098"><ele>211.0</ele><time>2026-04-12T13:37:23.999Z</time></trkpt><trkpt lat="45.84175437566233" lon="13.60832816277059"><ele>211.0</ele><time>2026-04-12T13:37:24.999Z</time></trkpt><trkpt lat="45.841840368391665" lon="13.608235609017406"><ele>211.0</ele><time>2026-04-12T13:37:25.999Z</time></trkpt><trkpt lat="45.84192953095552" lon="13.608144302264929"><ele>211.0</ele><time>2026-04-12T13:37:26.999Z</time></trkpt><trkpt lat="45.842021109759386" lon="13.60805237905652"><ele>211.75</ele><time>2026-04-12T13:37:27.999Z</time></trkpt><trkpt lat="45.842114569245645" lon="13.607956176123642"><ele>212.5</ele><time>2026-04-12T13:37:28.999Z</time></trkpt><trkpt lat="45.84221064395164" lon="13.607853436198125"><ele>213.25</ele><time>2026-04-12T13:37:29.999Z</time></trkpt><trkpt lat="45.84231123188985" lon="13.60776009288449"><ele>214.0</ele><time>2026-04-12T13:37:30.999Z</time></trkpt><trkpt lat="45.842406403261016" lon="13.60765111955162"><ele>214.0</ele><time>2026-04-12T13:37:31.999Z</time></trkpt><trkpt lat="45.84250262500489" lon="13.607544720789459"><ele>214.0</ele><time>2026-04-12T13:37:32.999Z</time></trkpt><trkpt lat="45.842592604458574" lon="13.607423277014183"><ele>214.0</ele><time>2026-04-12T13:37:33.999Z</time></trkpt><trkpt lat="45.842681603752574" lon="13.607299698511694"><ele>214.0</ele><time>2026-04-12T13:37:34.999Z</time></trkpt><trkpt lat="45.84276856464845" lon="13.607173797807453"><ele>213.5</ele><time>2026-04-12T13:37:35.999Z</time></trkpt><trkpt lat="45.84285703456158" lon="13.607047857195111"><ele>213.0</ele><time>2026-04-12T13:37:36.999Z</time></trkpt><trkpt lat="45.842947457677724" lon="13.606926838106713"><ele>212.5</ele><time>2026-04-12T13:37:37.999Z</time></trkpt><trkpt lat="45.84304766073216" lon="13.60682292547808"><ele>212.0</ele><time>2026-04-12T13:37:38.999Z</time></trkpt><trkpt lat="45.84316563148286" lon="13.606759577754238"><ele>212.0</ele><time>2026-04-12T13:37:39.999Z</time></trkpt><trkpt lat="45.843294455177556" lon="13.606745035811365"><ele>212.0</ele><time>2026-04-12T13:37:40.999Z</time></trkpt><trkpt lat="45.843420102869274" lon="13.606729229575578"><ele>212.0</ele><time>2026-04-12T13:37:42Z</time></trkpt><trkpt lat="45.843547496015965" lon="13.606712013572334"><ele>212.0</ele><time>2026-04-12T13:37:43Z</time></trkpt><trkpt lat="45.843673553283125" lon="13.606692711117377"><ele>212.0</ele><time>2026-04-12T13:37:44Z</time></trkpt><trkpt lat="45.84380093038641" lon="13.60667817981344"><ele>212.0</ele><time>2026-04-12T13:37:45Z</time></trkpt><trkpt lat="45.84392896987853" lon="13.606672160079736"><ele>212.0</ele><time>2026-04-12T13:37:46Z</time></trkpt><trkpt lat="45.84406371976622" lon="13.606695720051142"><ele>212.0</ele><time>2026-04-12T13:37:47Z</time></trkpt><trkpt lat="45.844196987363496" lon="13.606755420389023"><ele>212.0</ele><time>2026-04-12T13:37:48Z</time></trkpt><trkpt lat="45.8443254739991" lon="13.606828987299073"><ele>212.0</ele><time>2026-04-12T13:37:49Z</time></trkpt><trkpt lat="45.84445268508826" lon="13.606907726326641"><ele>212.0</ele><time>2026-04-12T13:37:50Z</time></trkpt><trkpt lat="45.84457582822044" lon="13.606990773061945"><ele>212.0</ele><time>2026-04-12T13:37:51Z</time></trkpt><trkpt lat="45.8447018525426" lon="13.607075071203058"><ele>211.0</ele><time>2026-04-12T13:37:52Z</time></trkpt><trkpt lat="45.84482739794648" lon="13.607161236103584"><ele>210.0</ele><time>2026-04-12T13:37:53Z</time></trkpt><trkpt lat="45.84494864500384" lon="13.607248634952185"><ele>209.0</ele><time>2026-04-12T13:37:54Z</time></trkpt><trkpt lat="45.84506415433198" lon="13.607318620348186"><ele>208.0</ele><time>2026-04-12T13:37:55Z</time></trkpt><trkpt lat="45.84518120775833" lon="13.60735586004786"><ele>207.25</ele><time>2026-04-12T13:37:56Z</time></trkpt><trkpt lat="45.845304856387706" lon="13.607361094254886"><ele>206.5</ele><time>2026-04-12T13:37:57Z</time></trkpt><trkpt lat="45.8454343247481" lon="13.607332209021745"><ele>205.75</ele><time>2026-04-12T13:37:58Z</time></trkpt><trkpt lat="45.84556589071089" lon="13.607285565429796"><ele>205.0</ele><time>2026-04-12T13:37:59Z</time></trkpt><trkpt lat="45.845703971750524" lon="13.607243426827697"><ele>205.0</ele><time>2026-04-12T13:38:00Z</time></trkpt><trkpt lat="45.84583867022179" lon="13.607202155539223"><ele>205.0</ele><time>2026-04-12T13:38:01Z</time></trkpt><trkpt lat="45.84597416638164" lon="13.60716505825095"><ele>205.0</ele><time>2026-04-12T13:38:02Z</time></trkpt><trkpt lat="45.8461065351406" lon="13.60712713763091"><ele>205.0</ele><time>2026-04-12T13:38:03Z</time></trkpt><trkpt lat="45.84623872609836" lon="13.607079415597484"><ele>205.0</ele><time>2026-04-12T13:38:04Z</time></trkpt><trkpt lat="45.84636711330903" lon="13.607017762898993"><ele>205.0</ele><time>2026-04-12T13:38:05Z</time></trkpt><trkpt lat="45.84649264375151" lon="13.606936631151767"><ele>205.0</ele><time>2026-04-12T13:38:06Z</time></trkpt><trkpt lat="45.84661223706697" lon="13.606847505010105"><ele>205.0</ele><time>2026-04-12T13:38:07Z</time></trkpt><trkpt lat="45.84673856168121" lon="13.606768225933614"><ele>204.75</ele><time>2026-04-12T13:38:08Z</time></trkpt><trkpt lat="45.84684342053616" lon="13.606639472009608"><ele>204.5</ele><time>2026-04-12T13:38:09Z</time></trkpt><trkpt lat="45.84695577815546" lon="13.606520737818457"><ele>204.25</ele><time>2026-04-12T13:38:10Z</time></trkpt><trkpt lat="45.84706908002994" lon="13.606398485293854"><ele>204.0</ele><time>2026-04-12T13:38:11Z</time></trkpt><trkpt lat="45.84719478169433" lon="13.606295990550047"><ele>204.0</ele><time>2026-04-12T13:38:12Z</time></trkpt><trkpt lat="45.84733339849412" lon="13.606232321053712"><ele>204.0</ele><time>2026-04-12T13:38:13Z</time></trkpt><trkpt lat="45.84747747165538" lon="13.60621828951591"><ele>204.0</ele><time>2026-04-12T13:38:14Z</time></trkpt><trkpt lat="45.84761680317281" lon="13.606264008642917"><ele>204.0</ele><time>2026-04-12T13:38:15Z</time></trkpt><trkpt lat="45.84774725868588" lon="13.60634335676558"><ele>203.75</ele><time>2026-04-12T13:38:16Z</time></trkpt><trkpt lat="45.847878833427586" lon="13.606406566475677"><ele>203.5</ele><time>2026-04-12T13:38:17Z</time></trkpt><trkpt lat="45.84801974624367" lon="13.606423077041924"><ele>203.25</ele><time>2026-04-12T13:38:18Z</time></trkpt><trkpt lat="45.84816935075474" lon="13.606431683756117"><ele>203.0</ele><time>2026-04-12T13:38:19Z</time></trkpt><trkpt lat="45.84831247161336" lon="13.606371429124911"><ele>203.0</ele><time>2026-04-12T13:38:20Z</time></trkpt><trkpt lat="45.84845406734405" lon="13.60632612985879"><ele>203.0</ele><time>2026-04-12T13:38:21Z</time></trkpt><trkpt lat="45.84859235068183" lon="13.60627966825632"><ele>203.0</ele><time>2026-04-12T13:38:22Z</time></trkpt><trkpt lat="45.84871936738057" lon="13.606225495086665"><ele>203.0</ele><time>2026-04-12T13:38:23Z</time></trkpt><trkpt lat="45.848839371181946" lon="13.606136121582963"><ele>201.75</ele><time>2026-04-12T13:38:24Z</time></trkpt><trkpt lat="45.8489481062407" lon="13.606001873484123"><ele>200.5</ele><time>2026-04-12T13:38:25Z</time></trkpt><trkpt lat="45.849044679658654" lon="13.605849909349057"><ele>199.25</ele><time>2026-04-12T13:38:26Z</time></trkpt><trkpt lat="45.84913194854042" lon="13.605700430793975"><ele>198.0</ele><time>2026-04-12T13:38:27Z</time></trkpt><trkpt lat="45.84923450062412" lon="13.6055965858714"><ele>199.0</ele><time>2026-04-12T13:38:28Z</time></trkpt><trkpt lat="45.84933882914311" lon="13.605504164154423"><ele>200.0</ele><time>2026-04-12T13:38:29Z</time></trkpt><trkpt lat="45.84946438360138" lon="13.605459959256832"><ele>201.0</ele><time>2026-04-12T13:38:30Z</time></trkpt><trkpt lat="45.84957855008626" lon="13.605414959583921"><ele>202.0</ele><time>2026-04-12T13:38:31Z</time></trkpt><trkpt lat="45.8496604720298" lon="13.605381791793395"><ele>201.99999999999997</ele><time>2026-04-12T13:38:32Z</time></trkpt><trkpt lat="45.8497349024209" lon="13.60534880507797"><ele>202.0</ele><time>2026-04-12T13:38:34Z</time></trkpt><trkpt lat="45.849800190932456" lon="13.605314352962436"><ele>202.0</ele><time>2026-04-12T13:38:42Z</time></trkpt><trkpt lat="45.84990801307813" lon="13.605234643563994"><ele>202.0</ele><time>2026-04-12T13:38:44Z</time></trkpt><trkpt lat="45.84998032480385" lon="13.605194565779403"><ele>201.99999999999997</ele><time>2026-04-12T13:38:45Z</time></trkpt><trkpt lat="45.8500619739705" lon="13.605156680279258"><ele>202.0</ele><time>2026-04-12T13:38:46Z</time></trkpt><trkpt lat="45.85015903764516" lon="13.605137017781493"><ele>201.2</ele><time>2026-04-12T13:38:47Z</time></trkpt><trkpt lat="45.8502642012736" lon="13.605128449874254"><ele>200.39999999999998</ele><time>2026-04-12T13:38:48Z</time></trkpt><trkpt lat="45.85037416880166" lon="13.605136628177474"><ele>199.60000000000002</ele><time>2026-04-12T13:38:49Z</time></trkpt><trkpt lat="45.85047684482379" lon="13.60516683684245"><ele>198.8</ele><time>2026-04-12T13:38:50Z</time></trkpt><trkpt lat="45.85058154844178" lon="13.605193880193402"><ele>198.0</ele><time>2026-04-12T13:38:51Z</time></trkpt><trkpt lat="45.850694666320734" lon="13.605210202152533"><ele>198.0</ele><time>2026-04-12T13:38:52Z</time></trkpt><trkpt lat="45.85081127023383" lon="13.605219537454387"><ele>198.0</ele><time>2026-04-12T13:38:53Z</time></trkpt><trkpt lat="45.85093100091351" lon="13.605250798891307"><ele>198.0</ele><time>2026-04-12T13:38:54Z</time></trkpt><trkpt lat="45.851054800058584" lon="13.60522375146674"><ele>198.0</ele><time>2026-04-12T13:38:55Z</time></trkpt><trkpt lat="45.85117429589762" lon="13.605215069308265"><ele>198.0</ele><time>2026-04-12T13:38:56Z</time></trkpt><trkpt lat="45.85128357559374" lon="13.605225751404006"><ele>198.0</ele><time>2026-04-12T13:38:57Z</time></trkpt><trkpt lat="45.851394116058486" lon="13.605231411265935"><ele>198.0</ele><time>2026-04-12T13:38:58Z</time></trkpt><trkpt lat="45.85150897958763" lon="13.605231572581198"><ele>198.0</ele><time>2026-04-12T13:38:59Z</time></trkpt><trkpt lat="45.85162385796667" lon="13.605247091100656"><ele>198.0</ele><time>2026-04-12T13:39:00Z</time></trkpt><trkpt lat="45.851738151180086" lon="13.60525399958765"><ele>198.0</ele><time>2026-04-12T13:39:01Z</time></trkpt><trkpt lat="45.851851390317485" lon="13.605256151028792"><ele>198.0</ele><time>2026-04-12T13:39:02Z</time></trkpt><trkpt lat="45.85196505697015" lon="13.605271422194349"><ele>198.0</ele><time>2026-04-12T13:39:03Z</time></trkpt><trkpt lat="45.85208242596545" lon="13.605287832933099"><ele>197.75</ele><time>2026-04-12T13:39:04Z</time></trkpt><trkpt lat="45.852202390758436" lon="13.605298603565247"><ele>197.5</ele><time>2026-04-12T13:39:05Z</time></trkpt><trkpt lat="45.85232639005303" lon="13.605301231232115"><ele>197.25</ele><time>2026-04-12T13:39:06Z</time></trkpt><trkpt lat="45.85245317709697" lon="13.605301385886042"><ele>197.0</ele><time>2026-04-12T13:39:07Z</time></trkpt><trkpt lat="45.85257996034067" lon="13.605296435606906"><ele>197.25</ele><time>2026-04-12T13:39:08Z</time></trkpt><trkpt lat="45.852707482341295" lon="13.605302119918969"><ele>197.5</ele><time>2026-04-12T13:39:09Z</time></trkpt><trkpt lat="45.85283429258616" lon="13.605342740140422"><ele>197.75</ele><time>2026-04-12T13:39:10Z</time></trkpt><trkpt lat="45.852961140155436" lon="13.605397928760203"><ele>198.0</ele><time>2026-04-12T13:39:11Z</time></trkpt><trkpt lat="45.85307766131931" lon="13.605442682193637"><ele>198.2</ele><time>2026-04-12T13:39:12Z</time></trkpt><trkpt lat="45.85318351986201" lon="13.605487849658122"><ele>198.4</ele><time>2026-04-12T13:39:13Z</time></trkpt><trkpt lat="45.85327866906189" lon="13.605537350608488"><ele>198.6</ele><time>2026-04-12T13:39:14Z</time></trkpt><trkpt lat="45.85336625460218" lon="13.605585855467991"><ele>198.79999999999998</ele><time>2026-04-12T13:39:15Z</time></trkpt><trkpt lat="45.85345108834849" lon="13.605636415793184"><ele>199.0</ele><time>2026-04-12T13:39:15.999Z</time></trkpt><trkpt lat="45.85354261354003" lon="13.605676439793434"><ele>199.0</ele><time>2026-04-12T13:39:16.999Z</time></trkpt><trkpt lat="45.85363335683211" lon="13.60568026300276"><ele>199.0</ele><time>2026-04-12T13:39:17.999Z</time></trkpt><trkpt lat="45.853723026155215" lon="13.605654413245638"><ele>199.0</ele><time>2026-04-12T13:39:18.999Z</time></trkpt><trkpt lat="45.85382422969202" lon="13.605641891145506"><ele>199.0</ele><time>2026-04-12T13:39:19.999Z</time></trkpt><trkpt lat="45.85392837384378" lon="13.605597042394987"><ele>199.0</ele><time>2026-04-12T13:39:20.999Z</time></trkpt><trkpt lat="45.85403170141904" lon="13.605552035369362"><ele>199.0</ele><time>2026-04-12T13:39:21.999Z</time></trkpt><trkpt lat="45.85413120918915" lon="13.605511442374665"><ele>199.0</ele><time>2026-04-12T13:39:22.999Z</time></trkpt><trkpt lat="45.85423196551221" lon="13.605504117563031"><ele>199.0</ele><time>2026-04-12T13:39:23.999Z</time></trkpt><trkpt lat="45.85434113211879" lon="13.605511892668202"><ele>199.0</ele><time>2026-04-12T13:39:24.999Z</time></trkpt><trkpt lat="45.85445022357851" lon="13.605533488826003"><ele>199.0</ele><time>2026-04-12T13:39:25.999Z</time></trkpt><trkpt lat="45.85455404711795" lon="13.605589757651241"><ele>199.0</ele><time>2026-04-12T13:39:26.999Z</time></trkpt><trkpt lat="45.854656661016094" lon="13.60563765083976"><ele>199.0</ele><time>2026-04-12T13:39:27.999Z</time></trkpt><trkpt lat="45.85476176849578" lon="13.60565272809139"><ele>199.0</ele><time>2026-04-12T13:39:28.999Z</time></trkpt><trkpt lat="45.85486486743658" lon="13.60564129392936"><ele>199.0</ele><time>2026-04-12T13:39:29.999Z</time></trkpt><trkpt lat="45.85496320938877" lon="13.605621583723806"><ele>199.0</ele><time>2026-04-12T13:39:30.999Z</time></trkpt><trkpt lat="45.85506185782245" lon="13.605599801321286"><ele>199.25</ele><time>2026-04-12T13:39:31.999Z</time></trkpt><trkpt lat="45.85516652748655" lon="13.605572786416296"><ele>199.5</ele><time>2026-04-12T13:39:32.999Z</time></trkpt><trkpt lat="45.855274738242315" lon="13.605524796007654"><ele>199.75</ele><time>2026-04-12T13:39:33.999Z</time></trkpt><trkpt lat="45.85537201936797" lon="13.605431862101169"><ele>200.0</ele><time>2026-04-12T13:39:34.999Z</time></trkpt><trkpt lat="45.85548177056516" lon="13.605376416340558"><ele>200.0</ele><time>2026-04-12T13:39:35.999Z</time></trkpt><trkpt lat="45.85559040387096" lon="13.605311856885084"><ele>200.0</ele><time>2026-04-12T13:39:36.999Z</time></trkpt><trkpt lat="45.855702954272616" lon="13.605242791219888"><ele>200.0</ele><time>2026-04-12T13:39:37.999Z</time></trkpt><trkpt lat="45.85582424357636" lon="13.605209000853028"><ele>200.0</ele><time>2026-04-12T13:39:38.999Z</time></trkpt><trkpt lat="45.855942304932746" lon="13.605178826778245"><ele>199.8</ele><time>2026-04-12T13:39:39.999Z</time></trkpt><trkpt lat="45.85604947914571" lon="13.605167047785583"><ele>199.6</ele><time>2026-04-12T13:39:40.999Z</time></trkpt><trkpt lat="45.856147573980465" lon="13.60515663933734"><ele>199.39999999999998</ele><time>2026-04-12T13:39:41.999Z</time></trkpt><trkpt lat="45.856243535910494" lon="13.605145971756293"><ele>199.2</ele><time>2026-04-12T13:39:42.999Z</time></trkpt><trkpt lat="45.85634290703176" lon="13.605151076155929"><ele>199.0</ele><time>2026-04-12T13:39:43.999Z</time></trkpt><trkpt lat="45.85643141420185" lon="13.605124096665664"><ele>199.0</ele><time>2026-04-12T13:39:44.999Z</time></trkpt><trkpt lat="45.85650107641363" lon="13.605011757224368"><ele>199.0</ele><time>2026-04-12T13:39:45.999Z</time></trkpt><trkpt lat="45.8565474645112" lon="13.604882644360329"><ele>199.0</ele><time>2026-04-12T13:39:46.999Z</time></trkpt><trkpt lat="45.85659531201366" lon="13.60475495108257"><ele>199.0</ele><time>2026-04-12T13:39:48Z</time></trkpt><trkpt lat="45.85664876551101" lon="13.60462556289609"><ele>199.0</ele><time>2026-04-12T13:39:49Z</time></trkpt><trkpt lat="45.85670663577053" lon="13.60448827245397"><ele>199.0</ele><time>2026-04-12T13:39:50Z</time></trkpt><trkpt lat="45.85676962624489" lon="13.604351744142129"><ele>199.0</ele><time>2026-04-12T13:39:51Z</time></trkpt><trkpt lat="45.85683805742185" lon="13.60422244006537"><ele>199.0</ele><time>2026-04-12T13:39:52Z</time></trkpt><trkpt lat="45.85691902068336" lon="13.60410289447807"><ele>199.0</ele><time>2026-04-12T13:39:53Z</time></trkpt><trkpt lat="45.85700577026399" lon="13.6039885187427"><ele>198.0</ele><time>2026-04-12T13:39:54Z</time></trkpt><trkpt lat="45.85709820230736" lon="13.603878661106737"><ele>197.0</ele><time>2026-04-12T13:39:55Z</time></trkpt><trkpt lat="45.85719743384501" lon="13.60378161116126"><ele>196.0</ele><time>2026-04-12T13:39:56Z</time></trkpt><trkpt lat="45.857281688760835" lon="13.603667735682166"><ele>195.0</ele><time>2026-04-12T13:39:57Z</time></trkpt><trkpt lat="45.8573780776099" lon="13.603611823921813"><ele>195.25</ele><time>2026-04-12T13:39:58Z</time></trkpt><trkpt lat="45.857471868229794" lon="13.60354332342571"><ele>195.5</ele><time>2026-04-12T13:39:59Z</time></trkpt><trkpt lat="45.85757860721864" lon="13.603477924021206"><ele>195.75</ele><time>2026-04-12T13:40:00Z</time></trkpt><trkpt lat="45.857692435170755" lon="13.603404930720833"><ele>196.0</ele><time>2026-04-12T13:40:01Z</time></trkpt><trkpt lat="45.85780258091209" lon="13.603334001062182"><ele>196.0</ele><time>2026-04-12T13:40:02Z</time></trkpt><trkpt lat="45.85790831009993" lon="13.60328762051207"><ele>196.0</ele><time>2026-04-12T13:40:03Z</time></trkpt><trkpt lat="45.85801992053829" lon="13.603259203948086"><ele>196.0</ele><time>2026-04-12T13:40:04Z</time></trkpt><trkpt lat="45.85813619853372" lon="13.60325929084245"><ele>196.0</ele><time>2026-04-12T13:40:05Z</time></trkpt><trkpt lat="45.858258918148714" lon="13.60324347684935"><ele>196.0</ele><time>2026-04-12T13:40:06Z</time></trkpt><trkpt lat="45.85837874740927" lon="13.603238921910759"><ele>196.0</ele><time>2026-04-12T13:40:07Z</time></trkpt><trkpt lat="45.858491449274844" lon="13.60324568674108"><ele>196.0</ele><time>2026-04-12T13:40:08Z</time></trkpt><trkpt lat="45.85859329112615" lon="13.603166851300859"><ele>196.0</ele><time>2026-04-12T13:40:09Z</time></trkpt><trkpt lat="45.85869853333557" lon="13.603095479079863"><ele>196.8</ele><time>2026-04-12T13:40:10Z</time></trkpt><trkpt lat="45.858796955638084" lon="13.603050405563875"><ele>197.60000000000002</ele><time>2026-04-12T13:40:11Z</time></trkpt><trkpt lat="45.85888897316736" lon="13.603066395742955"><ele>198.4</ele><time>2026-04-12T13:40:12Z</time></trkpt><trkpt lat="45.85895484502116" lon="13.60304895368731"><ele>199.2</ele><time>2026-04-12T13:40:13Z</time></trkpt><trkpt lat="45.859062754845425" lon="13.603020380590902"><ele>200.0</ele><time>2026-04-12T13:40:15Z</time></trkpt><trkpt lat="45.85913902809168" lon="13.60295736150773"><ele>200.00000000000003</ele><time>2026-04-12T13:40:17Z</time></trkpt><trkpt lat="45.85920472989434" lon="13.602905000449287"><ele>200.0</ele><time>2026-04-12T13:40:20Z</time></trkpt><trkpt lat="45.85926413853608" lon="13.602844470111984"><ele>200.0</ele><time>2026-04-12T13:40:39Z</time></trkpt><trkpt lat="45.85931701000647" lon="13.602786684037955"><ele>200.0</ele><time>2026-04-12T13:40:40Z</time></trkpt><trkpt lat="45.859370213518545" lon="13.602713712529297"><ele>200.0</ele><time>2026-04-12T13:40:41Z</time></trkpt><trkpt lat="45.8594258530866" lon="13.602643084300253"><ele>200.00000000000003</ele><time>2026-04-12T13:40:42Z</time></trkpt><trkpt lat="45.85948659606498" lon="13.602567646215958"><ele>200.0</ele><time>2026-04-12T13:40:43Z</time></trkpt><trkpt lat="45.85954547913289" lon="13.60247959726238"><ele>201.2</ele><time>2026-04-12T13:40:44Z</time></trkpt><trkpt lat="45.859607444553404" lon="13.602394598639997"><ele>202.4</ele><time>2026-04-12T13:40:45Z</time></trkpt><trkpt lat="45.8596831211317" lon="13.602333276212667"><ele>203.60000000000002</ele><time>2026-04-12T13:40:46Z</time></trkpt><trkpt lat="45.859768754764616" lon="13.602299875942412"><ele>204.8</ele><time>2026-04-12T13:40:47Z</time></trkpt><trkpt lat="45.859866006197215" lon="13.602304422457728"><ele>206.0</ele><time>2026-04-12T13:40:48Z</time></trkpt><trkpt lat="45.85995897733244" lon="13.602326436643008"><ele>206.0</ele><time>2026-04-12T13:40:49Z</time></trkpt><trkpt lat="45.860050742381894" lon="13.602356782554498"><ele>206.0</ele><time>2026-04-12T13:40:50Z</time></trkpt><trkpt lat="45.86014204176441" lon="13.602377617494911"><ele>206.0</ele><time>2026-04-12T13:40:51Z</time></trkpt><trkpt lat="45.860234493145754" lon="13.60239573618502"><ele>206.0</ele><time>2026-04-12T13:40:52Z</time></trkpt><trkpt lat="45.86032530117375" lon="13.60242427238088"><ele>206.0</ele><time>2026-04-12T13:40:53Z</time></trkpt><trkpt lat="45.860416155825526" lon="13.60245032130434"><ele>207.16666666666669</ele><time>2026-04-12T13:40:54Z</time></trkpt><trkpt lat="45.86050753148794" lon="13.602475505980285"><ele>208.33333333333334</ele><time>2026-04-12T13:40:55Z</time></trkpt><trkpt lat="45.86059171516" lon="13.602484478877576"><ele>209.5</ele><time>2026-04-12T13:40:56Z</time></trkpt><trkpt lat="45.86066713235309" lon="13.602498830494063"><ele>210.66666666666669</ele><time>2026-04-12T13:40:57Z</time></trkpt><trkpt lat="45.86074208586325" lon="13.602472947864376"><ele>211.83333333333334</ele><time>2026-04-12T13:40:58Z</time></trkpt><trkpt lat="45.860793713962394" lon="13.602343404741486"><ele>213.0</ele><time>2026-04-12T13:40:59Z</time></trkpt><trkpt lat="45.8608547681778" lon="13.602244565064439"><ele>213.0</ele><time>2026-04-12T13:41:00Z</time></trkpt><trkpt lat="45.86091932954961" lon="13.602169901135447"><ele>213.0</ele><time>2026-04-12T13:41:01Z</time></trkpt><trkpt lat="45.86098357676932" lon="13.602139030850983"><ele>213.0</ele><time>2026-04-12T13:41:02Z</time></trkpt><trkpt lat="45.86105017273596" lon="13.602181791480852"><ele>213.0</ele><time>2026-04-12T13:41:03Z</time></trkpt><trkpt lat="45.86112618453002" lon="13.602236934902157"><ele>213.0</ele><time>2026-04-12T13:41:05Z</time></trkpt><trkpt lat="45.861093288330125" lon="13.60242680735709"><ele>213.0</ele><time>2026-04-12T13:41:08Z</time></trkpt><trkpt lat="45.86108185633904" lon="13.60251581313012"><ele>213.33333333333334</ele><time>2026-04-12T13:41:09Z</time></trkpt><trkpt lat="45.861082565896936" lon="13.602617240740948"><ele>213.66666666666669</ele><time>2026-04-12T13:41:10Z</time></trkpt><trkpt lat="45.86108325916883" lon="13.602712357163208"><ele>214.0</ele><time>2026-04-12T13:41:11Z</time></trkpt><trkpt lat="45.861112169116645" lon="13.602872664062895"><ele>214.33333333333334</ele><time>2026-04-12T13:41:13Z</time></trkpt><trkpt lat="45.86113633993662" lon="13.602986936644877"><ele>214.66666666666669</ele><time>2026-04-12T13:41:14Z</time></trkpt><trkpt lat="45.86121447583065" lon="13.603064280936142"><ele>215.0</ele><time>2026-04-12T13:41:15Z</time></trkpt><trkpt lat="45.86127501472498" lon="13.603163248854365"><ele>215.00000000000003</ele><time>2026-04-12T13:41:16Z</time></trkpt><trkpt lat="45.86134596339504" lon="13.60326479262832"><ele>215.0</ele><time>2026-04-12T13:41:17Z</time></trkpt><trkpt lat="45.86141528196617" lon="13.603367576788703"><ele>215.0</ele><time>2026-04-12T13:41:17.999Z</time></trkpt><trkpt lat="45.861479641519004" lon="13.603462512014554"><ele>215.0</ele><time>2026-04-12T13:41:18.999Z</time></trkpt><trkpt lat="45.86153509967556" lon="13.60355311850496"><ele>215.00000000000003</ele><time>2026-04-12T13:41:19.999Z</time></trkpt><trkpt lat="45.861565144965795" lon="13.603642087729781"><ele>215.0</ele><time>2026-04-12T13:41:20.999Z</time></trkpt><trkpt lat="45.86155890576978" lon="13.603740012777141"><ele>216.16666666666669</ele><time>2026-04-12T13:41:21.999Z</time></trkpt><trkpt lat="45.861535527036835" lon="13.60385544917359"><ele>217.33333333333334</ele><time>2026-04-12T13:41:22.999Z</time></trkpt><trkpt lat="45.861525817958814" lon="13.60398037925983"><ele>218.5</ele><time>2026-04-12T13:41:23.999Z</time></trkpt><trkpt lat="45.861534608340186" lon="13.604109853245085"><ele>219.66666666666669</ele><time>2026-04-12T13:41:24.999Z</time></trkpt><trkpt lat="45.86155452965232" lon="13.604234936550696"><ele>220.83333333333334</ele><time>2026-04-12T13:41:25.999Z</time></trkpt><trkpt lat="45.861575272052086" lon="13.604335763461311"><ele>222.0</ele><time>2026-04-12T13:41:26.999Z</time></trkpt><trkpt lat="45.861597119842415" lon="13.604481707135706"><ele>222.39999999999998</ele><time>2026-04-12T13:41:28.999Z</time></trkpt><trkpt lat="45.86161050287971" lon="13.60457357827016"><ele>222.79999999999998</ele><time>2026-04-12T13:41:29.999Z</time></trkpt><trkpt lat="45.86171734454879" lon="13.604629212919512"><ele>223.2</ele><time>2026-04-12T13:41:30.999Z</time></trkpt><trkpt lat="45.861844141840756" lon="13.604703613103466"><ele>223.6</ele><time>2026-04-12T13:41:32.999Z</time></trkpt><trkpt lat="45.86193951386275" lon="13.60472441793286"><ele>224.0</ele><time>2026-04-12T13:41:33.999Z</time></trkpt><trkpt lat="45.86203944371267" lon="13.604737894956061"><ele>224.79999999999998</ele><time>2026-04-12T13:41:34.999Z</time></trkpt><trkpt lat="45.862144244338154" lon="13.604730330869383"><ele>225.59999999999997</ele><time>2026-04-12T13:41:35.999Z</time></trkpt><trkpt lat="45.862247306607244" lon="13.604753128242123"><ele>226.4</ele><time>2026-04-12T13:41:36.999Z</time></trkpt><trkpt lat="45.86233284065391" lon="13.604765004184019"><ele>227.2</ele><time>2026-04-12T13:41:37.999Z</time></trkpt><trkpt lat="45.86241604344612" lon="13.604798991375754"><ele>228.0</ele><time>2026-04-12T13:41:38.999Z</time></trkpt><trkpt lat="45.86250310407587" lon="13.604866511294048"><ele>228.0</ele><time>2026-04-12T13:41:39.999Z</time></trkpt><trkpt lat="45.86258808054131" lon="13.604970661294965"><ele>228.0</ele><time>2026-04-12T13:41:40.999Z</time></trkpt><trkpt lat="45.86267825187046" lon="13.605078600855402"><ele>228.0</ele><time>2026-04-12T13:41:41.999Z</time></trkpt><trkpt lat="45.86276015740968" lon="13.60517270208682"><ele>228.0</ele><time>2026-04-12T13:41:42.999Z</time></trkpt><trkpt lat="45.8628400533181" lon="13.605257604525637"><ele>228.0</ele><time>2026-04-12T13:41:43.999Z</time></trkpt><trkpt lat="45.86292478575918" lon="13.605326556934017"><ele>230.8</ele><time>2026-04-12T13:41:44.999Z</time></trkpt><trkpt lat="45.863007076075014" lon="13.60541694527414"><ele>233.60000000000002</ele><time>2026-04-12T13:41:45.999Z</time></trkpt><trkpt lat="45.86310035831099" lon="13.60548815926712"><ele>236.39999999999998</ele><time>2026-04-12T13:41:46.999Z</time></trkpt><trkpt lat="45.863198972379" lon="13.605532151330264"><ele>239.2</ele><time>2026-04-12T13:41:47.999Z</time></trkpt><trkpt lat="45.863313865070104" lon="13.605540695651095"><ele>242.0</ele><time>2026-04-12T13:41:48.999Z</time></trkpt><trkpt lat="45.863433710973084" lon="13.605544689898606"><ele>243.75</ele><time>2026-04-12T13:41:49.999Z</time></trkpt><trkpt lat="45.86354951760425" lon="13.605570362534225"><ele>245.5</ele><time>2026-04-12T13:41:50.999Z</time></trkpt><trkpt lat="45.86366492500534" lon="13.605587856569157"><ele>247.25</ele><time>2026-04-12T13:41:51.999Z</time></trkpt><trkpt lat="45.863783779871184" lon="13.605582720123211"><ele>249.0</ele><time>2026-04-12T13:41:53Z</time></trkpt><trkpt lat="45.86390057522845" lon="13.60556763586424"><ele>249.0</ele><time>2026-04-12T13:41:54Z</time></trkpt><trkpt lat="45.86401523175881" lon="13.605563339170503"><ele>249.0</ele><time>2026-04-12T13:41:55Z</time></trkpt><trkpt lat="45.86412983821932" lon="13.605564159294136"><ele>249.0</ele><time>2026-04-12T13:41:56Z</time></trkpt><trkpt lat="45.86423778736339" lon="13.605523661835838"><ele>249.0</ele><time>2026-04-12T13:41:57Z</time></trkpt><trkpt lat="45.86434514688929" lon="13.605497635391192"><ele>250.2</ele><time>2026-04-12T13:41:58Z</time></trkpt><trkpt lat="45.86445279034987" lon="13.60548894057593"><ele>251.39999999999998</ele><time>2026-04-12T13:41:59Z</time></trkpt><trkpt lat="45.864557653943066" lon="13.605452063157449"><ele>252.6</ele><time>2026-04-12T13:42:00Z</time></trkpt><trkpt lat="45.86465880465043" lon="13.605437335605242"><ele>253.8</ele><time>2026-04-12T13:42:01Z</time></trkpt><trkpt lat="45.8647348800857" lon="13.605434212728738"><ele>255.0</ele><time>2026-04-12T13:42:02Z</time></trkpt><trkpt lat="45.864801728999026" lon="13.605563513976442"><ele>255.0</ele><time>2026-04-12T13:42:04Z</time></trkpt><trkpt lat="45.86484276308895" lon="13.605662649737214"><ele>255.0</ele><time>2026-04-12T13:42:05Z</time></trkpt><trkpt lat="45.86486522465484" lon="13.605793567706126"><ele>255.0</ele><time>2026-04-12T13:42:06Z</time></trkpt><trkpt lat="45.86489788900813" lon="13.605927999454932"><ele>255.0</ele><time>2026-04-12T13:42:07Z</time></trkpt><trkpt lat="45.86492962018354" lon="13.606058934478884"><ele>255.0</ele><time>2026-04-12T13:42:08Z</time></trkpt><trkpt lat="45.86495770055947" lon="13.60619444650672"><ele>255.66666666666666</ele><time>2026-04-12T13:42:09Z</time></trkpt><trkpt lat="45.86496353437065" lon="13.606335314766175"><ele>256.3333333333333</ele><time>2026-04-12T13:42:10Z</time></trkpt><trkpt lat="45.86495975789066" lon="13.606471136568437"><ele>257.0</ele><time>2026-04-12T13:42:11Z</time></trkpt><trkpt lat="45.864955861911575" lon="13.606579080087174"><ele>257.66666666666663</ele><time>2026-04-12T13:42:12Z</time></trkpt><trkpt lat="45.864950509094" lon="13.60667677414867"><ele>258.3333333333333</ele><time>2026-04-12T13:42:13Z</time></trkpt><trkpt lat="45.86496201540447" lon="13.606789990899717"><ele>259.0</ele><time>2026-04-12T13:42:14Z</time></trkpt><trkpt lat="45.86499582609629" lon="13.606909435275156"><ele>259.8</ele><time>2026-04-12T13:42:15Z</time></trkpt><trkpt lat="45.865026680229064" lon="13.607040379522664"><ele>260.59999999999997</ele><time>2026-04-12T13:42:16Z</time></trkpt><trkpt lat="45.865052888863666" lon="13.607173232206582"><ele>261.4</ele><time>2026-04-12T13:42:17Z</time></trkpt><trkpt lat="45.86508197229142" lon="13.607311048819792"><ele>262.2</ele><time>2026-04-12T13:42:18Z</time></trkpt><trkpt lat="45.86512284196557" lon="13.6074551373543"><ele>263.0</ele><time>2026-04-12T13:42:19Z</time></trkpt><trkpt lat="45.86516557393413" lon="13.60760490640374"><ele>263.5</ele><time>2026-04-12T13:42:20Z</time></trkpt><trkpt lat="45.86520791161533" lon="13.607759161713604"><ele>264.0</ele><time>2026-04-12T13:42:21Z</time></trkpt><trkpt lat="45.865246801813285" lon="13.607924974510404"><ele>264.5</ele><time>2026-04-12T13:42:22Z</time></trkpt><trkpt lat="45.865280049464836" lon="13.608116164321594"><ele>265.0</ele><time>2026-04-12T13:42:23Z</time></trkpt><trkpt lat="45.86531187581369" lon="13.608313505755596"><ele>265.25</ele><time>2026-04-12T13:42:24Z</time></trkpt><trkpt lat="45.86534354720593" lon="13.608492019586146"><ele>265.5</ele><time>2026-04-12T13:42:25Z</time></trkpt><trkpt lat="45.86538112577865" lon="13.608664374284324"><ele>265.75</ele><time>2026-04-12T13:42:26Z</time></trkpt><trkpt lat="45.865421274831945" lon="13.608838254741736"><ele>266.0</ele><time>2026-04-12T13:42:27Z</time></trkpt><trkpt lat="45.86546460552403" lon="13.609008329353406"><ele>267.25</ele><time>2026-04-12T13:42:28Z</time></trkpt><trkpt lat="45.86551452481569" lon="13.609171919984734"><ele>268.5</ele><time>2026-04-12T13:42:29Z</time></trkpt><trkpt lat="45.865572745061975" lon="13.609327027212242"><ele>269.75</ele><time>2026-04-12T13:42:30Z</time></trkpt><trkpt lat="45.86563054857342" lon="13.609480279735468"><ele>271.0</ele><time>2026-04-12T13:42:31Z</time></trkpt><trkpt lat="45.865684103972335" lon="13.609623521990494"><ele>271.40000000000003</ele><time>2026-04-12T13:42:32Z</time></trkpt><trkpt lat="45.86574084088098" lon="13.609740461181858"><ele>271.8</ele><time>2026-04-12T13:42:33Z</time></trkpt><trkpt lat="45.86580907468663" lon="13.609851962059231"><ele>272.20000000000005</ele><time>2026-04-12T13:42:34Z</time></trkpt><trkpt lat="45.865877811379455" lon="13.609964408473019"><ele>272.6</ele><time>2026-04-12T13:42:35Z</time></trkpt><trkpt lat="45.865935587659216" lon="13.61008241125112"><ele>273.0</ele><time>2026-04-12T13:42:36Z</time></trkpt><trkpt lat="45.86600387439706" lon="13.61019045552112"><ele>273.0</ele><time>2026-04-12T13:42:37Z</time></trkpt><trkpt lat="45.86609012812375" lon="13.610290781045292"><ele>273.0</ele><time>2026-04-12T13:42:38Z</time></trkpt><trkpt lat="45.86617966358364" lon="13.610392488542274"><ele>273.0</ele><time>2026-04-12T13:42:39Z</time></trkpt><trkpt lat="45.866279624720846" lon="13.610479231370283"><ele>273.0</ele><time>2026-04-12T13:42:40Z</time></trkpt><trkpt lat="45.8663741532787" lon="13.610581008330746"><ele>273.25</ele><time>2026-04-12T13:42:41Z</time></trkpt><trkpt lat="45.86646258309858" lon="13.610693571120107"><ele>273.5</ele><time>2026-04-12T13:42:42Z</time></trkpt><trkpt lat="45.86655219243919" lon="13.610808367179645"><ele>273.75</ele><time>2026-04-12T13:42:43Z</time></trkpt><trkpt lat="45.86664568358398" lon="13.610922803594868"><ele>274.0</ele><time>2026-04-12T13:42:44Z</time></trkpt><trkpt lat="45.86673492281737" lon="13.611045632128876"><ele>273.75</ele><time>2026-04-12T13:42:45Z</time></trkpt><trkpt lat="45.86682359196516" lon="13.611161600304467"><ele>273.5</ele><time>2026-04-12T13:42:46Z</time></trkpt><trkpt lat="45.86691148790911" lon="13.611271587558441"><ele>273.25</ele><time>2026-04-12T13:42:47Z</time></trkpt><trkpt lat="45.86700037374191" lon="13.6113840147726"><ele>273.0</ele><time>2026-04-12T13:42:48Z</time></trkpt><trkpt lat="45.867079596349264" lon="13.611504437489405"><ele>273.0</ele><time>2026-04-12T13:42:49Z</time></trkpt><trkpt lat="45.86715922130659" lon="13.611626510956116"><ele>273.0</ele><time>2026-04-12T13:42:50Z</time></trkpt><trkpt lat="45.86722230665713" lon="13.611766289638117"><ele>273.0</ele><time>2026-04-12T13:42:51Z</time></trkpt><trkpt lat="45.86729668899476" lon="13.611894508878747"><ele>273.0</ele><time>2026-04-12T13:42:52Z</time></trkpt><trkpt lat="45.867365068982416" lon="13.612017679727808"><ele>275.5</ele><time>2026-04-12T13:42:53Z</time></trkpt><trkpt lat="45.86743268576547" lon="13.612143100330972"><ele>278.0</ele><time>2026-04-12T13:42:54Z</time></trkpt><trkpt lat="45.86750012512422" lon="13.612274966461177"><ele>280.5</ele><time>2026-04-12T13:42:55Z</time></trkpt><trkpt lat="45.86755884573629" lon="13.612419716331253"><ele>283.0</ele><time>2026-04-12T13:42:56Z</time></trkpt><trkpt lat="45.86761335534803" lon="13.612572278764379"><ele>283.5</ele><time>2026-04-12T13:42:57Z</time></trkpt><trkpt lat="45.86768844971967" lon="13.612687447867957"><ele>284.0</ele><time>2026-04-12T13:42:58Z</time></trkpt><trkpt lat="45.86772191767633" lon="13.612788255919838"><ele>284.5</ele><time>2026-04-12T13:42:59Z</time></trkpt><trkpt lat="45.86778429905734" lon="13.612915184846523"><ele>285.0</ele><time>2026-04-12T13:43:01Z</time></trkpt><trkpt lat="45.867823272630005" lon="13.612993505499729"><ele>285.5</ele><time>2026-04-12T13:43:02Z</time></trkpt><trkpt lat="45.867880221144496" lon="13.61308035186357"><ele>286.0</ele><time>2026-04-12T13:43:03Z</time></trkpt><trkpt lat="45.86794162895463" lon="13.613187219893149"><ele>287.0</ele><time>2026-04-12T13:43:04Z</time></trkpt><trkpt lat="45.86798808042121" lon="13.613317501033997"><ele>288.0</ele><time>2026-04-12T13:43:05Z</time></trkpt><trkpt lat="45.868062652294135" lon="13.61342240474026"><ele>289.0</ele><time>2026-04-12T13:43:06Z</time></trkpt><trkpt lat="45.8681233122574" lon="13.613538285575641"><ele>290.0</ele><time>2026-04-12T13:43:07Z</time></trkpt><trkpt lat="45.868185244167805" lon="13.613650100962444"><ele>291.0</ele><time>2026-04-12T13:43:08Z</time></trkpt><trkpt lat="45.868250843153724" lon="13.613758027060062"><ele>291.8</ele><time>2026-04-12T13:43:09Z</time></trkpt><trkpt lat="45.86830603609605" lon="13.613863611347057"><ele>292.6</ele><time>2026-04-12T13:43:10Z</time></trkpt><trkpt lat="45.86835857951081" lon="13.613972029852581"><ele>293.4</ele><time>2026-04-12T13:43:11Z</time></trkpt><trkpt lat="45.868411629996416" lon="13.614076819363984"><ele>294.2</ele><time>2026-04-12T13:43:12Z</time></trkpt><trkpt lat="45.868469261639646" lon="13.614181822687957"><ele>295.0</ele><time>2026-04-12T13:43:13Z</time></trkpt><trkpt lat="45.86852371856883" lon="13.614283386388344"><ele>296.0</ele><time>2026-04-12T13:43:14Z</time></trkpt><trkpt lat="45.86857866260537" lon="13.614378293566189"><ele>297.0</ele><time>2026-04-12T13:43:15Z</time></trkpt><trkpt lat="45.86861675552183" lon="13.61448512816672"><ele>298.0</ele><time>2026-04-12T13:43:16Z</time></trkpt><trkpt lat="45.86868708836293" lon="13.61457356287561"><ele>299.0</ele><time>2026-04-12T13:43:17Z</time></trkpt><trkpt lat="45.86874969217485" lon="13.614674287814966"><ele>300.0</ele><time>2026-04-12T13:43:18Z</time></trkpt><trkpt lat="45.86881313588571" lon="13.61477381171022"><ele>300.5</ele><time>2026-04-12T13:43:19Z</time></trkpt><trkpt lat="45.86887552895625" lon="13.61486470220876"><ele>301.0</ele><time>2026-04-12T13:43:20Z</time></trkpt><trkpt lat="45.86893154268554" lon="13.614960696798816"><ele>301.5</ele><time>2026-04-12T13:43:21Z</time></trkpt><trkpt lat="45.868989469809264" lon="13.615043055782815"><ele>302.0</ele><time>2026-04-12T13:43:22Z</time></trkpt><trkpt lat="45.86904359876938" lon="13.615134508457823"><ele>302.5</ele><time>2026-04-12T13:43:23Z</time></trkpt><trkpt lat="45.86909979792637" lon="13.615219847769596"><ele>303.0</ele><time>2026-04-12T13:43:24Z</time></trkpt><trkpt lat="45.86915469867445" lon="13.615308534558517"><ele>303.0</ele><time>2026-04-12T13:43:25Z</time></trkpt><trkpt lat="45.869196572768956" lon="13.615407197279886"><ele>303.0</ele><time>2026-04-12T13:43:26Z</time></trkpt><trkpt lat="45.86926003910994" lon="13.615474988348435"><ele>303.0</ele><time>2026-04-12T13:43:27Z</time></trkpt><trkpt lat="45.86931029584519" lon="13.615564800944128"><ele>303.0</ele><time>2026-04-12T13:43:28Z</time></trkpt><trkpt lat="45.86936471165726" lon="13.615651444482245"><ele>303.0</ele><time>2026-04-12T13:43:29Z</time></trkpt><trkpt lat="45.86940700748574" lon="13.615742369894077"><ele>303.0</ele><time>2026-04-12T13:43:30Z</time></trkpt><trkpt lat="45.869449381363125" lon="13.615809388569119"><ele>304.2</ele><time>2026-04-12T13:43:30.999Z</time></trkpt><trkpt lat="45.869637372997694" lon="13.615711247575817"><ele>305.4</ele><time>2026-04-12T13:43:32.999Z</time></trkpt><trkpt lat="45.869700168039294" lon="13.615699598507263"><ele>306.59999999999997</ele><time>2026-04-12T13:43:35.999Z</time></trkpt><trkpt lat="45.869776694700015" lon="13.615648061910724"><ele>307.8</ele><time>2026-04-12T13:43:38.999Z</time></trkpt><trkpt lat="45.869834957728685" lon="13.615577592026272"><ele>309.0</ele><time>2026-04-12T13:43:39.999Z</time></trkpt><trkpt lat="45.86990640235868" lon="13.615547678698926"><ele>309.0</ele><time>2026-04-12T13:43:40.999Z</time></trkpt><trkpt lat="45.86996741716007" lon="13.61550164258086"><ele>309.0</ele><time>2026-04-12T13:43:41.999Z</time></trkpt><trkpt lat="45.870021421807785" lon="13.615438857233979"><ele>309.0</ele><time>2026-04-12T13:43:42.999Z</time></trkpt><trkpt lat="45.87012974935523" lon="13.615400505012426"><ele>309.0</ele><time>2026-04-12T13:43:44.999Z</time></trkpt><trkpt lat="45.87022061373128" lon="13.615354220410646"><ele>309.0</ele><time>2026-04-12T13:43:46.999Z</time></trkpt><trkpt lat="45.870281975965476" lon="13.615329049154925"><ele>309.0</ele><time>2026-04-12T13:43:47.999Z</time></trkpt><trkpt lat="45.87040284306928" lon="13.615261929556949"><ele>311.2</ele><time>2026-04-12T13:43:49.999Z</time></trkpt><trkpt lat="45.870466959794335" lon="13.615263543281715"><ele>313.4</ele><time>2026-04-12T13:43:50.999Z</time></trkpt><trkpt lat="45.870531326531406" lon="13.61526170987296"><ele>315.6</ele><time>2026-04-12T13:43:51.999Z</time></trkpt><trkpt lat="45.87065570316229" lon="13.615246447007586"><ele>317.8</ele><time>2026-04-12T13:43:53.999Z</time></trkpt><trkpt lat="45.870755248377954" lon="13.615127345542696"><ele>320.0</ele><time>2026-04-12T13:43:55.999Z</time></trkpt><trkpt lat="45.87077831154424" lon="13.6150160079048"><ele>320.0</ele><time>2026-04-12T13:43:56.999Z</time></trkpt><trkpt lat="45.870825447172216" lon="13.614852664344031"><ele>320.0</ele><time>2026-04-12T13:43:59Z</time></trkpt><trkpt lat="45.87089485178227" lon="13.614730879312008"><ele>320.0</ele><time>2026-04-12T13:44:01Z</time></trkpt><trkpt lat="45.87098326799008" lon="13.614656920945551"><ele>320.0</ele><time>2026-04-12T13:44:03Z</time></trkpt><trkpt lat="45.87109051242558" lon="13.614693019803394"><ele>320.0</ele><time>2026-04-12T13:44:05Z</time></trkpt><trkpt lat="45.871194621346625" lon="13.614795796070107"><ele>321.6</ele><time>2026-04-12T13:44:07Z</time></trkpt><trkpt lat="45.8712237250402" lon="13.614877723607647"><ele>323.2</ele><time>2026-04-12T13:44:08Z</time></trkpt><trkpt lat="45.87127447369792" lon="13.61500732167168"><ele>324.79999999999995</ele><time>2026-04-12T13:44:10Z</time></trkpt><trkpt lat="45.871380922734545" lon="13.615086084576113"><ele>326.4</ele><time>2026-04-12T13:44:12Z</time></trkpt><trkpt lat="45.87148296228856" lon="13.615156560610002"><ele>328.0</ele><time>2026-04-12T13:44:14Z</time></trkpt><trkpt lat="45.87158862867614" lon="13.615203564619538"><ele>328.0</ele><time>2026-04-12T13:44:16Z</time></trkpt><trkpt lat="45.87168896761971" lon="13.615274001228338"><ele>328.0</ele><time>2026-04-12T13:44:18Z</time></trkpt><trkpt lat="45.8717882093064" lon="13.615339132782402"><ele>328.0</ele><time>2026-04-12T13:44:20Z</time></trkpt><trkpt lat="45.87187897218006" lon="13.615401915242861"><ele>328.0</ele><time>2026-04-12T13:44:22Z</time></trkpt><trkpt lat="45.87196080947018" lon="13.615463288596624"><ele>328.0</ele><time>2026-04-12T13:44:24Z</time></trkpt><trkpt lat="45.87202037310441" lon="13.615538955664178"><ele>328.99999999999994</ele><time>2026-04-12T13:44:26Z</time></trkpt><trkpt lat="45.87207808305909" lon="13.615589684744446"><ele>330.0</ele><time>2026-04-12T13:44:27Z</time></trkpt><trkpt lat="45.87214573874276" lon="13.61559525219901"><ele>331.0</ele><time>2026-04-12T13:44:48Z</time></trkpt><trkpt lat="45.87221429380268" lon="13.615603430591877"><ele>332.0</ele><time>2026-04-12T13:44:50Z</time></trkpt><trkpt lat="45.872288355658526" lon="13.615618158199144"><ele>333.0</ele><time>2026-04-12T13:44:52Z</time></trkpt><trkpt lat="45.872356508341824" lon="13.61563057893466"><ele>333.99999999999994</ele><time>2026-04-12T13:44:54Z</time></trkpt><trkpt lat="45.872434445889844" lon="13.61564560029971"><ele>335.0</ele><time>2026-04-12T13:44:57Z</time></trkpt><trkpt lat="45.87249736487818" lon="13.615660839771012"><ele>335.0</ele><time>2026-04-12T13:45:00Z</time></trkpt><trkpt lat="45.872553155633" lon="13.615599523559668"><ele>335.0</ele><time>2026-04-12T13:45:05Z</time></trkpt><trkpt lat="45.872653451968496" lon="13.615568305802325"><ele>335.0</ele><time>2026-04-12T13:45:07Z</time></trkpt><trkpt lat="45.87270494064035" lon="13.615667850046536"><ele>335.0</ele><time>2026-04-12T13:45:10Z</time></trkpt><trkpt lat="45.872700427369956" lon="13.615769316565569"><ele>335.0</ele><time>2026-04-12T13:45:15Z</time></trkpt><trkpt lat="45.87272106699265" lon="13.615855646346597"><ele>335.0</ele><time>2026-04-12T13:48:11Z</time></trkpt><trkpt lat="45.87272553583378" lon="13.615962432396676"><ele>317.0</ele><time>2026-04-12T13:48:18Z</time></trkpt><trkpt lat="45.87270446598857" lon="13.616052872150116"><ele>317.0</ele><time>2026-04-12T13:48:25Z</time></trkpt><trkpt lat="45.87271875885093" lon="13.616140957002962"><ele>317.0</ele><time>2026-04-12T13:48:32Z</time></trkpt></trkseg><trkseg><trkpt lat="45.87261225858945" lon="13.615915562623277"><ele>317.0</ele><time>2026-04-12T14:36:01.504Z</time></trkpt><trkpt lat="45.872641012631355" lon="13.615833314237257"><ele>317.0</ele><time>2026-04-12T14:36:13Z</time></trkpt><trkpt lat="45.87264904233993" lon="13.61564532362556"><ele>317.0</ele><time>2026-04-12T14:36:20Z</time></trkpt><trkpt lat="45.872648116977636" lon="13.615504854651729"><ele>317.0</ele><time>2026-04-12T14:36:22Z</time></trkpt><trkpt lat="45.87262463778103" lon="13.61536528862964"><ele>317.0</ele><time>2026-04-12T14:36:24Z</time></trkpt><trkpt lat="45.87256845659909" lon="13.61526912394196"><ele>319.4</ele><time>2026-04-12T14:36:26Z</time></trkpt><trkpt lat="45.872494148885984" lon="13.615257556609476"><ele>321.79999999999995</ele><time>2026-04-12T14:36:28Z</time></trkpt><trkpt lat="45.87238950734221" lon="13.615303867551921"><ele>324.2</ele><time>2026-04-12T14:36:30Z</time></trkpt><trkpt lat="45.87229262137652" lon="13.615369843059455"><ele>326.59999999999997</ele><time>2026-04-12T14:36:31Z</time></trkpt><trkpt lat="45.872216131353355" lon="13.61541657987619"><ele>329.0</ele><time>2026-04-12T14:36:32Z</time></trkpt><trkpt lat="45.872141210896096" lon="13.615461519702052"><ele>329.1666666666667</ele><time>2026-04-12T14:36:34Z</time></trkpt><trkpt lat="45.872065023524335" lon="13.615502536274123"><ele>329.33333333333337</ele><time>2026-04-12T14:36:36Z</time></trkpt><trkpt lat="45.87198651319208" lon="13.615520859094635"><ele>329.5</ele><time>2026-04-12T14:36:38Z</time></trkpt><trkpt lat="45.8719081884573" lon="13.615497207112897"><ele>329.6666666666667</ele><time>2026-04-12T14:36:40Z</time></trkpt><trkpt lat="45.871840207876005" lon="13.615430573539724"><ele>329.8333333333333</ele><time>2026-04-12T14:36:42Z</time></trkpt><trkpt lat="45.87176625987591" lon="13.615371375385797"><ele>330.0</ele><time>2026-04-12T14:36:44Z</time></trkpt><trkpt lat="45.87168572503198" lon="13.615312088348027"><ele>329.6666666666667</ele><time>2026-04-12T14:36:46Z</time></trkpt><trkpt lat="45.87160933928199" lon="13.615246453069602"><ele>329.3333333333333</ele><time>2026-04-12T14:36:48Z</time></trkpt><trkpt lat="45.871531460386734" lon="13.6151849549108"><ele>329.0</ele><time>2026-04-12T14:36:50Z</time></trkpt><trkpt lat="45.87145351626924" lon="13.615125279289105"><ele>328.66666666666663</ele><time>2026-04-12T14:36:52Z</time></trkpt><trkpt lat="45.87137308841379" lon="13.61506254702101"><ele>328.3333333333333</ele><time>2026-04-12T14:36:54Z</time></trkpt><trkpt lat="45.87129436333765" lon="13.614999795626932"><ele>328.0</ele><time>2026-04-12T14:36:56Z</time></trkpt><trkpt lat="45.87122029153459" lon="13.614916061953123"><ele>328.0</ele><time>2026-04-12T14:36:58Z</time></trkpt><trkpt lat="45.871154673384716" lon="13.614804866812468"><ele>328.0</ele><time>2026-04-12T14:37:00Z</time></trkpt><trkpt lat="45.87108477866014" lon="13.614697115557968"><ele>328.0</ele><time>2026-04-12T14:37:02Z</time></trkpt><trkpt lat="45.87104262504967" lon="13.614608980245755"><ele>328.0</ele><time>2026-04-12T14:37:03Z</time></trkpt><trkpt lat="45.87096313291525" lon="13.614614919251864"><ele>328.0</ele><time>2026-04-12T14:37:04Z</time></trkpt><trkpt lat="45.87089651573439" lon="13.614673925537941"><ele>328.0</ele><time>2026-04-12T14:37:05Z</time></trkpt><trkpt lat="45.870840254184614" lon="13.614716180438922"><ele>326.66666666666663</ele><time>2026-04-12T14:37:06Z</time></trkpt><trkpt lat="45.870787082583895" lon="13.614780081902907"><ele>325.3333333333333</ele><time>2026-04-12T14:37:07Z</time></trkpt><trkpt lat="45.87076494222001" lon="13.614876898506532"><ele>324.0</ele><time>2026-04-12T14:37:08Z</time></trkpt><trkpt lat="45.870752554666254" lon="13.614967304550577"><ele>322.6666666666667</ele><time>2026-04-12T14:37:09Z</time></trkpt><trkpt lat="45.870709681357454" lon="13.615131100345682"><ele>321.33333333333337</ele><time>2026-04-12T14:37:11Z</time></trkpt><trkpt lat="45.87060393882619" lon="13.615215696833548"><ele>320.0</ele><time>2026-04-12T14:37:13Z</time></trkpt><trkpt lat="45.87054251404366" lon="13.615237424613706"><ele>320.0</ele><time>2026-04-12T14:37:14Z</time></trkpt><trkpt lat="45.870427081817844" lon="13.615245952813016"><ele>320.0</ele><time>2026-04-12T14:37:16Z</time></trkpt><trkpt lat="45.87031220771273" lon="13.615264629043335"><ele>320.0</ele><time>2026-04-12T14:37:18Z</time></trkpt><trkpt lat="45.87019743429722" lon="13.615305252193256"><ele>320.0</ele><time>2026-04-12T14:37:20Z</time></trkpt><trkpt lat="45.870101745362746" lon="13.615352886119446"><ele>317.25</ele><time>2026-04-12T14:37:22Z</time></trkpt><trkpt lat="45.87002295152058" lon="13.615423268256956"><ele>314.5</ele><time>2026-04-12T14:37:24Z</time></trkpt><trkpt lat="45.869910138488066" lon="13.615501005412394"><ele>311.75</ele><time>2026-04-12T14:37:26Z</time></trkpt><trkpt lat="45.8697929966311" lon="13.615590920876373"><ele>309.0</ele><time>2026-04-12T14:37:28Z</time></trkpt><trkpt lat="45.86969462139844" lon="13.61567803776212"><ele>309.0</ele><time>2026-04-12T14:37:30Z</time></trkpt><trkpt lat="45.86960709555685" lon="13.61570074609143"><ele>309.0</ele><time>2026-04-12T14:37:32Z</time></trkpt><trkpt lat="45.86952564686542" lon="13.615744275376887"><ele>309.0</ele><time>2026-04-12T14:37:34Z</time></trkpt><trkpt lat="45.86938357399133" lon="13.615634299446787"><ele>309.0</ele><time>2026-04-12T14:37:35Z</time></trkpt><trkpt lat="45.8693051787657" lon="13.615503484729459"><ele>308.0</ele><time>2026-04-12T14:37:37Z</time></trkpt><trkpt lat="45.86924961216939" lon="13.615422425947191"><ele>307.0</ele><time>2026-04-12T14:37:38Z</time></trkpt><trkpt lat="45.869195277221195" lon="13.615332822628154"><ele>306.0</ele><time>2026-04-12T14:37:39Z</time></trkpt><trkpt lat="45.86913873897854" lon="13.615240552541373"><ele>305.0</ele><time>2026-04-12T14:37:40Z</time></trkpt><trkpt lat="45.86907329659484" lon="13.615165453454141"><ele>304.0</ele><time>2026-04-12T14:37:41Z</time></trkpt><trkpt lat="45.869022003110196" lon="13.615082460232411"><ele>303.0</ele><time>2026-04-12T14:37:42Z</time></trkpt><trkpt lat="45.868971045578164" lon="13.61500431664919"><ele>303.0</ele><time>2026-04-12T14:37:43Z</time></trkpt><trkpt lat="45.868929204125614" lon="13.614934955119908"><ele>303.0</ele><time>2026-04-12T14:37:44Z</time></trkpt><trkpt lat="45.868849957752644" lon="13.614816779588905"><ele>303.0</ele><time>2026-04-12T14:37:46Z</time></trkpt><trkpt lat="45.86878259987494" lon="13.61471708589786"><ele>303.0</ele><time>2026-04-12T14:37:48Z</time></trkpt><trkpt lat="45.8687074448428" lon="13.614567225375005"><ele>303.0</ele><time>2026-04-12T14:37:49.999Z</time></trkpt><trkpt lat="45.86864125982766" lon="13.614486711974523"><ele>302.5</ele><time>2026-04-12T14:37:50.999Z</time></trkpt><trkpt lat="45.868592214357164" lon="13.614391802437872"><ele>302.0</ele><time>2026-04-12T14:37:51.999Z</time></trkpt><trkpt lat="45.86854840021714" lon="13.614312582187443"><ele>301.5</ele><time>2026-04-12T14:37:52.999Z</time></trkpt><trkpt lat="45.86851872078061" lon="13.614228048263914"><ele>301.0</ele><time>2026-04-12T14:37:53.999Z</time></trkpt><trkpt lat="45.8684426178205" lon="13.614086877934902"><ele>300.5</ele><time>2026-04-12T14:37:55.999Z</time></trkpt><trkpt lat="45.8683999872849" lon="13.614004283130985"><ele>300.0</ele><time>2026-04-12T14:37:56.999Z</time></trkpt><trkpt lat="45.86835330975131" lon="13.61391210425833"><ele>299.1666666666667</ele><time>2026-04-12T14:37:57.999Z</time></trkpt><trkpt lat="45.86830794206273" lon="13.613822511903672"><ele>298.3333333333333</ele><time>2026-04-12T14:37:58.999Z</time></trkpt><trkpt lat="45.86824963383002" lon="13.613747852258804"><ele>297.5</ele><time>2026-04-12T14:37:59.999Z</time></trkpt><trkpt lat="45.868202229510494" lon="13.613661629023042"><ele>296.66666666666663</ele><time>2026-04-12T14:38:00.999Z</time></trkpt><trkpt lat="45.86815081948968" lon="13.613569167900748"><ele>295.8333333333333</ele><time>2026-04-12T14:38:01.999Z</time></trkpt><trkpt lat="45.868092905609934" lon="13.613465487983534"><ele>295.0</ele><time>2026-04-12T14:38:02.999Z</time></trkpt><trkpt lat="45.86802942553601" lon="13.613351285787928"><ele>294.2</ele><time>2026-04-12T14:38:03.999Z</time></trkpt><trkpt lat="45.86797021545272" lon="13.61323945687937"><ele>293.4</ele><time>2026-04-12T14:38:04.999Z</time></trkpt><trkpt lat="45.867915173114376" lon="13.613122688383177"><ele>292.6</ele><time>2026-04-12T14:38:05.999Z</time></trkpt><trkpt lat="45.86785579292791" lon="13.613009941421481"><ele>291.8</ele><time>2026-04-12T14:38:06.999Z</time></trkpt><trkpt lat="45.86780114810669" lon="13.612905245550925"><ele>291.0</ele><time>2026-04-12T14:38:07.999Z</time></trkpt><trkpt lat="45.867760974616836" lon="13.612813493804767"><ele>290.1666666666667</ele><time>2026-04-12T14:38:08.999Z</time></trkpt><trkpt lat="45.86772707091437" lon="13.612715737893252"><ele>289.3333333333333</ele><time>2026-04-12T14:38:09.999Z</time></trkpt><trkpt lat="45.8676774300967" lon="13.612645968315546"><ele>288.5</ele><time>2026-04-12T14:38:10.999Z</time></trkpt><trkpt lat="45.867640156204324" lon="13.612561447675517"><ele>287.66666666666663</ele><time>2026-04-12T14:38:11.999Z</time></trkpt><trkpt lat="45.86759829560859" lon="13.612475949176382"><ele>286.8333333333333</ele><time>2026-04-12T14:38:13Z</time></trkpt><trkpt lat="45.8675745406456" lon="13.612359239571164"><ele>286.0</ele><time>2026-04-12T14:38:14Z</time></trkpt><trkpt lat="45.86751904343244" lon="13.612267283792571"><ele>285.5</ele><time>2026-04-12T14:38:15Z</time></trkpt><trkpt lat="45.86747768900824" lon="13.612172052334945"><ele>285.0</ele><time>2026-04-12T14:38:16Z</time></trkpt><trkpt lat="45.867426759887856" lon="13.61208712939261"><ele>284.5</ele><time>2026-04-12T14:38:17Z</time></trkpt><trkpt lat="45.86737880211745" lon="13.611994602384856"><ele>284.0</ele><time>2026-04-12T14:38:18Z</time></trkpt><trkpt lat="45.867319696344346" lon="13.611896502382988"><ele>283.5</ele><time>2026-04-12T14:38:19Z</time></trkpt><trkpt lat="45.86727060097898" lon="13.611774690079839"><ele>283.0</ele><time>2026-04-12T14:38:20Z</time></trkpt><trkpt lat="45.86720741546314" lon="13.611666819540616"><ele>281.3333333333333</ele><time>2026-04-12T14:38:21Z</time></trkpt><trkpt lat="45.86714843203314" lon="13.611571450000577"><ele>279.66666666666663</ele><time>2026-04-12T14:38:22Z</time></trkpt><trkpt lat="45.86708368199608" lon="13.611500606225329"><ele>278.0</ele><time>2026-04-12T14:38:23Z</time></trkpt><trkpt lat="45.867037717307156" lon="13.611403410161232"><ele>276.3333333333333</ele><time>2026-04-12T14:38:24Z</time></trkpt><trkpt lat="45.8669635500112" lon="13.611331343312735"><ele>274.6666666666667</ele><time>2026-04-12T14:38:25Z</time></trkpt><trkpt lat="45.866907889249426" lon="13.611224486944815"><ele>273.0</ele><time>2026-04-12T14:38:26Z</time></trkpt><trkpt lat="45.86683835350028" lon="13.611133315530898"><ele>273.2</ele><time>2026-04-12T14:38:27Z</time></trkpt><trkpt lat="45.866768738417576" lon="13.611042040982648"><ele>273.4</ele><time>2026-04-12T14:38:28Z</time></trkpt><trkpt lat="45.86669899297874" lon="13.610950595169266"><ele>273.59999999999997</ele><time>2026-04-12T14:38:29Z</time></trkpt><trkpt lat="45.86662924023775" lon="13.610859139922615"><ele>273.8</ele><time>2026-04-12T14:38:30Z</time></trkpt><trkpt lat="45.86655706983152" lon="13.610767855855903"><ele>274.0</ele><time>2026-04-12T14:38:31Z</time></trkpt><trkpt lat="45.86647847824169" lon="13.610669073760356"><ele>274.0</ele><time>2026-04-12T14:38:32Z</time></trkpt><trkpt lat="45.86639306860019" lon="13.61056644217223"><ele>274.0</ele><time>2026-04-12T14:38:33Z</time></trkpt><trkpt lat="45.86629862263641" lon="13.610489653289653"><ele>274.0</ele><time>2026-04-12T14:38:34Z</time></trkpt><trkpt lat="45.86622430142836" lon="13.610380526162794"><ele>274.0</ele><time>2026-04-12T14:38:35Z</time></trkpt><trkpt lat="45.86613102119476" lon="13.610306954293579"><ele>274.0</ele><time>2026-04-12T14:38:36Z</time></trkpt><trkpt lat="45.86605056981824" lon="13.610205897562826"><ele>273.8</ele><time>2026-04-12T14:38:37Z</time></trkpt><trkpt lat="45.865982765508456" lon="13.610088344422985"><ele>273.59999999999997</ele><time>2026-04-12T14:38:38Z</time></trkpt><trkpt lat="45.86590096060012" lon="13.60997677776859"><ele>273.4</ele><time>2026-04-12T14:38:39Z</time></trkpt><trkpt lat="45.86583904103117" lon="13.609850816915582"><ele>273.2</ele><time>2026-04-12T14:38:40Z</time></trkpt><trkpt lat="45.86578101626089" lon="13.609745133964083"><ele>273.0</ele><time>2026-04-12T14:38:41Z</time></trkpt><trkpt lat="45.865723256623795" lon="13.609654634778511"><ele>273.4</ele><time>2026-04-12T14:38:42Z</time></trkpt><trkpt lat="45.865687615442425" lon="13.609550681575941"><ele>273.8</ele><time>2026-04-12T14:38:43Z</time></trkpt><trkpt lat="45.865638362478784" lon="13.609427254032019"><ele>274.2</ele><time>2026-04-12T14:38:44Z</time></trkpt><trkpt lat="45.86557505695448" lon="13.609290280274106"><ele>274.6</ele><time>2026-04-12T14:38:45Z</time></trkpt><trkpt lat="45.865536569530136" lon="13.609132107857855"><ele>275.0</ele><time>2026-04-12T14:38:46Z</time></trkpt><trkpt lat="45.86547681423789" lon="13.608985185875477"><ele>274.0</ele><time>2026-04-12T14:38:47Z</time></trkpt><trkpt lat="45.865435239651276" lon="13.608827674887733"><ele>273.0</ele><time>2026-04-12T14:38:48Z</time></trkpt><trkpt lat="45.86539931638768" lon="13.608667833145196"><ele>272.0</ele><time>2026-04-12T14:38:49Z</time></trkpt><trkpt lat="45.86536750045278" lon="13.608518968602063"><ele>271.0</ele><time>2026-04-12T14:38:50Z</time></trkpt><trkpt lat="45.86533720559182" lon="13.608366538852621"><ele>269.75</ele><time>2026-04-12T14:38:51Z</time></trkpt><trkpt lat="45.865308667952355" lon="13.608211091999394"><ele>268.5</ele><time>2026-04-12T14:38:52Z</time></trkpt><trkpt lat="45.86528100958352" lon="13.608049803408836"><ele>267.25</ele><time>2026-04-12T14:38:53Z</time></trkpt><trkpt lat="45.865253511770916" lon="13.607886387808453"><ele>266.0</ele><time>2026-04-12T14:38:54Z</time></trkpt><trkpt lat="45.865220563150544" lon="13.607725433586342"><ele>265.75</ele><time>2026-04-12T14:38:55Z</time></trkpt><trkpt lat="45.8651808758876" lon="13.607565919847044"><ele>265.5</ele><time>2026-04-12T14:38:56Z</time></trkpt><trkpt lat="45.86513820285599" lon="13.60741320321204"><ele>265.25</ele><time>2026-04-12T14:38:57Z</time></trkpt><trkpt lat="45.86509310459643" lon="13.60726346722196"><ele>265.0</ele><time>2026-04-12T14:38:58Z</time></trkpt><trkpt lat="45.86505577320663" lon="13.607108007515995"><ele>263.8</ele><time>2026-04-12T14:38:59Z</time></trkpt><trkpt lat="45.86502541597914" lon="13.606956354054953"><ele>262.6</ele><time>2026-04-12T14:39:00Z</time></trkpt><trkpt lat="45.865001166416654" lon="13.606819377717311"><ele>261.4</ele><time>2026-04-12T14:39:01Z</time></trkpt><trkpt lat="45.86499358976068" lon="13.606685289003481"><ele>260.2</ele><time>2026-04-12T14:39:02Z</time></trkpt><trkpt lat="45.86497191161923" lon="13.606547515799848"><ele>259.0</ele><time>2026-04-12T14:39:03Z</time></trkpt><trkpt lat="45.864980675810074" lon="13.606393937645624"><ele>259.0</ele><time>2026-04-12T14:39:04Z</time></trkpt><trkpt lat="45.86498264053908" lon="13.606234682697115"><ele>259.0</ele><time>2026-04-12T14:39:05Z</time></trkpt><trkpt lat="45.8649632751817" lon="13.606075305471496"><ele>259.0</ele><time>2026-04-12T14:39:06Z</time></trkpt><trkpt lat="45.86492805319383" lon="13.605923616545924"><ele>259.0</ele><time>2026-04-12T14:39:07Z</time></trkpt><trkpt lat="45.864887619715276" lon="13.605780928310665"><ele>259.0</ele><time>2026-04-12T14:39:08Z</time></trkpt><trkpt lat="45.864853487414386" lon="13.6056566992746"><ele>258.2</ele><time>2026-04-12T14:39:09Z</time></trkpt><trkpt lat="45.86483043055497" lon="13.60554913587663"><ele>257.4</ele><time>2026-04-12T14:39:10Z</time></trkpt><trkpt lat="45.86480486671653" lon="13.605465142997364"><ele>256.6</ele><time>2026-04-12T14:39:11Z</time></trkpt><trkpt lat="45.86466512184626" lon="13.605396002008225"><ele>255.8</ele><time>2026-04-12T14:39:13Z</time></trkpt><trkpt lat="45.86457255171627" lon="13.605419761783786"><ele>255.0</ele><time>2026-04-12T14:39:14Z</time></trkpt><trkpt lat="45.86447439810149" lon="13.605454176917442"><ele>255.0</ele><time>2026-04-12T14:39:15Z</time></trkpt><trkpt lat="45.86437185448114" lon="13.60547567574132"><ele>255.0</ele><time>2026-04-12T14:39:16Z</time></trkpt><trkpt lat="45.86426895966159" lon="13.60549572949525"><ele>255.0</ele><time>2026-04-12T14:39:17Z</time></trkpt><trkpt lat="45.86416416106035" lon="13.60551936973634"><ele>255.0</ele><time>2026-04-12T14:39:18Z</time></trkpt><trkpt lat="45.86405524211676" lon="13.6055338555977"><ele>255.0</ele><time>2026-04-12T14:39:19Z</time></trkpt><trkpt lat="45.86394645836325" lon="13.605548218373032"><ele>253.8</ele><time>2026-04-12T14:39:20Z</time></trkpt><trkpt lat="45.86383450721757" lon="13.605560185251518"><ele>252.6</ele><time>2026-04-12T14:39:21Z</time></trkpt><trkpt lat="45.86372700433872" lon="13.605565909512253"><ele>251.39999999999998</ele><time>2026-04-12T14:39:22Z</time></trkpt><trkpt lat="45.8636253216481" lon="13.605561614791112"><ele>250.2</ele><time>2026-04-12T14:39:23Z</time></trkpt><trkpt lat="45.86352426351686" lon="13.605547275516454"><ele>249.0</ele><time>2026-04-12T14:39:24Z</time></trkpt><trkpt lat="45.86341681848095" lon="13.60552840740503"><ele>247.6</ele><time>2026-04-12T14:39:24.999Z</time></trkpt><trkpt lat="45.86330801153556" lon="13.605510810810665"><ele>246.2</ele><time>2026-04-12T14:39:25.999Z</time></trkpt><trkpt lat="45.86320279586837" lon="13.605500248383036"><ele>244.79999999999998</ele><time>2026-04-12T14:39:26.999Z</time></trkpt><trkpt lat="45.86310768187076" lon="13.605457600701289"><ele>243.39999999999998</ele><time>2026-04-12T14:39:27.999Z</time></trkpt><trkpt lat="45.86303211895143" lon="13.605388782125239"><ele>242.0</ele><time>2026-04-12T14:39:28.999Z</time></trkpt><trkpt lat="45.86294391895129" lon="13.60530371848351"><ele>239.5</ele><time>2026-04-12T14:39:29.999Z</time></trkpt><trkpt lat="45.86284058410925" lon="13.605223655029521"><ele>237.0</ele><time>2026-04-12T14:39:30.999Z</time></trkpt><trkpt lat="45.862742463773614" lon="13.605122502147333"><ele>234.5</ele><time>2026-04-12T14:39:31.999Z</time></trkpt><trkpt lat="45.86265543163346" lon="13.605015121346852"><ele>232.0</ele><time>2026-04-12T14:39:32.999Z</time></trkpt><trkpt lat="45.86257467142098" lon="13.604909097905466"><ele>231.2</ele><time>2026-04-12T14:39:33.999Z</time></trkpt><trkpt lat="45.862492326161004" lon="13.604818548936818"><ele>230.39999999999998</ele><time>2026-04-12T14:39:34.999Z</time></trkpt><trkpt lat="45.86240627802642" lon="13.604754165967691"><ele>229.60000000000002</ele><time>2026-04-12T14:39:35.999Z</time></trkpt><trkpt lat="45.86230080940484" lon="13.604718287979184"><ele>228.8</ele><time>2026-04-12T14:39:36.999Z</time></trkpt><trkpt lat="45.86218409479184" lon="13.604707461054604"><ele>228.0</ele><time>2026-04-12T14:39:37.999Z</time></trkpt><trkpt lat="45.862069099282095" lon="13.60471417236413"><ele>228.0</ele><time>2026-04-12T14:39:38.999Z</time></trkpt><trkpt lat="45.861965277921314" lon="13.604699020089857"><ele>228.0</ele><time>2026-04-12T14:39:39.999Z</time></trkpt><trkpt lat="45.861874951299725" lon="13.60467715246542"><ele>228.0</ele><time>2026-04-12T14:39:40.999Z</time></trkpt><trkpt lat="45.86180162771504" lon="13.60465045404594"><ele>228.0</ele><time>2026-04-12T14:39:41.999Z</time></trkpt><trkpt lat="45.86172153656961" lon="13.604585410583205"><ele>228.0</ele><time>2026-04-12T14:39:44.999Z</time></trkpt><trkpt lat="45.86161911753728" lon="13.604446202612191"><ele>226.8</ele><time>2026-04-12T14:39:46.999Z</time></trkpt><trkpt lat="45.86155386782642" lon="13.604395932276576"><ele>225.60000000000002</ele><time>2026-04-12T14:39:47.999Z</time></trkpt><trkpt lat="45.861583137139206" lon="13.60419145204826"><ele>224.39999999999998</ele><time>2026-04-12T14:39:48.999Z</time></trkpt><trkpt lat="45.86156571661383" lon="13.604060745134941"><ele>223.2</ele><time>2026-04-12T14:39:49.999Z</time></trkpt><trkpt lat="45.86155300383258" lon="13.603929560477793"><ele>222.0</ele><time>2026-04-12T14:39:50.999Z</time></trkpt><trkpt lat="45.86154965877591" lon="13.603813829839618"><ele>222.0</ele><time>2026-04-12T14:39:51.999Z</time></trkpt><trkpt lat="45.8615780437959" lon="13.603697432764902"><ele>222.0</ele><time>2026-04-12T14:39:52.999Z</time></trkpt><trkpt lat="45.86156905679398" lon="13.603568932917643"><ele>222.0</ele><time>2026-04-12T14:39:53.999Z</time></trkpt><trkpt lat="45.86150967147048" lon="13.603439577110326"><ele>222.0</ele><time>2026-04-12T14:39:54.999Z</time></trkpt><trkpt lat="45.86140739097267" lon="13.60334912674005"><ele>222.0</ele><time>2026-04-12T14:39:55.999Z</time></trkpt><trkpt lat="45.861342749774074" lon="13.603221594237027"><ele>220.6</ele><time>2026-04-12T14:39:56.999Z</time></trkpt><trkpt lat="45.86127356398511" lon="13.603115235835292"><ele>219.2</ele><time>2026-04-12T14:39:57.999Z</time></trkpt><trkpt lat="45.861210840801775" lon="13.603004802745282"><ele>217.8</ele><time>2026-04-12T14:39:58.999Z</time></trkpt><trkpt lat="45.86115676122194" lon="13.602887174797704"><ele>216.4</ele><time>2026-04-12T14:39:59.999Z</time></trkpt><trkpt lat="45.861115278687855" lon="13.602765306008981"><ele>215.0</ele><time>2026-04-12T14:40:00.999Z</time></trkpt><trkpt lat="45.861107028275605" lon="13.60265332124345"><ele>214.6</ele><time>2026-04-12T14:40:01.999Z</time></trkpt><trkpt lat="45.86110346947669" lon="13.602553129900983"><ele>214.2</ele><time>2026-04-12T14:40:02.999Z</time></trkpt><trkpt lat="45.8611246026034" lon="13.602443972595708"><ele>213.8</ele><time>2026-04-12T14:40:03.999Z</time></trkpt><trkpt lat="45.861177317117416" lon="13.602265261764325"><ele>213.4</ele><time>2026-04-12T14:40:05.999Z</time></trkpt><trkpt lat="45.86123076677788" lon="13.602079725465504"><ele>213.0</ele><time>2026-04-12T14:40:07.999Z</time></trkpt><trkpt lat="45.86126129421194" lon="13.601962986149315"><ele>213.0</ele><time>2026-04-12T14:40:08.999Z</time></trkpt><trkpt lat="45.86127034813053" lon="13.601832235700769"><ele>213.0</ele><time>2026-04-12T14:40:09.999Z</time></trkpt><trkpt lat="45.86125484921764" lon="13.601691504528542"><ele>213.0</ele><time>2026-04-12T14:40:10.999Z</time></trkpt><trkpt lat="45.861255422472965" lon="13.601538978834592"><ele>213.0</ele><time>2026-04-12T14:40:11.999Z</time></trkpt><trkpt lat="45.86127390615787" lon="13.60140637234238"><ele>213.0</ele><time>2026-04-12T14:40:12.999Z</time></trkpt><trkpt lat="45.8612646002162" lon="13.601287031513458"><ele>213.0</ele><time>2026-04-12T14:40:13.999Z</time></trkpt><trkpt lat="45.86128767544878" lon="13.60116926910099"><ele>213.0</ele><time>2026-04-12T14:40:14.999Z</time></trkpt><trkpt lat="45.86129602345955" lon="13.601048223839129"><ele>213.0</ele><time>2026-04-12T14:40:15.999Z</time></trkpt><trkpt lat="45.86130446333101" lon="13.600926300142293"><ele>213.0</ele><time>2026-04-12T14:40:16.999Z</time></trkpt><trkpt lat="45.861297499333745" lon="13.600805315917686"><ele>213.0</ele><time>2026-04-12T14:40:17.999Z</time></trkpt><trkpt lat="45.8613105798245" lon="13.600682785431308"><ele>213.0</ele><time>2026-04-12T14:40:19Z</time></trkpt><trkpt lat="45.86131736838651" lon="13.60056069104413"><ele>213.2</ele><time>2026-04-12T14:40:20Z</time></trkpt><trkpt lat="45.86132524802742" lon="13.600431056781494"><ele>213.4</ele><time>2026-04-12T14:40:21Z</time></trkpt><trkpt lat="45.861335967364376" lon="13.600294084206705"><ele>213.59999999999997</ele><time>2026-04-12T14:40:22Z</time></trkpt><trkpt lat="45.861347185808945" lon="13.600158096533066"><ele>213.79999999999998</ele><time>2026-04-12T14:40:23Z</time></trkpt><trkpt lat="45.86136095307538" lon="13.600017973380293"><ele>214.0</ele><time>2026-04-12T14:40:24Z</time></trkpt><trkpt lat="45.86137859061279" lon="13.59987436383737"><ele>213.79999999999998</ele><time>2026-04-12T14:40:25Z</time></trkpt><trkpt lat="45.86140516888617" lon="13.599734019765673"><ele>213.59999999999997</ele><time>2026-04-12T14:40:26Z</time></trkpt><trkpt lat="45.86143660329639" lon="13.599595727574584"><ele>213.4</ele><time>2026-04-12T14:40:27Z</time></trkpt><trkpt lat="45.86147007428517" lon="13.599457607312477"><ele>213.2</ele><time>2026-04-12T14:40:28Z</time></trkpt><trkpt lat="45.86150590041621" lon="13.599324811814721"><ele>213.0</ele><time>2026-04-12T14:40:29Z</time></trkpt><trkpt lat="45.861541360690744" lon="13.599190259953359"><ele>213.0</ele><time>2026-04-12T14:40:30Z</time></trkpt><trkpt lat="45.86157532233946" lon="13.599059592772207"><ele>213.0</ele><time>2026-04-12T14:40:31Z</time></trkpt><trkpt lat="45.8616081130529" lon="13.598926580541502"><ele>213.0</ele><time>2026-04-12T14:40:32Z</time></trkpt><trkpt lat="45.86164622644915" lon="13.598797190653494"><ele>213.0</ele><time>2026-04-12T14:40:33Z</time></trkpt><trkpt lat="45.86166948273717" lon="13.59866489113694"><ele>213.0</ele><time>2026-04-12T14:40:34Z</time></trkpt><trkpt lat="45.861678006685146" lon="13.598524056411652"><ele>213.2</ele><time>2026-04-12T14:40:35Z</time></trkpt><trkpt lat="45.8616671963724" lon="13.598367361733516"><ele>213.4</ele><time>2026-04-12T14:40:36Z</time></trkpt><trkpt lat="45.8616391926305" lon="13.598207704561986"><ele>213.59999999999997</ele><time>2026-04-12T14:40:37Z</time></trkpt><trkpt lat="45.86159619004226" lon="13.598055372966604"><ele>213.79999999999998</ele><time>2026-04-12T14:40:38Z</time></trkpt><trkpt lat="45.86158490546193" lon="13.597906221413814"><ele>214.0</ele><time>2026-04-12T14:40:39Z</time></trkpt><trkpt lat="45.86157620304317" lon="13.59775458854524"><ele>213.0</ele><time>2026-04-12T14:40:40Z</time></trkpt><trkpt lat="45.861598957716474" lon="13.597600783430066"><ele>212.0</ele><time>2026-04-12T14:40:41Z</time></trkpt><trkpt lat="45.86161584914923" lon="13.59743773463605"><ele>211.0</ele><time>2026-04-12T14:40:42Z</time></trkpt><trkpt lat="45.86165889003907" lon="13.597280609444171"><ele>210.0</ele><time>2026-04-12T14:40:43Z</time></trkpt><trkpt lat="45.861689242284456" lon="13.597122400370532"><ele>209.25</ele><time>2026-04-12T14:40:44Z</time></trkpt><trkpt lat="45.861712825978564" lon="13.596956946725745"><ele>208.5</ele><time>2026-04-12T14:40:45Z</time></trkpt><trkpt lat="45.86173249438436" lon="13.596791901279676"><ele>207.75</ele><time>2026-04-12T14:40:46Z</time></trkpt><trkpt lat="45.86175239110127" lon="13.596627968444503"><ele>207.0</ele><time>2026-04-12T14:40:47Z</time></trkpt><trkpt lat="45.861777361002474" lon="13.596463801621605"><ele>207.6</ele><time>2026-04-12T14:40:48Z</time></trkpt><trkpt lat="45.86180778944765" lon="13.596311056578141"><ele>208.2</ele><time>2026-04-12T14:40:49Z</time></trkpt><trkpt lat="45.86184483469946" lon="13.596173048264022"><ele>208.8</ele><time>2026-04-12T14:40:50Z</time></trkpt><trkpt lat="45.861903846133195" lon="13.596056231305473"><ele>209.4</ele><time>2026-04-12T14:40:51Z</time></trkpt><trkpt lat="45.86195555801641" lon="13.595930918365232"><ele>210.0</ele><time>2026-04-12T14:40:52Z</time></trkpt><trkpt lat="45.86200135408983" lon="13.595789333976064"><ele>210.0</ele><time>2026-04-12T14:40:53Z</time></trkpt><trkpt lat="45.862068117092434" lon="13.595656046597988"><ele>210.0</ele><time>2026-04-12T14:40:54Z</time></trkpt><trkpt lat="45.86214060912172" lon="13.595523496815204"><ele>210.0</ele><time>2026-04-12T14:40:55Z</time></trkpt><trkpt lat="45.86220442846571" lon="13.595382797988425"><ele>210.0</ele><time>2026-04-12T14:40:56Z</time></trkpt><trkpt lat="45.862264274860365" lon="13.595233626587943"><ele>209.25</ele><time>2026-04-12T14:40:57Z</time></trkpt><trkpt lat="45.862333259167464" lon="13.5950885816756"><ele>208.5</ele><time>2026-04-12T14:40:58Z</time></trkpt><trkpt lat="45.86242066567903" lon="13.594958402447922"><ele>207.75</ele><time>2026-04-12T14:40:59Z</time></trkpt><trkpt lat="45.862491498196995" lon="13.594808157074544"><ele>207.0</ele><time>2026-04-12T14:41:00Z</time></trkpt><trkpt lat="45.86256866776481" lon="13.59467959511547"><ele>207.25</ele><time>2026-04-12T14:41:01Z</time></trkpt><trkpt lat="45.86263663979146" lon="13.594552079301039"><ele>207.5</ele><time>2026-04-12T14:41:02Z</time></trkpt><trkpt lat="45.862700134653814" lon="13.594410117319077"><ele>207.75</ele><time>2026-04-12T14:41:03Z</time></trkpt><trkpt lat="45.862758753031464" lon="13.594246173880153"><ele>208.0</ele><time>2026-04-12T14:41:04Z</time></trkpt><trkpt lat="45.8628187339828" lon="13.59408816594928"><ele>208.0</ele><time>2026-04-12T14:41:05Z</time></trkpt><trkpt lat="45.862882380050536" lon="13.593948973477843"><ele>208.0</ele><time>2026-04-12T14:41:06Z</time></trkpt><trkpt lat="45.86292784196973" lon="13.593807044282238"><ele>208.0</ele><time>2026-04-12T14:41:07Z</time></trkpt><trkpt lat="45.86302097822785" lon="13.593709057798987"><ele>208.0</ele><time>2026-04-12T14:41:08Z</time></trkpt><trkpt lat="45.863102195673555" lon="13.593573795229608"><ele>206.75</ele><time>2026-04-12T14:41:09Z</time></trkpt><trkpt lat="45.86318991918957" lon="13.593449986643012"><ele>205.5</ele><time>2026-04-12T14:41:10Z</time></trkpt><trkpt lat="45.86327150457624" lon="13.59331670263787"><ele>204.25</ele><time>2026-04-12T14:41:11Z</time></trkpt><trkpt lat="45.863344705584765" lon="13.593171520223551"><ele>203.0</ele><time>2026-04-12T14:41:12Z</time></trkpt><trkpt lat="45.863409996062785" lon="13.593008608257284"><ele>203.0</ele><time>2026-04-12T14:41:13Z</time></trkpt><trkpt lat="45.86347506083889" lon="13.592839100891126"><ele>203.0</ele><time>2026-04-12T14:41:14Z</time></trkpt><trkpt lat="45.863543737969536" lon="13.592689027846307"><ele>203.0</ele><time>2026-04-12T14:41:15Z</time></trkpt><trkpt lat="45.863614854953354" lon="13.592553351090778"><ele>203.0</ele><time>2026-04-12T14:41:16Z</time></trkpt><trkpt lat="45.86370079133137" lon="13.592432741546197"><ele>203.0</ele><time>2026-04-12T14:41:17Z</time></trkpt><trkpt lat="45.863784083826445" lon="13.592301125213956"><ele>203.0</ele><time>2026-04-12T14:41:18Z</time></trkpt><trkpt lat="45.86386705931798" lon="13.592162103187107"><ele>203.0</ele><time>2026-04-12T14:41:19Z</time></trkpt><trkpt lat="45.8639643312855" lon="13.592039472464421"><ele>203.0</ele><time>2026-04-12T14:41:20Z</time></trkpt><trkpt lat="45.864060560346864" lon="13.591913925184388"><ele>202.25</ele><time>2026-04-12T14:41:21Z</time></trkpt><trkpt lat="45.86414925693752" lon="13.591792884318814"><ele>201.5</ele><time>2026-04-12T14:41:22Z</time></trkpt><trkpt lat="45.86423498726468" lon="13.591674772053391"><ele>200.75</ele><time>2026-04-12T14:41:23Z</time></trkpt><trkpt lat="45.86431684343882" lon="13.591542615523073"><ele>200.0</ele><time>2026-04-12T14:41:24Z</time></trkpt><trkpt lat="45.8643913387437" lon="13.591374856884437"><ele>200.0</ele><time>2026-04-12T14:41:25Z</time></trkpt><trkpt lat="45.86448334294864" lon="13.591204924053502"><ele>200.0</ele><time>2026-04-12T14:41:26Z</time></trkpt><trkpt lat="45.86456251253518" lon="13.591020708166333"><ele>200.0</ele><time>2026-04-12T14:41:27Z</time></trkpt><trkpt lat="45.86462387114846" lon="13.59082621768683"><ele>200.0</ele><time>2026-04-12T14:41:28Z</time></trkpt><trkpt lat="45.86470386499194" lon="13.590659640321133"><ele>198.75</ele><time>2026-04-12T14:41:29Z</time></trkpt><trkpt lat="45.864764396310676" lon="13.590489323398756"><ele>197.5</ele><time>2026-04-12T14:41:30Z</time></trkpt><trkpt lat="45.864834730626264" lon="13.590327571049384"><ele>196.25</ele><time>2026-04-12T14:41:31Z</time></trkpt><trkpt lat="45.864891850920515" lon="13.590144676846277"><ele>195.0</ele><time>2026-04-12T14:41:32Z</time></trkpt><trkpt lat="45.86495290998676" lon="13.589971083506342"><ele>193.75</ele><time>2026-04-12T14:41:33Z</time></trkpt><trkpt lat="45.86500708630101" lon="13.589792558291204"><ele>192.5</ele><time>2026-04-12T14:41:34Z</time></trkpt><trkpt lat="45.86504682222863" lon="13.589611251286557"><ele>191.25</ele><time>2026-04-12T14:41:35Z</time></trkpt><trkpt lat="45.86507317905267" lon="13.58942431214526"><ele>190.0</ele><time>2026-04-12T14:41:36Z</time></trkpt><trkpt lat="45.865095348082136" lon="13.58923422332956"><ele>190.0</ele><time>2026-04-12T14:41:37Z</time></trkpt><trkpt lat="45.865136290292554" lon="13.589051674930769"><ele>190.0</ele><time>2026-04-12T14:41:38Z</time></trkpt><trkpt lat="45.86514051100207" lon="13.588855775691165"><ele>190.0</ele><time>2026-04-12T14:41:39Z</time></trkpt><trkpt lat="45.86514594852882" lon="13.588662579574702"><ele>190.0</ele><time>2026-04-12T14:41:40Z</time></trkpt><trkpt lat="45.86514397031967" lon="13.588467027268145"><ele>190.0</ele><time>2026-04-12T14:41:41Z</time></trkpt><trkpt lat="45.86513461909196" lon="13.588272615656102"><ele>190.0</ele><time>2026-04-12T14:41:42Z</time></trkpt><trkpt lat="45.86512552123317" lon="13.588077325752938"><ele>190.0</ele><time>2026-04-12T14:41:43Z</time></trkpt><trkpt lat="45.86512108264524" lon="13.587887692134473"><ele>190.0</ele><time>2026-04-12T14:41:44Z</time></trkpt><trkpt lat="45.86514372244114" lon="13.587697021038768"><ele>189.4</ele><time>2026-04-12T14:41:45Z</time></trkpt><trkpt lat="45.86516901288417" lon="13.587519262013263"><ele>188.8</ele><time>2026-04-12T14:41:46Z</time></trkpt><trkpt lat="45.865207297216266" lon="13.587360096534386"><ele>188.2</ele><time>2026-04-12T14:41:47Z</time></trkpt><trkpt lat="45.865249862847286" lon="13.587221739853431"><ele>187.6</ele><time>2026-04-12T14:41:48Z</time></trkpt><trkpt lat="45.86528011804904" lon="13.587117336363546"><ele>187.0</ele><time>2026-04-12T14:41:49Z</time></trkpt><trkpt lat="45.86532310805215" lon="13.586992758843506"><ele>186.6</ele><time>2026-04-12T14:41:51Z</time></trkpt><trkpt lat="45.8653541074733" lon="13.586913112602172"><ele>186.2</ele><time>2026-04-12T14:41:53.999Z</time></trkpt><trkpt lat="45.865213520817754" lon="13.586771063822827"><ele>185.8</ele><time>2026-04-12T14:41:55.999Z</time></trkpt><trkpt lat="45.865108564671594" lon="13.586714056161401"><ele>185.4</ele><time>2026-04-12T14:41:56.999Z</time></trkpt><trkpt lat="45.86502045370696" lon="13.586682655019267"><ele>185.0</ele><time>2026-04-12T14:41:57.999Z</time></trkpt><trkpt lat="45.864952286124314" lon="13.586659100976442"><ele>185.0</ele><time>2026-04-12T14:41:58.999Z</time></trkpt><trkpt lat="45.864909080817554" lon="13.58657563739315"><ele>185.0</ele><time>2026-04-12T14:42:00.999Z</time></trkpt><trkpt lat="45.86494242111922" lon="13.586495727066714"><ele>185.0</ele><time>2026-04-12T14:42:01.999Z</time></trkpt><trkpt lat="45.865023326840316" lon="13.586416965196015"><ele>185.0</ele><time>2026-04-12T14:42:02.999Z</time></trkpt><trkpt lat="45.86508419593474" lon="13.586334565210864"><ele>185.0</ele><time>2026-04-12T14:42:03.999Z</time></trkpt><trkpt lat="45.86514764919679" lon="13.586221002360197"><ele>185.0</ele><time>2026-04-12T14:42:04.999Z</time></trkpt><trkpt lat="45.86523017381515" lon="13.586123516148328"><ele>183.6</ele><time>2026-04-12T14:42:05.999Z</time></trkpt><trkpt lat="45.86530857036482" lon="13.586014468385695"><ele>182.2</ele><time>2026-04-12T14:42:06.999Z</time></trkpt><trkpt lat="45.865381034722716" lon="13.585908346494506"><ele>180.8</ele><time>2026-04-12T14:42:07.999Z</time></trkpt><trkpt lat="45.86544964891818" lon="13.585799592136642"><ele>179.4</ele><time>2026-04-12T14:42:08.999Z</time></trkpt><trkpt lat="45.86551419726022" lon="13.585692806591146"><ele>178.0</ele><time>2026-04-12T14:42:09.999Z</time></trkpt><trkpt lat="45.86557776491886" lon="13.585587643420657"><ele>178.0</ele><time>2026-04-12T14:42:10.999Z</time></trkpt><trkpt lat="45.865640420788466" lon="13.585483988513122"><ele>178.0</ele><time>2026-04-12T14:42:11.999Z</time></trkpt><trkpt lat="45.865700853047514" lon="13.58538401215886"><ele>178.0</ele><time>2026-04-12T14:42:12.999Z</time></trkpt><trkpt lat="45.865762564845475" lon="13.585281918906105"><ele>178.0</ele><time>2026-04-12T14:42:13.999Z</time></trkpt><trkpt lat="45.865831621123206" lon="13.585172918059293"><ele>178.0</ele><time>2026-04-12T14:42:14.999Z</time></trkpt><trkpt lat="45.865908622305355" lon="13.585058905792375"><ele>176.25</ele><time>2026-04-12T14:42:15.999Z</time></trkpt><trkpt lat="45.86599362238064" lon="13.584948048876983"><ele>174.5</ele><time>2026-04-12T14:42:16.999Z</time></trkpt><trkpt lat="45.86608849897431" lon="13.584842422518845"><ele>172.75</ele><time>2026-04-12T14:42:17.999Z</time></trkpt><trkpt lat="45.866195964683115" lon="13.58475891785315"><ele>171.0</ele><time>2026-04-12T14:42:18.999Z</time></trkpt><trkpt lat="45.86630292948388" lon="13.584702162404655"><ele>171.0</ele><time>2026-04-12T14:42:19.999Z</time></trkpt><trkpt lat="45.86640878669987" lon="13.584639761852328"><ele>171.0</ele><time>2026-04-12T14:42:20.999Z</time></trkpt><trkpt lat="45.866531961338666" lon="13.584631467868812"><ele>171.0</ele><time>2026-04-12T14:42:21.999Z</time></trkpt><trkpt lat="45.86666093443922" lon="13.58462984794409"><ele>171.0</ele><time>2026-04-12T14:42:22.999Z</time></trkpt><trkpt lat="45.86679303220212" lon="13.584628783171611"><ele>170.0</ele><time>2026-04-12T14:42:23.999Z</time></trkpt><trkpt lat="45.86692556915883" lon="13.584635441412669"><ele>169.0</ele><time>2026-04-12T14:42:25Z</time></trkpt><trkpt lat="45.86705110645514" lon="13.58464494179378"><ele>168.0</ele><time>2026-04-12T14:42:26Z</time></trkpt><trkpt lat="45.86717023568729" lon="13.584659401038971"><ele>167.0</ele><time>2026-04-12T14:42:27Z</time></trkpt><trkpt lat="45.86728137901627" lon="13.584686121240559"><ele>167.0</ele><time>2026-04-12T14:42:28Z</time></trkpt><trkpt lat="45.86739615995721" lon="13.58473025491962"><ele>167.0</ele><time>2026-04-12T14:42:29Z</time></trkpt><trkpt lat="45.867512072652595" lon="13.584773213927468"><ele>167.0</ele><time>2026-04-12T14:42:30Z</time></trkpt><trkpt lat="45.867623011403516" lon="13.584782897297131"><ele>167.0</ele><time>2026-04-12T14:42:31Z</time></trkpt><trkpt lat="45.867737082607256" lon="13.584763269826738"><ele>167.0</ele><time>2026-04-12T14:42:32Z</time></trkpt><trkpt lat="45.86785256713852" lon="13.584719468994304"><ele>167.0</ele><time>2026-04-12T14:42:33Z</time></trkpt><trkpt lat="45.86796665129275" lon="13.58466068072901"><ele>167.0</ele><time>2026-04-12T14:42:34Z</time></trkpt><trkpt lat="45.86807576545429" lon="13.584612131207598"><ele>167.0</ele><time>2026-04-12T14:42:35Z</time></trkpt><trkpt lat="45.86818723176788" lon="13.584567327222167"><ele>167.0</ele><time>2026-04-12T14:42:36Z</time></trkpt><trkpt lat="45.86829737901609" lon="13.584514528892099"><ele>167.0</ele><time>2026-04-12T14:42:37Z</time></trkpt><trkpt lat="45.86840271937224" lon="13.584434260396648"><ele>167.0</ele><time>2026-04-12T14:42:38Z</time></trkpt><trkpt lat="45.86851091038568" lon="13.584338268682131"><ele>167.0</ele><time>2026-04-12T14:42:39Z</time></trkpt><trkpt lat="45.86859008171944" lon="13.584193876366527"><ele>166.5</ele><time>2026-04-12T14:42:40Z</time></trkpt><trkpt lat="45.86866854372975" lon="13.584066273807103"><ele>166.0</ele><time>2026-04-12T14:42:41Z</time></trkpt><trkpt lat="45.868743499144514" lon="13.583931692388592"><ele>165.5</ele><time>2026-04-12T14:42:42Z</time></trkpt><trkpt lat="45.8688483576886" lon="13.583815797004457"><ele>165.0</ele><time>2026-04-12T14:42:43Z</time></trkpt><trkpt lat="45.86897750048179" lon="13.583722622523833"><ele>164.5</ele><time>2026-04-12T14:42:44Z</time></trkpt><trkpt lat="45.86910404058732" lon="13.583636919501274"><ele>164.0</ele><time>2026-04-12T14:42:45Z</time></trkpt><trkpt lat="45.86922255462136" lon="13.583562080517666"><ele>163.5</ele><time>2026-04-12T14:42:46Z</time></trkpt><trkpt lat="45.86933711206307" lon="13.583495139451344"><ele>163.0</ele><time>2026-04-12T14:42:47Z</time></trkpt><trkpt lat="45.86943894724463" lon="13.583398282504103"><ele>163.0</ele><time>2026-04-12T14:42:48Z</time></trkpt><trkpt lat="45.86951668190036" lon="13.58324524858789"><ele>163.0</ele><time>2026-04-12T14:42:49Z</time></trkpt><trkpt lat="45.869584854352105" lon="13.583066346000047"><ele>163.0</ele><time>2026-04-12T14:42:50Z</time></trkpt><trkpt lat="45.86963438780748" lon="13.582890940351197"><ele>163.0</ele><time>2026-04-12T14:42:51Z</time></trkpt><trkpt lat="45.86969237210781" lon="13.582733703151987"><ele>158.75</ele><time>2026-04-12T14:42:52Z</time></trkpt><trkpt lat="45.86975761404818" lon="13.582581878749314"><ele>154.5</ele><time>2026-04-12T14:42:53Z</time></trkpt><trkpt lat="45.869853296607474" lon="13.5824486465285"><ele>150.25</ele><time>2026-04-12T14:42:54Z</time></trkpt><trkpt lat="45.86995358281789" lon="13.58230680631868"><ele>146.0</ele><time>2026-04-12T14:42:55Z</time></trkpt><trkpt lat="45.87006526277043" lon="13.582181812771378"><ele>144.0</ele><time>2026-04-12T14:42:56Z</time></trkpt><trkpt lat="45.87014952874559" lon="13.582030474380613"><ele>142.0</ele><time>2026-04-12T14:42:57Z</time></trkpt><trkpt lat="45.870246309008856" lon="13.581905822242014"><ele>140.0</ele><time>2026-04-12T14:42:58Z</time></trkpt><trkpt lat="45.87032842551577" lon="13.581773283210264"><ele>138.0</ele><time>2026-04-12T14:42:59Z</time></trkpt><trkpt lat="45.87041337020813" lon="13.581644096290889"><ele>138.0</ele><time>2026-04-12T14:43:00Z</time></trkpt><trkpt lat="45.87050955087934" lon="13.581534590460567"><ele>138.0</ele><time>2026-04-12T14:43:01Z</time></trkpt><trkpt lat="45.87062108837726" lon="13.581442800968055"><ele>138.0</ele><time>2026-04-12T14:43:02Z</time></trkpt><trkpt lat="45.87074859105609" lon="13.581378565094274"><ele>138.0</ele><time>2026-04-12T14:43:03Z</time></trkpt><trkpt lat="45.87088580901859" lon="13.58133757790804"><ele>137.0</ele><time>2026-04-12T14:43:04Z</time></trkpt><trkpt lat="45.87102521726741" lon="13.581306874698036"><ele>136.0</ele><time>2026-04-12T14:43:05Z</time></trkpt><trkpt lat="45.87117033678383" lon="13.581288172492126"><ele>135.0</ele><time>2026-04-12T14:43:06Z</time></trkpt><trkpt lat="45.8713195122704" lon="13.581278625744053"><ele>134.0</ele><time>2026-04-12T14:43:07Z</time></trkpt><trkpt lat="45.8714689359567" lon="13.581275415619874"><ele>134.0</ele><time>2026-04-12T14:43:08Z</time></trkpt><trkpt lat="45.87161774354171" lon="13.581278401119674"><ele>134.0</ele><time>2026-04-12T14:43:09Z</time></trkpt><trkpt lat="45.871766626059205" lon="13.581282397975471"><ele>134.0</ele><time>2026-04-12T14:43:10Z</time></trkpt><trkpt lat="45.8719105143163" lon="13.581298192366981"><ele>134.0</ele><time>2026-04-12T14:43:11Z</time></trkpt><trkpt lat="45.8720444921494" lon="13.581319629772473"><ele>131.6</ele><time>2026-04-12T14:43:12Z</time></trkpt><trkpt lat="45.87215621790127" lon="13.581335159786462"><ele>129.2</ele><time>2026-04-12T14:43:13Z</time></trkpt><trkpt lat="45.872236375584315" lon="13.581334951154963"><ele>126.79999999999998</ele><time>2026-04-12T14:43:14Z</time></trkpt><trkpt lat="45.8723158223083" lon="13.58123867049605"><ele>124.39999999999999</ele><time>2026-04-12T14:43:16Z</time></trkpt><trkpt lat="45.872294601900066" lon="13.581132487134226"><ele>122.0</ele><time>2026-04-12T14:43:17Z</time></trkpt><trkpt lat="45.87217785627318" lon="13.581103023033249"><ele>120.0</ele><time>2026-04-12T14:43:18Z</time></trkpt><trkpt lat="45.87208451947549" lon="13.581081705303447"><ele>117.99999999999999</ele><time>2026-04-12T14:43:19Z</time></trkpt><trkpt lat="45.871975603338626" lon="13.581013145884079"><ele>115.99999999999999</ele><time>2026-04-12T14:43:20Z</time></trkpt><trkpt lat="45.8718711989695" lon="13.58092454021876"><ele>114.0</ele><time>2026-04-12T14:43:21Z</time></trkpt><trkpt lat="45.871770195433086" lon="13.580851454248075"><ele>112.0</ele><time>2026-04-12T14:43:22Z</time></trkpt><trkpt lat="45.87167927880703" lon="13.580777637200777"><ele>112.00000000000001</ele><time>2026-04-12T14:43:23Z</time></trkpt><trkpt lat="45.871581803561604" lon="13.580751695409482"><ele>112.0</ele><time>2026-04-12T14:43:24Z</time></trkpt><trkpt lat="45.87149773211395" lon="13.580711396029765"><ele>112.0</ele><time>2026-04-12T14:43:25Z</time></trkpt><trkpt lat="45.87140578855688" lon="13.580666475091238"><ele>112.0</ele><time>2026-04-12T14:43:27Z</time></trkpt><trkpt lat="45.87143707781711" lon="13.580559360251995"><ele>112.00000000000001</ele><time>2026-04-12T14:43:29Z</time></trkpt><trkpt lat="45.87151987661111" lon="13.580549440474746"><ele>112.0</ele><time>2026-04-12T14:43:30Z</time></trkpt><trkpt lat="45.87160957583669" lon="13.580584673914455"><ele>112.0</ele><time>2026-04-12T14:43:31Z</time></trkpt><trkpt lat="45.871715517687996" lon="13.580587079204841"><ele>111.99999999999999</ele><time>2026-04-12T14:43:32Z</time></trkpt><trkpt lat="45.87181934719479" lon="13.580556089857632"><ele>111.99999999999999</ele><time>2026-04-12T14:43:33Z</time></trkpt><trkpt lat="45.871912615080134" lon="13.580501634201653"><ele>112.0</ele><time>2026-04-12T14:43:34Z</time></trkpt><trkpt lat="45.87199882575855" lon="13.58043073726922"><ele>112.0</ele><time>2026-04-12T14:43:35Z</time></trkpt><trkpt lat="45.87208157429275" lon="13.58036363125691"><ele>108.0</ele><time>2026-04-12T14:43:36Z</time></trkpt><trkpt lat="45.872164597624995" lon="13.580301600948893"><ele>103.99999999999999</ele><time>2026-04-12T14:43:37Z</time></trkpt><trkpt lat="45.87224824963565" lon="13.580242043898632"><ele>100.0</ele><time>2026-04-12T14:43:38Z</time></trkpt><trkpt lat="45.87233795050785" lon="13.580183138159596"><ele>96.0</ele><time>2026-04-12T14:43:39Z</time></trkpt><trkpt lat="45.87243099455699" lon="13.580103729846504"><ele>92.0</ele><time>2026-04-12T14:43:40Z</time></trkpt><trkpt lat="45.87251387019128" lon="13.580019231741591"><ele>92.0</ele><time>2026-04-12T14:43:41Z</time></trkpt><trkpt lat="45.87259152565019" lon="13.579934014192217"><ele>92.0</ele><time>2026-04-12T14:43:42Z</time></trkpt><trkpt lat="45.872662819348776" lon="13.579848873194074"><ele>92.0</ele><time>2026-04-12T14:43:43Z</time></trkpt><trkpt lat="45.87273198775987" lon="13.579768852278898"><ele>92.0</ele><time>2026-04-12T14:43:44Z</time></trkpt><trkpt lat="45.872804633920445" lon="13.57970863317158"><ele>92.0</ele><time>2026-04-12T14:43:45Z</time></trkpt><trkpt lat="45.8728538552678" lon="13.579650667932668"><ele>92.0</ele><time>2026-04-12T14:43:46Z</time></trkpt><trkpt lat="45.87279995361048" lon="13.579455233364513"><ele>92.6</ele><time>2026-04-12T14:43:47Z</time></trkpt><trkpt lat="45.87275456126726" lon="13.57934159247762"><ele>93.19999999999999</ele><time>2026-04-12T14:43:49Z</time></trkpt><trkpt lat="45.87273288080934" lon="13.57924739787232"><ele>93.8</ele><time>2026-04-12T14:43:54Z</time></trkpt><trkpt lat="45.87270816899017" lon="13.579159156474573"><ele>94.4</ele><time>2026-04-12T14:43:55Z</time></trkpt><trkpt lat="45.872571405428346" lon="13.579118354240123"><ele>95.0</ele><time>2026-04-12T14:43:56Z</time></trkpt><trkpt lat="45.87248144947769" lon="13.579050397512772"><ele>96.5</ele><time>2026-04-12T14:43:57Z</time></trkpt><trkpt lat="45.8723726612572" lon="13.578961992513017"><ele>98.0</ele><time>2026-04-12T14:43:58Z</time></trkpt><trkpt lat="45.872262694520586" lon="13.578848076828903"><ele>99.5</ele><time>2026-04-12T14:43:59Z</time></trkpt><trkpt lat="45.872166424480646" lon="13.57870619107925"><ele>101.0</ele><time>2026-04-12T14:44:00Z</time></trkpt><trkpt lat="45.8720681931231" lon="13.5785555499296"><ele>101.0</ele><time>2026-04-12T14:44:01Z</time></trkpt><trkpt lat="45.871969006017274" lon="13.57839408105396"><ele>101.0</ele><time>2026-04-12T14:44:02Z</time></trkpt><trkpt lat="45.87187099464832" lon="13.578227337838968"><ele>101.0</ele><time>2026-04-12T14:44:03Z</time></trkpt><trkpt lat="45.871773442759114" lon="13.578066773863428"><ele>99.0</ele><time>2026-04-12T14:44:04Z</time></trkpt><trkpt lat="45.87167807008489" lon="13.5779129356138"><ele>97.0</ele><time>2026-04-12T14:44:05Z</time></trkpt><trkpt lat="45.87158268745126" lon="13.5777584144978"><ele>95.0</ele><time>2026-04-12T14:44:06Z</time></trkpt><trkpt lat="45.87148965263534" lon="13.577601142546493"><ele>93.0</ele><time>2026-04-12T14:44:07Z</time></trkpt><trkpt lat="45.87139742887837" lon="13.577442194461515"><ele>93.0</ele><time>2026-04-12T14:44:08Z</time></trkpt><trkpt lat="45.871304261011495" lon="13.577283400374702"><ele>93.0</ele><time>2026-04-12T14:44:09Z</time></trkpt><trkpt lat="45.87121435732918" lon="13.577121178723473"><ele>93.0</ele><time>2026-04-12T14:44:10Z</time></trkpt><trkpt lat="45.87112845998988" lon="13.576951868438215"><ele>93.0</ele><time>2026-04-12T14:44:11Z</time></trkpt><trkpt lat="45.87104099448442" lon="13.576783354219282"><ele>92.25</ele><time>2026-04-12T14:44:12Z</time></trkpt><trkpt lat="45.87095302840592" lon="13.57661393442596"><ele>91.5</ele><time>2026-04-12T14:44:13Z</time></trkpt><trkpt lat="45.870865164945826" lon="13.57644044169186"><ele>90.75</ele><time>2026-04-12T14:44:14Z</time></trkpt><trkpt lat="45.870773700984905" lon="13.576270104724731"><ele>90.0</ele><time>2026-04-12T14:44:14.999Z</time></trkpt><trkpt lat="45.87067898394578" lon="13.576104745992163"><ele>90.0</ele><time>2026-04-12T14:44:15.999Z</time></trkpt><trkpt lat="45.87058593408953" lon="13.575937319346373"><ele>90.0</ele><time>2026-04-12T14:44:16.999Z</time></trkpt><trkpt lat="45.87048959121467" lon="13.5757705069841"><ele>90.0</ele><time>2026-04-12T14:44:17.999Z</time></trkpt><trkpt lat="45.87038399752978" lon="13.575607684414138"><ele>90.0</ele><time>2026-04-12T14:44:18.999Z</time></trkpt><trkpt lat="45.87027713853982" lon="13.575448762287241"><ele>90.0</ele><time>2026-04-12T14:44:19.999Z</time></trkpt><trkpt lat="45.870170309356254" lon="13.575282895394297"><ele>90.0</ele><time>2026-04-12T14:44:20.999Z</time></trkpt><trkpt lat="45.87006661627619" lon="13.575116122429769"><ele>86.0</ele><time>2026-04-12T14:44:21.999Z</time></trkpt><trkpt lat="45.86996198580252" lon="13.574949414758905"><ele>82.0</ele><time>2026-04-12T14:44:22.999Z</time></trkpt><trkpt lat="45.86985396919855" lon="13.574789368771768"><ele>78.0</ele><time>2026-04-12T14:44:23.999Z</time></trkpt><trkpt lat="45.86974419646036" lon="13.574628642068566"><ele>82.66666666666667</ele><time>2026-04-12T14:44:24.999Z</time></trkpt><trkpt lat="45.86963685406502" lon="13.57446473206363"><ele>87.33333333333334</ele><time>2026-04-12T14:44:25.999Z</time></trkpt><trkpt lat="45.869530022591015" lon="13.574303009272507"><ele>92.0</ele><time>2026-04-12T14:44:26.999Z</time></trkpt><trkpt lat="45.86941959890745" lon="13.57413772318819"><ele>92.0</ele><time>2026-04-12T14:44:27.999Z</time></trkpt><trkpt lat="45.86931073530755" lon="13.573970803675705"><ele>92.0</ele><time>2026-04-12T14:44:28.999Z</time></trkpt><trkpt lat="45.8692025920512" lon="13.573801893254167"><ele>92.0</ele><time>2026-04-12T14:44:29.999Z</time></trkpt><trkpt lat="45.869093628307816" lon="13.573613998990847"><ele>90.33333333333334</ele><time>2026-04-12T14:44:31Z</time></trkpt><trkpt lat="45.86898262184073" lon="13.57340022128931"><ele>88.66666666666667</ele><time>2026-04-12T14:44:32Z</time></trkpt><trkpt lat="45.868880325040614" lon="13.573134561958154"><ele>87.0</ele><time>2026-04-12T14:44:33Z</time></trkpt><trkpt lat="45.868782714684784" lon="13.572828974105867"><ele>87.0</ele><time>2026-04-12T14:44:34Z</time></trkpt><trkpt lat="45.868687983434185" lon="13.57251974982974"><ele>87.0</ele><time>2026-04-12T14:44:35Z</time></trkpt><trkpt lat="45.86860945843063" lon="13.572259001494155"><ele>87.0</ele><time>2026-04-12T14:44:36Z</time></trkpt><trkpt lat="45.86854224342844" lon="13.572033341987785"><ele>87.33333333333333</ele><time>2026-04-12T14:44:37Z</time></trkpt><trkpt lat="45.86847445023062" lon="13.571814198341677"><ele>87.66666666666666</ele><time>2026-04-12T14:44:38Z</time></trkpt><trkpt lat="45.86840307976427" lon="13.57159219012603"><ele>88.0</ele><time>2026-04-12T14:44:39Z</time></trkpt><trkpt lat="45.86833008766288" lon="13.571365115017615"><ele>81.66666666666666</ele><time>2026-04-12T14:44:40Z</time></trkpt><trkpt lat="45.86826210168978" lon="13.571141360111637"><ele>75.33333333333333</ele><time>2026-04-12T14:44:41Z</time></trkpt><trkpt lat="45.86819560417969" lon="13.570929609704697"><ele>69.0</ele><time>2026-04-12T14:44:42Z</time></trkpt><trkpt lat="45.868132101663726" lon="13.57072732801826"><ele>69.0</ele><time>2026-04-12T14:44:43Z</time></trkpt><trkpt lat="45.8680749865299" lon="13.570536793563265"><ele>69.0</ele><time>2026-04-12T14:44:44Z</time></trkpt><trkpt lat="45.8680131625841" lon="13.57035782273132"><ele>69.0</ele><time>2026-04-12T14:44:45Z</time></trkpt><trkpt lat="45.86795633736325" lon="13.570207554162804"><ele>69.0</ele><time>2026-04-12T14:44:46Z</time></trkpt><trkpt lat="45.867920090150626" lon="13.570045548717186"><ele>67.75</ele><time>2026-04-12T14:44:47Z</time></trkpt><trkpt lat="45.867909443965544" lon="13.569854259843654"><ele>66.5</ele><time>2026-04-12T14:44:48Z</time></trkpt><trkpt lat="45.867905722911196" lon="13.56964509088034"><ele>65.25</ele><time>2026-04-12T14:44:49Z</time></trkpt><trkpt lat="45.86790549486915" lon="13.569442486007764"><ele>64.0</ele><time>2026-04-12T14:44:50Z</time></trkpt><trkpt lat="45.86791611872821" lon="13.56925004344398"><ele>63.25</ele><time>2026-04-12T14:44:51Z</time></trkpt><trkpt lat="45.86792854796343" lon="13.569066308999517"><ele>62.5</ele><time>2026-04-12T14:44:52Z</time></trkpt><trkpt lat="45.867939367130695" lon="13.568886273651568"><ele>61.75</ele><time>2026-04-12T14:44:53Z</time></trkpt><trkpt lat="45.86794864811656" lon="13.568706666843497"><ele>61.0</ele><time>2026-04-12T14:44:54Z</time></trkpt><trkpt lat="45.86795750587603" lon="13.568533038285544"><ele>60.75</ele><time>2026-04-12T14:44:55Z</time></trkpt><trkpt lat="45.86796760436941" lon="13.56836574006521"><ele>60.5</ele><time>2026-04-12T14:44:56Z</time></trkpt><trkpt lat="45.86797604179924" lon="13.568203019716483"><ele>60.25</ele><time>2026-04-12T14:44:57Z</time></trkpt><trkpt lat="45.86798733896946" lon="13.568033559864258"><ele>60.0</ele><time>2026-04-12T14:44:58Z</time></trkpt><trkpt lat="45.867998384732715" lon="13.56782403376028"><ele>60.66666666666667</ele><time>2026-04-12T14:44:59Z</time></trkpt><trkpt lat="45.8679892576155" lon="13.567590280390979"><ele>61.333333333333336</ele><time>2026-04-12T14:45:00Z</time></trkpt><trkpt lat="45.8679401216137" lon="13.567329490008325"><ele>62.0</ele><time>2026-04-12T14:45:01Z</time></trkpt><trkpt lat="45.867885002503286" lon="13.567044592313932"><ele>65.33333333333334</ele><time>2026-04-12T14:45:02Z</time></trkpt><trkpt lat="45.867823295629854" lon="13.566790392729251"><ele>68.66666666666667</ele><time>2026-04-12T14:45:03Z</time></trkpt><trkpt lat="45.867770619464885" lon="13.566539211592184"><ele>72.0</ele><time>2026-04-12T14:45:04Z</time></trkpt><trkpt lat="45.867734449060904" lon="13.566278225747618"><ele>73.33333333333333</ele><time>2026-04-12T14:45:05Z</time></trkpt><trkpt lat="45.867712136429375" lon="13.565997039125072"><ele>74.66666666666666</ele><time>2026-04-12T14:45:06Z</time></trkpt><trkpt lat="45.8677436266786" lon="13.56567704449716"><ele>76.0</ele><time>2026-04-12T14:45:07Z</time></trkpt><trkpt lat="45.86776483796534" lon="13.565388857802121"><ele>76.0</ele><time>2026-04-12T14:45:08Z</time></trkpt><trkpt lat="45.86778402349247" lon="13.565120706916964"><ele>76.0</ele><time>2026-04-12T14:45:09Z</time></trkpt><trkpt lat="45.86780578631923" lon="13.564868773632098"><ele>76.0</ele><time>2026-04-12T14:45:10Z</time></trkpt><trkpt lat="45.867830154689024" lon="13.564632590896988"><ele>74.33333333333333</ele><time>2026-04-12T14:45:11Z</time></trkpt><trkpt lat="45.86786112458096" lon="13.564418078471329"><ele>72.66666666666667</ele><time>2026-04-12T14:45:12Z</time></trkpt><trkpt lat="45.86789187192429" lon="13.564205621951684"><ele>71.0</ele><time>2026-04-12T14:45:13Z</time></trkpt><trkpt lat="45.86791320919616" lon="13.563980798217454"><ele>71.0</ele><time>2026-04-12T14:45:14Z</time></trkpt><trkpt lat="45.867951453030884" lon="13.563732355871922"><ele>71.0</ele><time>2026-04-12T14:45:15Z</time></trkpt><trkpt lat="45.86803781328147" lon="13.563491861976622"><ele>71.0</ele><time>2026-04-12T14:45:16Z</time></trkpt><trkpt lat="45.868147899773966" lon="13.563260849452998"><ele>70.0</ele><time>2026-04-12T14:45:17Z</time></trkpt><trkpt lat="45.868290980498685" lon="13.563014694935973"><ele>69.0</ele><time>2026-04-12T14:45:18Z</time></trkpt><trkpt lat="45.868425302105656" lon="13.562783226104171"><ele>68.0</ele><time>2026-04-12T14:45:19Z</time></trkpt><trkpt lat="45.86854612589021" lon="13.562562427837562"><ele>69.66666666666667</ele><time>2026-04-12T14:45:20Z</time></trkpt><trkpt lat="45.86863705106863" lon="13.562331211010136"><ele>71.33333333333333</ele><time>2026-04-12T14:45:21Z</time></trkpt><trkpt lat="45.86870140379357" lon="13.562064748946339"><ele>73.0</ele><time>2026-04-12T14:45:22Z</time></trkpt><trkpt lat="45.86874006075816" lon="13.561802692322265"><ele>73.0</ele><time>2026-04-12T14:45:23Z</time></trkpt><trkpt lat="45.868754820671896" lon="13.56149988440434"><ele>73.0</ele><time>2026-04-12T14:45:24Z</time></trkpt><trkpt lat="45.868722471855435" lon="13.561167778591061"><ele>73.0</ele><time>2026-04-12T14:45:25Z</time></trkpt><trkpt lat="45.86864803036805" lon="13.560832606794502"><ele>73.0</ele><time>2026-04-12T14:45:26Z</time></trkpt><trkpt lat="45.86852708863952" lon="13.56050773219797"><ele>73.0</ele><time>2026-04-12T14:45:27Z</time></trkpt><trkpt lat="45.86835208219685" lon="13.560218912980634"><ele>72.5</ele><time>2026-04-12T14:45:28Z</time></trkpt><trkpt lat="45.86813167479667" lon="13.559976896588157"><ele>72.0</ele><time>2026-04-12T14:45:29Z</time></trkpt><trkpt lat="45.86788575549198" lon="13.55974344248861"><ele>74.5</ele><time>2026-04-12T14:45:30Z</time></trkpt><trkpt lat="45.86763221557191" lon="13.559529445082324"><ele>77.0</ele><time>2026-04-12T14:45:31Z</time></trkpt><trkpt lat="45.86733150223514" lon="13.559378647670568"><ele>77.0</ele><time>2026-04-12T14:45:32Z</time></trkpt><trkpt lat="45.86704533773585" lon="13.559229669558665"><ele>77.0</ele><time>2026-04-12T14:45:33Z</time></trkpt><trkpt lat="45.86685287608139" lon="13.55903228528651"><ele>78.5</ele><time>2026-04-12T14:45:34Z</time></trkpt><trkpt lat="45.86667395238828" lon="13.558748093504022"><ele>80.0</ele><time>2026-04-12T14:45:35Z</time></trkpt><trkpt lat="45.86648562495083" lon="13.558414174906051"><ele>80.0</ele><time>2026-04-12T14:45:36Z</time></trkpt><trkpt lat="45.86631739099072" lon="13.558146620918121"><ele>80.0</ele><time>2026-04-12T14:45:37Z</time></trkpt><trkpt lat="45.866123018774196" lon="13.557931991233362"><ele>80.5</ele><time>2026-04-12T14:45:38Z</time></trkpt><trkpt lat="45.86588184139155" lon="13.557788046886074"><ele>81.0</ele><time>2026-04-12T14:45:39Z</time></trkpt><trkpt lat="45.865668925175854" lon="13.557674968966722"><ele>81.0</ele><time>2026-04-12T14:45:40Z</time></trkpt><trkpt lat="45.86546326725336" lon="13.557605375681835"><ele>81.0</ele><time>2026-04-12T14:45:41Z</time></trkpt><trkpt lat="45.8652678082746" lon="13.557572945822974"><ele>81.0</ele><time>2026-04-12T14:45:42Z</time></trkpt><trkpt lat="45.865090676303026" lon="13.557524954498273"><ele>81.0</ele><time>2026-04-12T14:45:43Z</time></trkpt><trkpt lat="45.864927500174424" lon="13.557474752953421"><ele>81.0</ele><time>2026-04-12T14:45:44Z</time></trkpt><trkpt lat="45.864781967851684" lon="13.557420411186209"><ele>81.0</ele><time>2026-04-12T14:45:45Z</time></trkpt><trkpt lat="45.8646492592316" lon="13.557362652612534"><ele>81.0</ele><time>2026-04-12T14:45:46Z</time></trkpt><trkpt lat="45.86452557894041" lon="13.557311078661254"><ele>81.0</ele><time>2026-04-12T14:45:47Z</time></trkpt><trkpt lat="45.86441244794567" lon="13.557269269514364"><ele>81.0</ele><time>2026-04-12T14:45:48Z</time></trkpt><trkpt lat="45.86430746608129" lon="13.557227659847456"><ele>81.0</ele><time>2026-04-12T14:45:49Z</time></trkpt><trkpt lat="45.864214559839304" lon="13.557191497907992"><ele>81.6</ele><time>2026-04-12T14:45:50Z</time></trkpt><trkpt lat="45.864130682927545" lon="13.557158173620149"><ele>82.19999999999999</ele><time>2026-04-12T14:45:51Z</time></trkpt><trkpt lat="45.8640410694893" lon="13.557122815084496"><ele>82.80000000000001</ele><time>2026-04-12T14:45:52Z</time></trkpt><trkpt lat="45.86394202325288" lon="13.55708260278917"><ele>83.4</ele><time>2026-04-12T14:45:53Z</time></trkpt><trkpt lat="45.86383835520847" lon="13.557040014808795"><ele>84.0</ele><time>2026-04-12T14:45:54Z</time></trkpt><trkpt lat="45.86372961314866" lon="13.556995717172228"><ele>85.25</ele><time>2026-04-12T14:45:55Z</time></trkpt><trkpt lat="45.86361717658945" lon="13.556955428277638"><ele>86.5</ele><time>2026-04-12T14:45:56Z</time></trkpt><trkpt lat="45.86350046296651" lon="13.556910378470464"><ele>87.75</ele><time>2026-04-12T14:45:57Z</time></trkpt><trkpt lat="45.86338444803944" lon="13.556865922236819"><ele>89.0</ele><time>2026-04-12T14:45:58Z</time></trkpt><trkpt lat="45.86326391122371" lon="13.55681936704034"><ele>89.25</ele><time>2026-04-12T14:45:59Z</time></trkpt><trkpt lat="45.86314194992723" lon="13.556770397908018"><ele>89.5</ele><time>2026-04-12T14:46:00Z</time></trkpt><trkpt lat="45.863020618193076" lon="13.55671697415014"><ele>89.75</ele><time>2026-04-12T14:46:01Z</time></trkpt><trkpt lat="45.86289840712786" lon="13.55667213841132"><ele>90.0</ele><time>2026-04-12T14:46:02Z</time></trkpt><trkpt lat="45.862769804723165" lon="13.556608582568485"><ele>90.0</ele><time>2026-04-12T14:46:03Z</time></trkpt><trkpt lat="45.86263477698127" lon="13.55653798382747"><ele>90.0</ele><time>2026-04-12T14:46:04Z</time></trkpt><trkpt lat="45.86251016994908" lon="13.556382391742089"><ele>90.0</ele><time>2026-04-12T14:46:05Z</time></trkpt><trkpt lat="45.86236740047586" lon="13.556158602197941"><ele>92.0</ele><time>2026-04-12T14:46:06Z</time></trkpt><trkpt lat="45.862264222360096" lon="13.555938394845786"><ele>94.0</ele><time>2026-04-12T14:46:07Z</time></trkpt><trkpt lat="45.86217197107229" lon="13.555760905531757"><ele>96.0</ele><time>2026-04-12T14:46:08Z</time></trkpt><trkpt lat="45.862087116675184" lon="13.555599260317322"><ele>96.0</ele><time>2026-04-12T14:46:09Z</time></trkpt><trkpt lat="45.86200388214602" lon="13.555445382716243"><ele>96.0</ele><time>2026-04-12T14:46:10Z</time></trkpt><trkpt lat="45.86191649280287" lon="13.555294265681217"><ele>96.0</ele><time>2026-04-12T14:46:11Z</time></trkpt><trkpt lat="45.86180973266993" lon="13.555150763415627"><ele>96.0</ele><time>2026-04-12T14:46:12Z</time></trkpt><trkpt lat="45.861672476330575" lon="13.555017788737672"><ele>98.0</ele><time>2026-04-12T14:46:13Z</time></trkpt><trkpt lat="45.86154912141725" lon="13.554850091120377"><ele>100.0</ele><time>2026-04-12T14:46:14Z</time></trkpt><trkpt lat="45.8614147559967" lon="13.554718593544878"><ele>102.0</ele><time>2026-04-12T14:46:15Z</time></trkpt><trkpt lat="45.86131360609143" lon="13.554563871031785"><ele>102.0</ele><time>2026-04-12T14:46:16Z</time></trkpt><trkpt lat="45.86122601409413" lon="13.554384520845685"><ele>102.0</ele><time>2026-04-12T14:46:17Z</time></trkpt><trkpt lat="45.861147837656986" lon="13.554142282833402"><ele>102.0</ele><time>2026-04-12T14:46:18Z</time></trkpt><trkpt lat="45.861063478100654" lon="13.553889293677129"><ele>102.33333333333334</ele><time>2026-04-12T14:46:19Z</time></trkpt><trkpt lat="45.86099421036441" lon="13.55365897898328"><ele>102.66666666666667</ele><time>2026-04-12T14:46:20Z</time></trkpt><trkpt lat="45.860929946226385" lon="13.553459109096341"><ele>103.0</ele><time>2026-04-12T14:46:21Z</time></trkpt><trkpt lat="45.86086745859745" lon="13.553265292844957"><ele>103.66666666666667</ele><time>2026-04-12T14:46:22Z</time></trkpt><trkpt lat="45.860776844459835" lon="13.553070293771626"><ele>104.33333333333334</ele><time>2026-04-12T14:46:23Z</time></trkpt><trkpt lat="45.860651968426374" lon="13.552896760252777"><ele>105.0</ele><time>2026-04-12T14:46:24Z</time></trkpt><trkpt lat="45.860516890587526" lon="13.552760134117936"><ele>105.25</ele><time>2026-04-12T14:46:25Z</time></trkpt><trkpt lat="45.86040792033319" lon="13.552624564204606"><ele>105.5</ele><time>2026-04-12T14:46:26Z</time></trkpt><trkpt lat="45.860304812831835" lon="13.552510384296507"><ele>105.75</ele><time>2026-04-12T14:46:27Z</time></trkpt><trkpt lat="45.860206422142824" lon="13.552398313379758"><ele>106.0</ele><time>2026-04-12T14:46:28Z</time></trkpt><trkpt lat="45.860114322235255" lon="13.552283587625398"><ele>106.19999999999999</ele><time>2026-04-12T14:46:29Z</time></trkpt><trkpt lat="45.86002071786878" lon="13.55218900004859"><ele>106.39999999999999</ele><time>2026-04-12T14:46:30Z</time></trkpt><trkpt lat="45.85995182651063" lon="13.552076118762233"><ele>106.6</ele><time>2026-04-12T14:46:30.999Z</time></trkpt><trkpt lat="45.85988852071066" lon="13.551970658389823"><ele>106.8</ele><time>2026-04-12T14:46:31.999Z</time></trkpt><trkpt lat="45.859819263428044" lon="13.551858957618286"><ele>107.0</ele><time>2026-04-12T14:46:32.999Z</time></trkpt><trkpt lat="45.859740640724375" lon="13.551736407149477"><ele>107.33333333333333</ele><time>2026-04-12T14:46:33.999Z</time></trkpt><trkpt lat="45.859640399549335" lon="13.551600147854227"><ele>107.66666666666666</ele><time>2026-04-12T14:46:34.999Z</time></trkpt><trkpt lat="45.8595231217989" lon="13.551466628488745"><ele>108.0</ele><time>2026-04-12T14:46:35.999Z</time></trkpt><trkpt lat="45.85938340873173" lon="13.551341243903758"><ele>106.66666666666666</ele><time>2026-04-12T14:46:37Z</time></trkpt><trkpt lat="45.85924581343752" lon="13.551218104631738"><ele>105.33333333333333</ele><time>2026-04-12T14:46:38Z</time></trkpt><trkpt lat="45.859098968767825" lon="13.551117580163808"><ele>104.0</ele><time>2026-04-12T14:46:39Z</time></trkpt><trkpt lat="45.85893026564559" lon="13.551031303779025"><ele>104.0</ele><time>2026-04-12T14:46:40Z</time></trkpt><trkpt lat="45.858760603588905" lon="13.550930232958132"><ele>104.0</ele><time>2026-04-12T14:46:41Z</time></trkpt><trkpt lat="45.858585471856856" lon="13.55085305616973"><ele>104.0</ele><time>2026-04-12T14:46:42Z</time></trkpt><trkpt lat="45.85842423985603" lon="13.550748119885402"><ele>104.0</ele><time>2026-04-12T14:46:43Z</time></trkpt><trkpt lat="45.85829142199688" lon="13.550590636117066"><ele>104.0</ele><time>2026-04-12T14:46:44Z</time></trkpt><trkpt lat="45.858179211222044" lon="13.55040040749543"><ele>104.0</ele><time>2026-04-12T14:46:45Z</time></trkpt><trkpt lat="45.85810236388482" lon="13.550176813360366"><ele>103.66666666666666</ele><time>2026-04-12T14:46:46Z</time></trkpt><trkpt lat="45.8580159937988" lon="13.54995272174409"><ele>103.33333333333334</ele><time>2026-04-12T14:46:47Z</time></trkpt><trkpt lat="45.85794345888048" lon="13.549731922761277"><ele>103.0</ele><time>2026-04-12T14:46:48Z</time></trkpt><trkpt lat="45.85785544934252" lon="13.549523107833757"><ele>103.0</ele><time>2026-04-12T14:46:49Z</time></trkpt><trkpt lat="45.85775375565895" lon="13.549328029610193"><ele>103.0</ele><time>2026-04-12T14:46:50Z</time></trkpt><trkpt lat="45.857631250032384" lon="13.549160484339218"><ele>103.0</ele><time>2026-04-12T14:46:51Z</time></trkpt><trkpt lat="45.857492223932084" lon="13.549017857439088"><ele>105.33333333333334</ele><time>2026-04-12T14:46:52Z</time></trkpt><trkpt lat="45.85736737762087" lon="13.548853030897037"><ele>107.66666666666666</ele><time>2026-04-12T14:46:53Z</time></trkpt><trkpt lat="45.85722401420471" lon="13.548720760955842"><ele>110.0</ele><time>2026-04-12T14:46:54Z</time></trkpt><trkpt lat="45.857091090002385" lon="13.548566039042033"><ele>109.66666666666666</ele><time>2026-04-12T14:46:55Z</time></trkpt><trkpt lat="45.856958130774956" lon="13.548420111441288"><ele>109.33333333333334</ele><time>2026-04-12T14:46:56Z</time></trkpt><trkpt lat="45.85682705597947" lon="13.548272527178511"><ele>109.0</ele><time>2026-04-12T14:46:57Z</time></trkpt><trkpt lat="45.85669637138074" lon="13.548127205342086"><ele>109.0</ele><time>2026-04-12T14:46:58Z</time></trkpt><trkpt lat="45.85656640494746" lon="13.547982314334636"><ele>109.0</ele><time>2026-04-12T14:46:59Z</time></trkpt><trkpt lat="45.856434953978884" lon="13.547835059571144"><ele>109.0</ele><time>2026-04-12T14:47:00Z</time></trkpt><trkpt lat="45.856302426478535" lon="13.547691117689682"><ele>109.66666666666667</ele><time>2026-04-12T14:47:01Z</time></trkpt><trkpt lat="45.85616587743957" lon="13.54754831257964"><ele>110.33333333333334</ele><time>2026-04-12T14:47:02Z</time></trkpt><trkpt lat="45.85603119966229" lon="13.547407181531726"><ele>111.0</ele><time>2026-04-12T14:47:03Z</time></trkpt><trkpt lat="45.855881658788036" lon="13.547297397053805"><ele>111.0</ele><time>2026-04-12T14:47:04Z</time></trkpt><trkpt lat="45.85571849023687" lon="13.547220550755338"><ele>111.0</ele><time>2026-04-12T14:47:05Z</time></trkpt><trkpt lat="45.85554820834933" lon="13.547151398711303"><ele>111.0</ele><time>2026-04-12T14:47:06Z</time></trkpt><trkpt lat="45.85539086050051" lon="13.547085881199923"><ele>111.33333333333334</ele><time>2026-04-12T14:47:07Z</time></trkpt><trkpt lat="45.85523256634315" lon="13.547032242029415"><ele>111.66666666666667</ele><time>2026-04-12T14:47:08Z</time></trkpt><trkpt lat="45.85507835000654" lon="13.546924237479775"><ele>112.0</ele><time>2026-04-12T14:47:09Z</time></trkpt><trkpt lat="45.854927077544396" lon="13.54678779046231"><ele>112.33333333333334</ele><time>2026-04-12T14:47:10Z</time></trkpt><trkpt lat="45.85476762805511" lon="13.546636429699824"><ele>112.66666666666666</ele><time>2026-04-12T14:47:11Z</time></trkpt><trkpt lat="45.85463909449167" lon="13.54647009892203"><ele>113.0</ele><time>2026-04-12T14:47:12Z</time></trkpt><trkpt lat="45.85453262254126" lon="13.546300117945199"><ele>112.33333333333333</ele><time>2026-04-12T14:47:13Z</time></trkpt><trkpt lat="45.85444014842709" lon="13.546098217810723"><ele>111.66666666666666</ele><time>2026-04-12T14:47:14Z</time></trkpt><trkpt lat="45.85435950323749" lon="13.545877981787434"><ele>111.0</ele><time>2026-04-12T14:47:15Z</time></trkpt><trkpt lat="45.85426996287919" lon="13.545657953383497"><ele>111.0</ele><time>2026-04-12T14:47:16Z</time></trkpt><trkpt lat="45.85419318248393" lon="13.54544325679372"><ele>111.0</ele><time>2026-04-12T14:47:17Z</time></trkpt><trkpt lat="45.85413918228308" lon="13.545214819767295"><ele>111.0</ele><time>2026-04-12T14:47:18Z</time></trkpt><trkpt lat="45.854093218972835" lon="13.544986700899027"><ele>110.66666666666666</ele><time>2026-04-12T14:47:19Z</time></trkpt><trkpt lat="45.85404478954328" lon="13.544755506478712"><ele>110.33333333333333</ele><time>2026-04-12T14:47:20Z</time></trkpt><trkpt lat="45.85401888034848" lon="13.544515890260767"><ele>110.0</ele><time>2026-04-12T14:47:21Z</time></trkpt><trkpt lat="45.85394903365985" lon="13.54429023413235"><ele>109.33333333333333</ele><time>2026-04-12T14:47:22Z</time></trkpt><trkpt lat="45.853847089962514" lon="13.544080045956791"><ele>108.66666666666666</ele><time>2026-04-12T14:47:23Z</time></trkpt><trkpt lat="45.85374415315964" lon="13.543862984386216"><ele>108.0</ele><time>2026-04-12T14:47:24Z</time></trkpt><trkpt lat="45.853636729128134" lon="13.543654391793387"><ele>107.66666666666666</ele><time>2026-04-12T14:47:25Z</time></trkpt><trkpt lat="45.85352498803588" lon="13.543454038758824"><ele>107.33333333333333</ele><time>2026-04-12T14:47:26Z</time></trkpt><trkpt lat="45.85341363999255" lon="13.543254989416052"><ele>107.0</ele><time>2026-04-12T14:47:27Z</time></trkpt><trkpt lat="45.85330425158758" lon="13.543053012272848"><ele>107.0</ele><time>2026-04-12T14:47:28Z</time></trkpt><trkpt lat="45.85319462565992" lon="13.542851974905217"><ele>107.0</ele><time>2026-04-12T14:47:29Z</time></trkpt><trkpt lat="45.85308495923637" lon="13.542654329120367"><ele>107.0</ele><time>2026-04-12T14:47:30Z</time></trkpt><trkpt lat="45.852980347005605" lon="13.542455574887768"><ele>107.0</ele><time>2026-04-12T14:47:31Z</time></trkpt><trkpt lat="45.85287590017819" lon="13.54225591915363"><ele>107.0</ele><time>2026-04-12T14:47:32Z</time></trkpt><trkpt lat="45.852756632508964" lon="13.54207889014276"><ele>107.0</ele><time>2026-04-12T14:47:33Z</time></trkpt><trkpt lat="45.852617509268406" lon="13.541923243857942"><ele>107.0</ele><time>2026-04-12T14:47:34Z</time></trkpt><trkpt lat="45.85249892688786" lon="13.541744940447298"><ele>107.0</ele><time>2026-04-12T14:47:35Z</time></trkpt><trkpt lat="45.852380544384424" lon="13.541564467590657"><ele>107.0</ele><time>2026-04-12T14:47:36Z</time></trkpt><trkpt lat="45.85225825707928" lon="13.541388873585976"><ele>107.33333333333333</ele><time>2026-04-12T14:47:37Z</time></trkpt><trkpt lat="45.85214809633284" lon="13.541204204469086"><ele>107.66666666666666</ele><time>2026-04-12T14:47:38Z</time></trkpt><trkpt lat="45.85203587281998" lon="13.541023713389405"><ele>108.0</ele><time>2026-04-12T14:47:39Z</time></trkpt><trkpt lat="45.85192885672197" lon="13.54083979723712"><ele>108.0</ele><time>2026-04-12T14:47:40Z</time></trkpt><trkpt lat="45.851824364005196" lon="13.540671955452103"><ele>108.0</ele><time>2026-04-12T14:47:41Z</time></trkpt><trkpt lat="45.85169440149571" lon="13.540541207865196"><ele>108.0</ele><time>2026-04-12T14:47:42Z</time></trkpt><trkpt lat="45.85151863371175" lon="13.540447034564005"><ele>107.66666666666666</ele><time>2026-04-12T14:47:43Z</time></trkpt><trkpt lat="45.851339785380134" lon="13.540348336798601"><ele>107.33333333333333</ele><time>2026-04-12T14:47:44Z</time></trkpt><trkpt lat="45.851185755802916" lon="13.540222471193783"><ele>107.0</ele><time>2026-04-12T14:47:45Z</time></trkpt><trkpt lat="45.85102959742032" lon="13.540139255583709"><ele>106.66666666666666</ele><time>2026-04-12T14:47:46Z</time></trkpt><trkpt lat="45.85088195897123" lon="13.540038944407861"><ele>106.33333333333334</ele><time>2026-04-12T14:47:47Z</time></trkpt><trkpt lat="45.85073759356034" lon="13.539939675020994"><ele>106.0</ele><time>2026-04-12T14:47:48Z</time></trkpt><trkpt lat="45.850592465584235" lon="13.539841711314478"><ele>106.0</ele><time>2026-04-12T14:47:49Z</time></trkpt><trkpt lat="45.85044059595799" lon="13.539757234427338"><ele>106.0</ele><time>2026-04-12T14:47:50Z</time></trkpt><trkpt lat="45.85028014589098" lon="13.539688159514315"><ele>106.0</ele><time>2026-04-12T14:47:51Z</time></trkpt><trkpt lat="45.85012058437947" lon="13.539595176298121"><ele>104.33333333333334</ele><time>2026-04-12T14:47:52Z</time></trkpt><trkpt lat="45.84995684867404" lon="13.539516161754674"><ele>102.66666666666666</ele><time>2026-04-12T14:47:53Z</time></trkpt><trkpt lat="45.849795819430796" lon="13.539464206109862"><ele>101.0</ele><time>2026-04-12T14:47:54Z</time></trkpt><trkpt lat="45.8496508271961" lon="13.539393989382706"><ele>101.0</ele><time>2026-04-12T14:47:55Z</time></trkpt><trkpt lat="45.84951276114818" lon="13.53932992989048"><ele>101.0</ele><time>2026-04-12T14:47:56Z</time></trkpt><trkpt lat="45.84937900006599" lon="13.539260693981284"><ele>101.0</ele><time>2026-04-12T14:47:57Z</time></trkpt><trkpt lat="45.849260788106946" lon="13.539166439279326"><ele>101.0</ele><time>2026-04-12T14:47:58Z</time></trkpt><trkpt lat="45.84914373806852" lon="13.539093406838887"><ele>101.0</ele><time>2026-04-12T14:47:59Z</time></trkpt><trkpt lat="45.84902744185536" lon="13.539046683671241"><ele>101.0</ele><time>2026-04-12T14:48:00Z</time></trkpt><trkpt lat="45.84891905025894" lon="13.538973904630243"><ele>101.0</ele><time>2026-04-12T14:48:01Z</time></trkpt><trkpt lat="45.848809285282314" lon="13.53890139694976"><ele>101.0</ele><time>2026-04-12T14:48:02Z</time></trkpt><trkpt lat="45.84868415804249" lon="13.538870873591089"><ele>101.0</ele><time>2026-04-12T14:48:03Z</time></trkpt><trkpt lat="45.84855116953164" lon="13.538861507051358"><ele>101.0</ele><time>2026-04-12T14:48:04Z</time></trkpt><trkpt lat="45.84841626089309" lon="13.538877814472384"><ele>101.0</ele><time>2026-04-12T14:48:05Z</time></trkpt><trkpt lat="45.84827941329727" lon="13.538913967118665"><ele>101.0</ele><time>2026-04-12T14:48:06Z</time></trkpt><trkpt lat="45.848141695157906" lon="13.538932435526283"><ele>100.75</ele><time>2026-04-12T14:48:07Z</time></trkpt><trkpt lat="45.84800682250882" lon="13.538926340575916"><ele>100.5</ele><time>2026-04-12T14:48:08Z</time></trkpt><trkpt lat="45.84787398892705" lon="13.538921596283487"><ele>100.25</ele><time>2026-04-12T14:48:09Z</time></trkpt><trkpt lat="45.84774962372553" lon="13.538917504152376"><ele>100.0</ele><time>2026-04-12T14:48:10Z</time></trkpt><trkpt lat="45.847632251596096" lon="13.538913008776305"><ele>99.75</ele><time>2026-04-12T14:48:11Z</time></trkpt><trkpt lat="45.84751559280295" lon="13.53892700794331"><ele>99.5</ele><time>2026-04-12T14:48:12Z</time></trkpt><trkpt lat="45.84739356077826" lon="13.538931821465175"><ele>99.25</ele><time>2026-04-12T14:48:13Z</time></trkpt><trkpt lat="45.84726906653804" lon="13.538938050172321"><ele>99.0</ele><time>2026-04-12T14:48:14Z</time></trkpt><trkpt lat="45.847138641124424" lon="13.538946244687128"><ele>99.0</ele><time>2026-04-12T14:48:15Z</time></trkpt><trkpt lat="45.847005806015765" lon="13.538958040145609"><ele>99.0</ele><time>2026-04-12T14:48:16Z</time></trkpt><trkpt lat="45.84687110637501" lon="13.538976540133081"><ele>99.0</ele><time>2026-04-12T14:48:17Z</time></trkpt><trkpt lat="45.84674197763037" lon="13.539001854314655"><ele>99.0</ele><time>2026-04-12T14:48:18Z</time></trkpt><trkpt lat="45.84661382316674" lon="13.539031662016763"><ele>99.0</ele><time>2026-04-12T14:48:19Z</time></trkpt><trkpt lat="45.846484876455875" lon="13.539064724255164"><ele>99.0</ele><time>2026-04-12T14:48:20Z</time></trkpt><trkpt lat="45.846353826019524" lon="13.539117694402053"><ele>99.0</ele><time>2026-04-12T14:48:21Z</time></trkpt><trkpt lat="45.84623409086786" lon="13.53919913910108"><ele>99.0</ele><time>2026-04-12T14:48:22Z</time></trkpt><trkpt lat="45.84612457884601" lon="13.539306203838235"><ele>99.0</ele><time>2026-04-12T14:48:23Z</time></trkpt><trkpt lat="45.84602221185248" lon="13.539432165323467"><ele>99.0</ele><time>2026-04-12T14:48:24Z</time></trkpt><trkpt lat="45.84592967355883" lon="13.53957429158444"><ele>99.0</ele><time>2026-04-12T14:48:25Z</time></trkpt><trkpt lat="45.84583724364535" lon="13.539722412049477"><ele>99.0</ele><time>2026-04-12T14:48:26Z</time></trkpt><trkpt lat="45.845724824003035" lon="13.539842566093887"><ele>98.75</ele><time>2026-04-12T14:48:27Z</time></trkpt><trkpt lat="45.84559702918165" lon="13.539925776118693"><ele>98.5</ele><time>2026-04-12T14:48:28Z</time></trkpt><trkpt lat="45.845468658964" lon="13.540001078031684"><ele>98.25</ele><time>2026-04-12T14:48:29Z</time></trkpt><trkpt lat="45.84534303225292" lon="13.540072441359472"><ele>98.0</ele><time>2026-04-12T14:48:30Z</time></trkpt><trkpt lat="45.84521976501221" lon="13.540142391037971"><ele>97.75</ele><time>2026-04-12T14:48:31Z</time></trkpt><trkpt lat="45.84509634117125" lon="13.540208439928044"><ele>97.5</ele><time>2026-04-12T14:48:32Z</time></trkpt><trkpt lat="45.84497168163619" lon="13.54026373258455"><ele>97.25</ele><time>2026-04-12T14:48:33Z</time></trkpt><trkpt lat="45.84484163205769" lon="13.540287938417743"><ele>97.0</ele><time>2026-04-12T14:48:34Z</time></trkpt><trkpt lat="45.84470635180778" lon="13.540266076197339"><ele>97.0</ele><time>2026-04-12T14:48:34.999Z</time></trkpt><trkpt lat="45.84457228575778" lon="13.540201546998803"><ele>97.0</ele><time>2026-04-12T14:48:35.999Z</time></trkpt><trkpt lat="45.84443289728348" lon="13.540177442851956"><ele>97.0</ele><time>2026-04-12T14:48:36.999Z</time></trkpt><trkpt lat="45.84428536867648" lon="13.5402042804371"><ele>97.0</ele><time>2026-04-12T14:48:37.999Z</time></trkpt><trkpt lat="45.84413788446822" lon="13.540229411342338"><ele>96.0</ele><time>2026-04-12T14:48:38.999Z</time></trkpt><trkpt lat="45.844000206631286" lon="13.540241032031947"><ele>95.0</ele><time>2026-04-12T14:48:39.999Z</time></trkpt><trkpt lat="45.843867442178784" lon="13.540244113677005"><ele>94.0</ele><time>2026-04-12T14:48:40.999Z</time></trkpt><trkpt lat="45.84373770107697" lon="13.540247446115936"><ele>93.0</ele><time>2026-04-12T14:48:41.999Z</time></trkpt><trkpt lat="45.84361763048237" lon="13.540242725392888"><ele>93.0</ele><time>2026-04-12T14:48:43Z</time></trkpt><trkpt lat="45.84350652145823" lon="13.540186078502746"><ele>93.0</ele><time>2026-04-12T14:48:44Z</time></trkpt><trkpt lat="45.84340973776928" lon="13.540080743336793"><ele>93.0</ele><time>2026-04-12T14:48:45Z</time></trkpt><trkpt lat="45.84332003006231" lon="13.539952189480816"><ele>93.0</ele><time>2026-04-12T14:48:46Z</time></trkpt><trkpt lat="45.8432406974111" lon="13.539792399354127"><ele>92.75</ele><time>2026-04-12T14:48:47Z</time></trkpt><trkpt lat="45.843153912256376" lon="13.53964248468938"><ele>92.5</ele><time>2026-04-12T14:48:48Z</time></trkpt><trkpt lat="45.84307307375957" lon="13.539497707542814"><ele>92.25</ele><time>2026-04-12T14:48:49Z</time></trkpt><trkpt lat="45.84301550056169" lon="13.539334891655793"><ele>92.0</ele><time>2026-04-12T14:48:50Z</time></trkpt><trkpt lat="45.84298929333414" lon="13.539154289656429"><ele>90.75</ele><time>2026-04-12T14:48:51Z</time></trkpt><trkpt lat="45.84294650152766" lon="13.538979221154312"><ele>89.5</ele><time>2026-04-12T14:48:52Z</time></trkpt><trkpt lat="45.84285899394897" lon="13.538819275849027"><ele>88.25</ele><time>2026-04-12T14:48:53Z</time></trkpt><trkpt lat="45.84275076680392" lon="13.538678581149568"><ele>87.0</ele><time>2026-04-12T14:48:54Z</time></trkpt><trkpt lat="45.84264328076523" lon="13.53856326274314"><ele>86.25</ele><time>2026-04-12T14:48:55Z</time></trkpt><trkpt lat="45.84255571860603" lon="13.538416944140222"><ele>85.5</ele><time>2026-04-12T14:48:56Z</time></trkpt><trkpt lat="45.842503727735675" lon="13.538226134461476"><ele>84.75</ele><time>2026-04-12T14:48:57Z</time></trkpt><trkpt lat="45.84248697086906" lon="13.538015569827952"><ele>84.0</ele><time>2026-04-12T14:48:58Z</time></trkpt><trkpt lat="45.84248091872376" lon="13.53780207064629"><ele>83.25</ele><time>2026-04-12T14:48:59Z</time></trkpt><trkpt lat="45.84246443533794" lon="13.537605795904277"><ele>82.5</ele><time>2026-04-12T14:49:00Z</time></trkpt><trkpt lat="45.842439247819854" lon="13.537418070469759"><ele>81.75</ele><time>2026-04-12T14:49:01Z</time></trkpt><trkpt lat="45.84239822678422" lon="13.537244488411323"><ele>81.0</ele><time>2026-04-12T14:49:02Z</time></trkpt><trkpt lat="45.84235246945163" lon="13.53708136430271"><ele>80.5</ele><time>2026-04-12T14:49:03Z</time></trkpt><trkpt lat="45.842301354686185" lon="13.536927443352972"><ele>80.0</ele><time>2026-04-12T14:49:04Z</time></trkpt><trkpt lat="45.84224330980964" lon="13.53677299056298"><ele>79.5</ele><time>2026-04-12T14:49:05Z</time></trkpt><trkpt lat="45.842184418756176" lon="13.536618119289587"><ele>79.0</ele><time>2026-04-12T14:49:06Z</time></trkpt><trkpt lat="45.84212106925476" lon="13.536460088173076"><ele>79.0</ele><time>2026-04-12T14:49:07Z</time></trkpt><trkpt lat="45.842054356531044" lon="13.536302043212112"><ele>79.0</ele><time>2026-04-12T14:49:08Z</time></trkpt><trkpt lat="45.841984638222996" lon="13.536145618640296"><ele>79.0</ele><time>2026-04-12T14:49:09Z</time></trkpt><trkpt lat="45.841911297502406" lon="13.535994056101185"><ele>79.0</ele><time>2026-04-12T14:49:10Z</time></trkpt><trkpt lat="45.84182940299514" lon="13.53585225043289"><ele>78.75</ele><time>2026-04-12T14:49:11Z</time></trkpt><trkpt lat="45.84173760332346" lon="13.535720530319686"><ele>78.5</ele><time>2026-04-12T14:49:12Z</time></trkpt><trkpt lat="45.841643861524545" lon="13.53559101989654"><ele>78.25</ele><time>2026-04-12T14:49:13Z</time></trkpt><trkpt lat="45.84154824624075" lon="13.535466012304633"><ele>78.0</ele><time>2026-04-12T14:49:14Z</time></trkpt><trkpt lat="45.841454791718164" lon="13.535335265817794"><ele>78.0</ele><time>2026-04-12T14:49:15Z</time></trkpt><trkpt lat="45.841379450050844" lon="13.535180086401743"><ele>78.0</ele><time>2026-04-12T14:49:16Z</time></trkpt><trkpt lat="45.84132694454054" lon="13.535002773008006"><ele>78.0</ele><time>2026-04-12T14:49:17Z</time></trkpt><trkpt lat="45.84129774502186" lon="13.534809445993691"><ele>78.0</ele><time>2026-04-12T14:49:18Z</time></trkpt><trkpt lat="45.84127413327981" lon="13.53462073429826"><ele>77.5</ele><time>2026-04-12T14:49:19Z</time></trkpt><trkpt lat="45.84124606367762" lon="13.534438479337089"><ele>77.0</ele><time>2026-04-12T14:49:20Z</time></trkpt><trkpt lat="45.84122474301658" lon="13.534262373398397"><ele>76.5</ele><time>2026-04-12T14:49:21Z</time></trkpt><trkpt lat="45.84121736886229" lon="13.534086287058976"><ele>76.0</ele><time>2026-04-12T14:49:22Z</time></trkpt><trkpt lat="45.841211971967" lon="13.533905007643847"><ele>76.0</ele><time>2026-04-12T14:49:23Z</time></trkpt><trkpt lat="45.841189876277745" lon="13.533717102759436"><ele>76.0</ele><time>2026-04-12T14:49:24Z</time></trkpt><trkpt lat="45.84113124336204" lon="13.533533360583135"><ele>76.0</ele><time>2026-04-12T14:49:25Z</time></trkpt><trkpt lat="45.841061338188666" lon="13.533350662413936"><ele>76.0</ele><time>2026-04-12T14:49:26Z</time></trkpt><trkpt lat="45.840996111901696" lon="13.533173413765164"><ele>75.75</ele><time>2026-04-12T14:49:27Z</time></trkpt><trkpt lat="45.84093274125774" lon="13.532996172459326"><ele>75.5</ele><time>2026-04-12T14:49:28Z</time></trkpt><trkpt lat="45.84086841561055" lon="13.532820955238186"><ele>75.25</ele><time>2026-04-12T14:49:29Z</time></trkpt><trkpt lat="45.840803204466994" lon="13.532650255756971"><ele>75.0</ele><time>2026-04-12T14:49:30Z</time></trkpt><trkpt lat="45.84073890248853" lon="13.532482192169185"><ele>75.0</ele><time>2026-04-12T14:49:31Z</time></trkpt><trkpt lat="45.84067504329003" lon="13.532314067792107"><ele>75.0</ele><time>2026-04-12T14:49:32Z</time></trkpt><trkpt lat="45.84061082643823" lon="13.53214300196552"><ele>75.0</ele><time>2026-04-12T14:49:33Z</time></trkpt><trkpt lat="45.840548590431" lon="13.531967907743299"><ele>75.0</ele><time>2026-04-12T14:49:34Z</time></trkpt><trkpt lat="45.84048426090468" lon="13.531791981034264"><ele>75.25</ele><time>2026-04-12T14:49:35Z</time></trkpt><trkpt lat="45.84041085657124" lon="13.531615381050441"><ele>75.5</ele><time>2026-04-12T14:49:36Z</time></trkpt><trkpt lat="45.840329918698146" lon="13.531440015365577"><ele>75.75</ele><time>2026-04-12T14:49:37Z</time></trkpt><trkpt lat="45.840237416823115" lon="13.531269825956874"><ele>76.0</ele><time>2026-04-12T14:49:38Z</time></trkpt><trkpt lat="45.84013119927901" lon="13.531093247313152"><ele>75.33333333333333</ele><time>2026-04-12T14:49:39Z</time></trkpt><trkpt lat="45.84004520222057" lon="13.530883910546283"><ele>74.66666666666667</ele><time>2026-04-12T14:49:40Z</time></trkpt><trkpt lat="45.839999249977026" lon="13.530638358633272"><ele>74.0</ele><time>2026-04-12T14:49:41Z</time></trkpt><trkpt lat="45.83997017614899" lon="13.530394319050156"><ele>74.66666666666667</ele><time>2026-04-12T14:49:42Z</time></trkpt><trkpt lat="45.83993539210219" lon="13.53015778274022"><ele>75.33333333333333</ele><time>2026-04-12T14:49:43Z</time></trkpt><trkpt lat="45.83989987521068" lon="13.529934384274894"><ele>76.0</ele><time>2026-04-12T14:49:44Z</time></trkpt><trkpt lat="45.839866172589154" lon="13.52973446665931"><ele>77.0</ele><time>2026-04-12T14:49:45Z</time></trkpt><trkpt lat="45.8398363960229" lon="13.529547079829403"><ele>78.0</ele><time>2026-04-12T14:49:46Z</time></trkpt><trkpt lat="45.8397897914551" lon="13.529376814946549"><ele>79.0</ele><time>2026-04-12T14:49:47Z</time></trkpt><trkpt lat="45.83969520368257" lon="13.52922792733733"><ele>80.0</ele><time>2026-04-12T14:49:48Z</time></trkpt><trkpt lat="45.839556958064186" lon="13.529103374790274"><ele>80.0</ele><time>2026-04-12T14:49:49Z</time></trkpt><trkpt lat="45.83943600167511" lon="13.528941206442797"><ele>80.0</ele><time>2026-04-12T14:49:50Z</time></trkpt><trkpt lat="45.839309237783766" lon="13.528781060112586"><ele>80.0</ele><time>2026-04-12T14:49:51Z</time></trkpt><trkpt lat="45.839204843354565" lon="13.52860110065811"><ele>81.0</ele><time>2026-04-12T14:49:52Z</time></trkpt><trkpt lat="45.839096791200255" lon="13.528432075167164"><ele>82.0</ele><time>2026-04-12T14:49:53Z</time></trkpt><trkpt lat="45.83899182983441" lon="13.528267052295536"><ele>83.0</ele><time>2026-04-12T14:49:54Z</time></trkpt><trkpt lat="45.83889029086958" lon="13.528108650040492"><ele>83.0</ele><time>2026-04-12T14:49:55Z</time></trkpt><trkpt lat="45.83878932937561" lon="13.527947758672138"><ele>83.0</ele><time>2026-04-12T14:49:56Z</time></trkpt><trkpt lat="45.83868977350581" lon="13.527801792114849"><ele>83.0</ele><time>2026-04-12T14:49:57Z</time></trkpt><trkpt lat="45.83859869576487" lon="13.527652087024467"><ele>83.0</ele><time>2026-04-12T14:49:58Z</time></trkpt><trkpt lat="45.83852420740882" lon="13.527483323852499"><ele>82.33333333333334</ele><time>2026-04-12T14:49:59Z</time></trkpt><trkpt lat="45.83846295475868" lon="13.527277775631287"><ele>81.66666666666667</ele><time>2026-04-12T14:50:00Z</time></trkpt><trkpt lat="45.838407301876515" lon="13.527058922090786"><ele>81.0</ele><time>2026-04-12T14:50:01Z</time></trkpt><trkpt lat="45.838351729413304" lon="13.526840616914892"><ele>80.33333333333333</ele><time>2026-04-12T14:50:02Z</time></trkpt><trkpt lat="45.83829237987586" lon="13.526622928860242"><ele>79.66666666666666</ele><time>2026-04-12T14:50:03Z</time></trkpt><trkpt lat="45.83822852151311" lon="13.52640546597024"><ele>79.0</ele><time>2026-04-12T14:50:04Z</time></trkpt><trkpt lat="45.83816276154036" lon="13.526188072356637"><ele>78.66666666666666</ele><time>2026-04-12T14:50:05Z</time></trkpt><trkpt lat="45.838098630370034" lon="13.52597001154693"><ele>78.33333333333333</ele><time>2026-04-12T14:50:06Z</time></trkpt><trkpt lat="45.83803381906822" lon="13.525749406043"><ele>78.0</ele><time>2026-04-12T14:50:07Z</time></trkpt><trkpt lat="45.837967277580155" lon="13.525526316896615"><ele>77.0</ele><time>2026-04-12T14:50:08Z</time></trkpt><trkpt lat="45.83789003796267" lon="13.525313317543635"><ele>76.0</ele><time>2026-04-12T14:50:09Z</time></trkpt><trkpt lat="45.83778176287696" lon="13.525123691413626"><ele>75.0</ele><time>2026-04-12T14:50:10Z</time></trkpt><trkpt lat="45.837630648129" lon="13.524969322895453"><ele>75.0</ele><time>2026-04-12T14:50:11Z</time></trkpt><trkpt lat="45.83747441824265" lon="13.524829816749921"><ele>75.0</ele><time>2026-04-12T14:50:12Z</time></trkpt><trkpt lat="45.837342479247084" lon="13.524681103218004"><ele>75.0</ele><time>2026-04-12T14:50:13Z</time></trkpt><trkpt lat="45.83722734945472" lon="13.524516944529168"><ele>75.0</ele><time>2026-04-12T14:50:14Z</time></trkpt><trkpt lat="45.837148117765494" lon="13.52433471782721"><ele>75.0</ele><time>2026-04-12T14:50:15Z</time></trkpt><trkpt lat="45.83706528460843" lon="13.524181243437923"><ele>75.0</ele><time>2026-04-12T14:50:16Z</time></trkpt><trkpt lat="45.83701764519108" lon="13.524052896999594"><ele>75.0</ele><time>2026-04-12T14:50:17Z</time></trkpt><trkpt lat="45.83693835929367" lon="13.523977534019645"><ele>75.0</ele><time>2026-04-12T14:50:18Z</time></trkpt><trkpt lat="45.836833700168896" lon="13.523972783319511"><ele>75.0</ele><time>2026-04-12T14:50:19Z</time></trkpt><trkpt lat="45.83671166916573" lon="13.524008527674507"><ele>75.0</ele><time>2026-04-12T14:50:20Z</time></trkpt><trkpt lat="45.836602560139504" lon="13.524080177059592"><ele>75.0</ele><time>2026-04-12T14:50:21Z</time></trkpt><trkpt lat="45.836498955154326" lon="13.524151529941834"><ele>74.25</ele><time>2026-04-12T14:50:22Z</time></trkpt><trkpt lat="45.83638857020844" lon="13.524220369372445"><ele>73.5</ele><time>2026-04-12T14:50:23Z</time></trkpt><trkpt lat="45.836269519237995" lon="13.52428104499055"><ele>72.75</ele><time>2026-04-12T14:50:24Z</time></trkpt><trkpt lat="45.83614775964524" lon="13.52434981978999"><ele>72.0</ele><time>2026-04-12T14:50:25Z</time></trkpt><trkpt lat="45.836020978859544" lon="13.524424184320454"><ele>71.5</ele><time>2026-04-12T14:50:26Z</time></trkpt><trkpt lat="45.83589398735933" lon="13.524492156155823"><ele>71.0</ele><time>2026-04-12T14:50:27Z</time></trkpt><trkpt lat="45.835771308344604" lon="13.524525568421875"><ele>70.5</ele><time>2026-04-12T14:50:28Z</time></trkpt><trkpt lat="45.835641878762374" lon="13.52455373147032"><ele>70.0</ele><time>2026-04-12T14:50:29Z</time></trkpt><trkpt lat="45.835497513644306" lon="13.524533612316858"><ele>70.0</ele><time>2026-04-12T14:50:30Z</time></trkpt><trkpt lat="45.83536032410206" lon="13.52449447932221"><ele>70.0</ele><time>2026-04-12T14:50:31Z</time></trkpt><trkpt lat="45.835232620017045" lon="13.524463474002042"><ele>70.0</ele><time>2026-04-12T14:50:32Z</time></trkpt><trkpt lat="45.835111400356986" lon="13.524436197985139"><ele>70.0</ele><time>2026-04-12T14:50:33Z</time></trkpt><trkpt lat="45.83499995560105" lon="13.524393621638792"><ele>68.75</ele><time>2026-04-12T14:50:34Z</time></trkpt><trkpt lat="45.83489294819232" lon="13.524324688088807"><ele>67.5</ele><time>2026-04-12T14:50:35Z</time></trkpt><trkpt lat="45.834790315228645" lon="13.524218608675653"><ele>66.25</ele><time>2026-04-12T14:50:36Z</time></trkpt><trkpt lat="45.83470697082402" lon="13.524071488424013"><ele>65.0</ele><time>2026-04-12T14:50:37Z</time></trkpt><trkpt lat="45.83465420273658" lon="13.523895524959574"><ele>64.75</ele><time>2026-04-12T14:50:38Z</time></trkpt><trkpt lat="45.83459633639464" lon="13.52371847874427"><ele>64.5</ele><time>2026-04-12T14:50:39Z</time></trkpt><trkpt lat="45.83452899203337" lon="13.523539698289161"><ele>64.25</ele><time>2026-04-12T14:50:40Z</time></trkpt><trkpt lat="45.834461595650865" lon="13.523356482381736"><ele>64.0</ele><time>2026-04-12T14:50:41Z</time></trkpt><trkpt lat="45.834392570550754" lon="13.523170732196403"><ele>64.0</ele><time>2026-04-12T14:50:41.999Z</time></trkpt><trkpt lat="45.83432322264125" lon="13.522980849958804"><ele>64.0</ele><time>2026-04-12T14:50:42.999Z</time></trkpt><trkpt lat="45.83425639590815" lon="13.5227921916056"><ele>64.0</ele><time>2026-04-12T14:50:43.999Z</time></trkpt><trkpt lat="45.83419099913419" lon="13.522603601498842"><ele>64.0</ele><time>2026-04-12T14:50:44.999Z</time></trkpt><trkpt lat="45.83412321671587" lon="13.522409794260378"><ele>62.33333333333333</ele><time>2026-04-12T14:50:45.999Z</time></trkpt><trkpt lat="45.83405770946053" lon="13.522214667981538"><ele>60.66666666666667</ele><time>2026-04-12T14:50:46.999Z</time></trkpt><trkpt lat="45.83398999937798" lon="13.522020350545294"><ele>59.0</ele><time>2026-04-12T14:50:47.999Z</time></trkpt><trkpt lat="45.833918874046844" lon="13.521825113871003"><ele>59.0</ele><time>2026-04-12T14:50:49Z</time></trkpt><trkpt lat="45.83385078053757" lon="13.521630615585563"><ele>59.0</ele><time>2026-04-12T14:50:50Z</time></trkpt><trkpt lat="45.83378136795795" lon="13.521432356503578"><ele>59.0</ele><time>2026-04-12T14:50:51Z</time></trkpt><trkpt lat="45.83371131973599" lon="13.521237601717392"><ele>58.66666666666667</ele><time>2026-04-12T14:50:52Z</time></trkpt><trkpt lat="45.83364298417584" lon="13.521041878950117"><ele>58.33333333333333</ele><time>2026-04-12T14:50:53Z</time></trkpt><trkpt lat="45.83357487151778" lon="13.520848625570132"><ele>58.0</ele><time>2026-04-12T14:50:54Z</time></trkpt><trkpt lat="45.833517706565715" lon="13.520651745334693"><ele>58.0</ele><time>2026-04-12T14:50:55Z</time></trkpt><trkpt lat="45.83347700053932" lon="13.52044585045702"><ele>58.0</ele><time>2026-04-12T14:50:56Z</time></trkpt><trkpt lat="45.83343995322988" lon="13.520238716246649"><ele>58.0</ele><time>2026-04-12T14:50:57Z</time></trkpt><trkpt lat="45.83340082968979" lon="13.520037812797485"><ele>58.0</ele><time>2026-04-12T14:50:58Z</time></trkpt><trkpt lat="45.83335625900894" lon="13.519835352750345"><ele>56.25</ele><time>2026-04-12T14:50:59Z</time></trkpt><trkpt lat="45.83331470682588" lon="13.519630070397586"><ele>54.5</ele><time>2026-04-12T14:51:00Z</time></trkpt><trkpt lat="45.833274252758414" lon="13.519423825162285"><ele>52.75</ele><time>2026-04-12T14:51:01Z</time></trkpt><trkpt lat="45.83323367761363" lon="13.51921538246932"><ele>51.0</ele><time>2026-04-12T14:51:02Z</time></trkpt><trkpt lat="45.833193092539645" lon="13.519002166479675"><ele>50.66666666666667</ele><time>2026-04-12T14:51:03Z</time></trkpt><trkpt lat="45.8331527985872" lon="13.518787818694879"><ele>50.333333333333336</ele><time>2026-04-12T14:51:04Z</time></trkpt><trkpt lat="45.8331120628953" lon="13.518570376936506"><ele>50.0</ele><time>2026-04-12T14:51:05Z</time></trkpt><trkpt lat="45.833072107447265" lon="13.51835485472368"><ele>49.66666666666667</ele><time>2026-04-12T14:51:06Z</time></trkpt><trkpt lat="45.83303107772411" lon="13.518137039116535"><ele>49.33333333333333</ele><time>2026-04-12T14:51:07Z</time></trkpt><trkpt lat="45.83299072268726" lon="13.517920780215146"><ele>49.0</ele><time>2026-04-12T14:51:08Z</time></trkpt><trkpt lat="45.832947963844276" lon="13.51770513158677"><ele>48.0</ele><time>2026-04-12T14:51:09Z</time></trkpt><trkpt lat="45.83290742969121" lon="13.517501273131309"><ele>47.0</ele><time>2026-04-12T14:51:10Z</time></trkpt><trkpt lat="45.83286845513522" lon="13.51730164246742"><ele>46.0</ele><time>2026-04-12T14:51:11Z</time></trkpt><trkpt lat="45.83282516186905" lon="13.517103738581055"><ele>45.0</ele><time>2026-04-12T14:51:12Z</time></trkpt><trkpt lat="45.83276413288879" lon="13.516912177706105"><ele>44.75</ele><time>2026-04-12T14:51:13Z</time></trkpt><trkpt lat="45.83267285582271" lon="13.51674161626412"><ele>44.5</ele><time>2026-04-12T14:51:14Z</time></trkpt><trkpt lat="45.83255037504236" lon="13.516614538178326"><ele>44.25</ele><time>2026-04-12T14:51:15Z</time></trkpt><trkpt lat="45.832410390747334" lon="13.516547046087215"><ele>44.0</ele><time>2026-04-12T14:51:16Z</time></trkpt><trkpt lat="45.83226053148649" lon="13.516545506584134"><ele>43.33333333333333</ele><time>2026-04-12T14:51:17Z</time></trkpt><trkpt lat="45.83210973621361" lon="13.5166034126596"><ele>42.666666666666664</ele><time>2026-04-12T14:51:18Z</time></trkpt><trkpt lat="45.831957741610346" lon="13.516660293365987"><ele>42.0</ele><time>2026-04-12T14:51:19Z</time></trkpt><trkpt lat="45.83180854486984" lon="13.51672094374735"><ele>39.75</ele><time>2026-04-12T14:51:20Z</time></trkpt><trkpt lat="45.8316668274745" lon="13.51678037586555"><ele>37.5</ele><time>2026-04-12T14:51:21Z</time></trkpt><trkpt lat="45.831530522930365" lon="13.516831667207851"><ele>35.25</ele><time>2026-04-12T14:51:22Z</time></trkpt><trkpt lat="45.83139676712356" lon="13.516896052208804"><ele>33.0</ele><time>2026-04-12T14:51:23Z</time></trkpt><trkpt lat="45.831262166272" lon="13.516982613568834"><ele>34.333333333333336</ele><time>2026-04-12T14:51:24Z</time></trkpt><trkpt lat="45.831125649956455" lon="13.517098906299902"><ele>35.66666666666667</ele><time>2026-04-12T14:51:25Z</time></trkpt><trkpt lat="45.83099118139032" lon="13.517234439918044"><ele>37.0</ele><time>2026-04-12T14:51:26Z</time></trkpt><trkpt lat="45.830862810252015" lon="13.517364035314294"><ele>37.0</ele><time>2026-04-12T14:51:27Z</time></trkpt><trkpt lat="45.83073622085022" lon="13.517480994912098"><ele>37.0</ele><time>2026-04-12T14:51:28Z</time></trkpt><trkpt lat="45.830609763055705" lon="13.517595041485762"><ele>37.0</ele><time>2026-04-12T14:51:29Z</time></trkpt><trkpt lat="45.83048862973283" lon="13.517706269644798"><ele>37.0</ele><time>2026-04-12T14:51:30Z</time></trkpt><trkpt lat="45.83035847459918" lon="13.517765583749778"><ele>37.0</ele><time>2026-04-12T14:51:31Z</time></trkpt><trkpt lat="45.830232119222075" lon="13.517852280642987"><ele>37.0</ele><time>2026-04-12T14:51:32Z</time></trkpt><trkpt lat="45.83008957648628" lon="13.517919818932526"><ele>37.0</ele><time>2026-04-12T14:51:33Z</time></trkpt><trkpt lat="45.82995297228126" lon="13.518018578902728"><ele>37.0</ele><time>2026-04-12T14:51:34Z</time></trkpt><trkpt lat="45.82982373829823" lon="13.518124060049484"><ele>36.0</ele><time>2026-04-12T14:51:35Z</time></trkpt><trkpt lat="45.82969834990327" lon="13.51823618643629"><ele>35.0</ele><time>2026-04-12T14:51:36Z</time></trkpt><trkpt lat="45.82957958295916" lon="13.518357974483726"><ele>34.0</ele><time>2026-04-12T14:51:37Z</time></trkpt><trkpt lat="45.8294664741963" lon="13.518496528313786"><ele>33.0</ele><time>2026-04-12T14:51:38Z</time></trkpt><trkpt lat="45.82936826918602" lon="13.51864975134474"><ele>33.0</ele><time>2026-04-12T14:51:39Z</time></trkpt><trkpt lat="45.82927191232176" lon="13.518805277941818"><ele>33.0</ele><time>2026-04-12T14:51:40Z</time></trkpt><trkpt lat="45.82917817832022" lon="13.518954170464166"><ele>33.0</ele><time>2026-04-12T14:51:41Z</time></trkpt><trkpt lat="45.82909085562616" lon="13.51910059576"><ele>33.0</ele><time>2026-04-12T14:51:42Z</time></trkpt><trkpt lat="45.82900696102502" lon="13.519245607636337"><ele>33.0</ele><time>2026-04-12T14:51:43Z</time></trkpt><trkpt lat="45.828933891537446" lon="13.51940289034061"><ele>33.0</ele><time>2026-04-12T14:51:44Z</time></trkpt><trkpt lat="45.828869207918956" lon="13.519564166234456"><ele>33.0</ele><time>2026-04-12T14:51:45Z</time></trkpt><trkpt lat="45.82881323184454" lon="13.519737835717716"><ele>33.0</ele><time>2026-04-12T14:51:46Z</time></trkpt><trkpt lat="45.82874754925332" lon="13.519912794141808"><ele>31.0</ele><time>2026-04-12T14:51:47Z</time></trkpt><trkpt lat="45.828673542435475" lon="13.520078708628633"><ele>29.0</ele><time>2026-04-12T14:51:48Z</time></trkpt><trkpt lat="45.82857040282183" lon="13.520229970130538"><ele>27.0</ele><time>2026-04-12T14:51:49Z</time></trkpt><trkpt lat="45.82843506272376" lon="13.520301677673517"><ele>25.0</ele><time>2026-04-12T14:51:50Z</time></trkpt><trkpt lat="45.828284340071015" lon="13.52035989436348"><ele>28.75</ele><time>2026-04-12T14:51:51Z</time></trkpt><trkpt lat="45.82816236971704" lon="13.520410969591111"><ele>32.5</ele><time>2026-04-12T14:51:52Z</time></trkpt><trkpt lat="45.8280377684269" lon="13.520438804358069"><ele>36.25</ele><time>2026-04-12T14:51:53Z</time></trkpt><trkpt lat="45.82789394894956" lon="13.520485685128838"><ele>40.0</ele><time>2026-04-12T14:51:54Z</time></trkpt><trkpt lat="45.82775630618339" lon="13.520572470323875"><ele>40.0</ele><time>2026-04-12T14:51:55Z</time></trkpt><trkpt lat="45.827668514405744" lon="13.520686167917095"><ele>40.0</ele><time>2026-04-12T14:51:56Z</time></trkpt><trkpt lat="45.827573372952614" lon="13.520787437138098"><ele>40.0</ele><time>2026-04-12T14:51:57Z</time></trkpt><trkpt lat="45.827493767770235" lon="13.520898826196364"><ele>40.0</ele><time>2026-04-12T14:51:58Z</time></trkpt><trkpt lat="45.82740781166925" lon="13.521004208448387"><ele>37.8</ele><time>2026-04-12T14:51:59Z</time></trkpt><trkpt lat="45.82732935994609" lon="13.521116560387316"><ele>35.6</ele><time>2026-04-12T14:52:00Z</time></trkpt><trkpt lat="45.82725170516304" lon="13.521210698175542"><ele>33.4</ele><time>2026-04-12T14:52:01Z</time></trkpt><trkpt lat="45.82719248597674" lon="13.521287880582413"><ele>31.2</ele><time>2026-04-12T14:52:02Z</time></trkpt><trkpt lat="45.82710912146364" lon="13.521391417048408"><ele>29.0</ele><time>2026-04-12T14:52:07Z</time></trkpt><trkpt lat="45.827043304593026" lon="13.521453705257606"><ele>29.0</ele><time>2026-04-12T14:52:08Z</time></trkpt><trkpt lat="45.826955145201225" lon="13.521573159507083"><ele>29.0</ele><time>2026-04-12T14:52:09Z</time></trkpt><trkpt lat="45.826848875772825" lon="13.521702885120465"><ele>29.0</ele><time>2026-04-12T14:52:10Z</time></trkpt><trkpt lat="45.826743041521816" lon="13.521813797043746"><ele>29.0</ele><time>2026-04-12T14:52:11Z</time></trkpt><trkpt lat="45.826641114024895" lon="13.521933575974787"><ele>27.5</ele><time>2026-04-12T14:52:12Z</time></trkpt><trkpt lat="45.82653306082091" lon="13.522065492098083"><ele>26.0</ele><time>2026-04-12T14:52:13Z</time></trkpt><trkpt lat="45.82642257425161" lon="13.522195179245282"><ele>24.5</ele><time>2026-04-12T14:52:14Z</time></trkpt><trkpt lat="45.826302566855496" lon="13.522327344531183"><ele>23.0</ele><time>2026-04-12T14:52:15Z</time></trkpt><trkpt lat="45.826185523556276" lon="13.522455117299312"><ele>23.0</ele><time>2026-04-12T14:52:16Z</time></trkpt><trkpt lat="45.826073677835446" lon="13.522582511818502"><ele>23.0</ele><time>2026-04-12T14:52:17Z</time></trkpt><trkpt lat="45.82596767195515" lon="13.5227064975596"><ele>23.0</ele><time>2026-04-12T14:52:18Z</time></trkpt><trkpt lat="45.82584519772531" lon="13.52276692027388"><ele>23.0</ele><time>2026-04-12T14:52:19Z</time></trkpt><trkpt lat="45.82573833750649" lon="13.522804082679768"><ele>20.25</ele><time>2026-04-12T14:52:20Z</time></trkpt><trkpt lat="45.82562862383285" lon="13.522849901489842"><ele>17.5</ele><time>2026-04-12T14:52:21Z</time></trkpt><trkpt lat="45.825513346606606" lon="13.522857111370147"><ele>14.75</ele><time>2026-04-12T14:52:22Z</time></trkpt><trkpt lat="45.825393934288684" lon="13.52285822365286"><ele>12.0</ele><time>2026-04-12T14:52:23Z</time></trkpt><trkpt lat="45.825264873357575" lon="13.522834867176599"><ele>11.25</ele><time>2026-04-12T14:52:24Z</time></trkpt><trkpt lat="45.825145591967825" lon="13.522756372248942"><ele>10.5</ele><time>2026-04-12T14:52:25Z</time></trkpt><trkpt lat="45.82502110759939" lon="13.52267418347063"><ele>9.75</ele><time>2026-04-12T14:52:26Z</time></trkpt><trkpt lat="45.824913197376404" lon="13.522568708255795"><ele>9.0</ele><time>2026-04-12T14:52:27Z</time></trkpt><trkpt lat="45.82481019391647" lon="13.522443404053243"><ele>9.0</ele><time>2026-04-12T14:52:28Z</time></trkpt><trkpt lat="45.82472295008732" lon="13.522299005047541"><ele>9.0</ele><time>2026-04-12T14:52:29Z</time></trkpt><trkpt lat="45.824649976487144" lon="13.522138546814633"><ele>9.0</ele><time>2026-04-12T14:52:30Z</time></trkpt><trkpt lat="45.82459529555456" lon="13.521961349128489"><ele>9.0</ele><time>2026-04-12T14:52:31Z</time></trkpt><trkpt lat="45.82456371263244" lon="13.521762526639728"><ele>8.75</ele><time>2026-04-12T14:52:32Z</time></trkpt><trkpt lat="45.824546162394135" lon="13.521571071081977"><ele>8.5</ele><time>2026-04-12T14:52:33Z</time></trkpt><trkpt lat="45.82451207004126" lon="13.521383382105608"><ele>8.25</ele><time>2026-04-12T14:52:34Z</time></trkpt><trkpt lat="45.82449451283886" lon="13.521216586363387"><ele>8.0</ele><time>2026-04-12T14:52:35Z</time></trkpt><trkpt lat="45.824474240002814" lon="13.521048217888398"><ele>9.0</ele><time>2026-04-12T14:52:36Z</time></trkpt><trkpt lat="45.82447359977958" lon="13.520879448445047"><ele>10.0</ele><time>2026-04-12T14:52:37Z</time></trkpt><trkpt lat="45.8244560973912" lon="13.520707988764403"><ele>11.0</ele><time>2026-04-12T14:52:38Z</time></trkpt><trkpt lat="45.824439222657716" lon="13.520542677810944"><ele>12.0</ele><time>2026-04-12T14:52:39Z</time></trkpt><trkpt lat="45.82441355715003" lon="13.520375226687777"><ele>12.0</ele><time>2026-04-12T14:52:40Z</time></trkpt><trkpt lat="45.82439553522495" lon="13.520210062566482"><ele>12.0</ele><time>2026-04-12T14:52:41Z</time></trkpt><trkpt lat="45.82438242424042" lon="13.520049404896719"><ele>12.0</ele><time>2026-04-12T14:52:42Z</time></trkpt><trkpt lat="45.824366678520505" lon="13.51989634707728"><ele>12.0</ele><time>2026-04-12T14:52:43Z</time></trkpt><trkpt lat="45.82436495925537" lon="13.519722669594682"><ele>11.75</ele><time>2026-04-12T14:52:44Z</time></trkpt><trkpt lat="45.82437180852563" lon="13.519560594189967"><ele>11.5</ele><time>2026-04-12T14:52:45Z</time></trkpt><trkpt lat="45.8243875672505" lon="13.519397144887465"><ele>11.25</ele><time>2026-04-12T14:52:46Z</time></trkpt><trkpt lat="45.824430265775" lon="13.519238836686807"><ele>11.0</ele><time>2026-04-12T14:52:47Z</time></trkpt><trkpt lat="45.82446570470301" lon="13.519075578647474"><ele>11.0</ele><time>2026-04-12T14:52:48Z</time></trkpt><trkpt lat="45.82450112240531" lon="13.518910625193898"><ele>11.0</ele><time>2026-04-12T14:52:48.999Z</time></trkpt><trkpt lat="45.82453733049941" lon="13.51874016052575"><ele>11.0</ele><time>2026-04-12T14:52:49.999Z</time></trkpt><trkpt lat="45.824572101841405" lon="13.518578491724302"><ele>11.0</ele><time>2026-04-12T14:52:50.999Z</time></trkpt><trkpt lat="45.824592052560156" lon="13.518408293816027"><ele>11.0</ele><time>2026-04-12T14:52:51.999Z</time></trkpt><trkpt lat="45.82462686272406" lon="13.518244052706457"><ele>11.0</ele><time>2026-04-12T14:52:52.999Z</time></trkpt><trkpt lat="45.82465800552441" lon="13.518059926054613"><ele>11.0</ele><time>2026-04-12T14:52:53.999Z</time></trkpt><trkpt lat="45.824672548847744" lon="13.517866241790896"><ele>11.0</ele><time>2026-04-12T14:52:55Z</time></trkpt><trkpt lat="45.82466864826348" lon="13.517680785893072"><ele>11.0</ele><time>2026-04-12T14:52:56Z</time></trkpt><trkpt lat="45.82464400002151" lon="13.517496997201796"><ele>11.0</ele><time>2026-04-12T14:52:57Z</time></trkpt><trkpt lat="45.824604045673205" lon="13.517318343420119"><ele>11.0</ele><time>2026-04-12T14:52:58Z</time></trkpt><trkpt lat="45.82456139364882" lon="13.517143731672256"><ele>11.0</ele><time>2026-04-12T14:52:59Z</time></trkpt><trkpt lat="45.824514021875835" lon="13.516979501994888"><ele>11.0</ele><time>2026-04-12T14:53:00Z</time></trkpt><trkpt lat="45.82446656470797" lon="13.51680554080512"><ele>11.0</ele><time>2026-04-12T14:53:01Z</time></trkpt><trkpt lat="45.82442178317312" lon="13.516628109074885"><ele>11.0</ele><time>2026-04-12T14:53:02Z</time></trkpt><trkpt lat="45.82437405486791" lon="13.516459879223833"><ele>11.0</ele><time>2026-04-12T14:53:03Z</time></trkpt><trkpt lat="45.82432240973261" lon="13.516293120681322"><ele>10.75</ele><time>2026-04-12T14:53:04Z</time></trkpt><trkpt lat="45.82427240192696" lon="13.516113347069766"><ele>10.5</ele><time>2026-04-12T14:53:05Z</time></trkpt><trkpt lat="45.824218962620506" lon="13.515939802183647"><ele>10.25</ele><time>2026-04-12T14:53:06Z</time></trkpt><trkpt lat="45.82416023666858" lon="13.515776473927"><ele>10.0</ele><time>2026-04-12T14:53:07Z</time></trkpt><trkpt lat="45.82410152866284" lon="13.515606765227222"><ele>10.0</ele><time>2026-04-12T14:53:08Z</time></trkpt><trkpt lat="45.82404533988639" lon="13.515437594983394"><ele>10.0</ele><time>2026-04-12T14:53:09Z</time></trkpt><trkpt lat="45.82397864272988" lon="13.515264462081"><ele>10.0</ele><time>2026-04-12T14:53:10Z</time></trkpt><trkpt lat="45.82391292408567" lon="13.515097013444"><ele>10.0</ele><time>2026-04-12T14:53:11Z</time></trkpt><trkpt lat="45.823844014159604" lon="13.514919832921139"><ele>10.0</ele><time>2026-04-12T14:53:12Z</time></trkpt><trkpt lat="45.82378186326749" lon="13.5147752980301"><ele>10.0</ele><time>2026-04-12T14:53:13Z</time></trkpt><trkpt lat="45.82371489926518" lon="13.514638411050104"><ele>10.0</ele><time>2026-04-12T14:53:14Z</time></trkpt><trkpt lat="45.8236465424976" lon="13.514502357344393"><ele>10.0</ele><time>2026-04-12T14:53:15Z</time></trkpt><trkpt lat="45.82356087767071" lon="13.514392830409806"><ele>10.0</ele><time>2026-04-12T14:53:16Z</time></trkpt><trkpt lat="45.82346322718648" lon="13.514299596769082"><ele>10.0</ele><time>2026-04-12T14:53:17Z</time></trkpt><trkpt lat="45.823352918480026" lon="13.51423604592683"><ele>10.0</ele><time>2026-04-12T14:53:18Z</time></trkpt><trkpt lat="45.82323943912421" lon="13.514175457859146"><ele>10.0</ele><time>2026-04-12T14:53:19Z</time></trkpt><trkpt lat="45.82312739938844" lon="13.514116193013475"><ele>10.0</ele><time>2026-04-12T14:53:20Z</time></trkpt><trkpt lat="45.82302719350817" lon="13.514050613161997"><ele>10.0</ele><time>2026-04-12T14:53:21Z</time></trkpt><trkpt lat="45.822940214192315" lon="13.513987258935577"><ele>10.0</ele><time>2026-04-12T14:53:22Z</time></trkpt><trkpt lat="45.822867601484454" lon="13.513915865635795"><ele>10.0</ele><time>2026-04-12T14:53:23Z</time></trkpt><trkpt lat="45.8228128467144" lon="13.513837845589658"><ele>10.0</ele><time>2026-04-12T14:53:24Z</time></trkpt><trkpt lat="45.822755524898795" lon="13.513741375497968"><ele>9.833333333333334</ele><time>2026-04-12T14:53:25Z</time></trkpt><trkpt lat="45.82270762020646" lon="13.513655680844128"><ele>9.666666666666668</ele><time>2026-04-12T14:53:26Z</time></trkpt><trkpt lat="45.82266447819201" lon="13.513586094091169"><ele>9.5</ele><time>2026-04-12T14:53:27Z</time></trkpt><trkpt lat="45.822620371988805" lon="13.513514060624866"><ele>9.333333333333334</ele><time>2026-04-12T14:53:28Z</time></trkpt><trkpt lat="45.82256818188042" lon="13.513411935029593"><ele>9.166666666666666</ele><time>2026-04-12T14:53:30Z</time></trkpt><trkpt lat="45.82250938187429" lon="13.513302122956208"><ele>9.0</ele><time>2026-04-12T14:53:32Z</time></trkpt><trkpt lat="45.822471353153674" lon="13.513229455115454"><ele>7.0</ele><time>2026-04-12T14:53:33Z</time></trkpt><trkpt lat="45.82243143562935" lon="13.513154108657712"><ele>7.0</ele><time>2026-04-12T14:53:34Z</time></trkpt></trkseg></trk></gpx>